     2              Observation         GPS                 RINEX VERSION / TYPE
ASRINEXO V2.2.0 UX USGS 15-AUG-94 13:56                     PGM / RUN BY / DATE
                                                            COMMENT
Original Marker Name: ASB1                                  COMMENT
Campaign Name: USGS-Pinyon Flat Monit                       COMMENT
4-Character Station Name: ASR1                              COMMENT
6-Character Antenna Code: ASHL12                            COMMENT
Vertical Measurement Point: BBE                             COMMENT
Vertical Offset to Rinex Ref. Point: 0.0595                 COMMENT
Radial Measurement Point: EGP                               COMMENT
Radial Offset to Rinex Ref. Point: 0.1424                   COMMENT
Antenna Height from Field Measurement: 1.3510 m             COMMENT
Additional Antenna Identification Info.:                    COMMENT
Original Ashtech L1/L2 (700228ABC)                          COMMENT
Revised Rinex header created by UCSD GPS archive for        COMMENT
SCEC DC on 07-Jul-2000 (2000.189) 23:10:17 GMT              COMMENT
For assistance contact dagnew@ucsd.edu                      COMMENT
or anderson@python.ucsd.edu                                 COMMENT
                                                            COMMENT
ASBESTOS RM1                                                MARKER NAME
                                                            MARKER NUMBER
WKG US GEOLOGICAL SURVEY                                    OBSERVER / AGENCY
763 ASHTECH L-XII 6A                                        REC # / TYPE / VERS
616 ASHTECH GEODETIC L                                      ANT # / TYPE
 -2666864.7600 -4267875.7600  3905567.1000                  APPROX POSITION XYZ
        1.2840        0.0000        0.0000                  ANTENNA: DELTA H/E/N
     1     2     0                                          WAVELENGTH FACT L1/2
     3    C1    L1    L2                                    # / TYPES OF OBSERV
    30                                                      INTERVAL
  1991     5     2    20    19    0.000000                  TIME OF FIRST OBS
  1991     5     3    14     4    0.000000                  TIME OF LAST OBS
                                                            END OF HEADER
 91  5  2 20 19  0.0000000  0  1 19
  21159082.778       23164.947 7     18050.494 9
 91  5  2 20 19 30.0000000  0  2 19 11
  20863855.858       47161.959 7     36749.456 9
  23083611.853        2648.008 7      2063.285 5
 91  5  2 20 20  0.0000000  0  5 19 11 18  6  2
  20868468.457       71401.579 7     55637.465 9
  22786918.051       18899.220 7     14726.590 5
  21872141.236       80688.359 7     62874.382 7
  23687196.893      -51300.007 5    -39973.987 4
  21901341.610      -48106.085 7    -37485.234 7
 91  5  2 20 20 30.0000000  0  6 19 16 11 18  6  2
  21172934.377       95928.156 7     74749.071 9
  24118712.456       12199.754 5      9506.281 4
  23089935.079       35840.703 7     27927.771 5
  22190073.227      176003.909 7    137146.135 8
  23976919.630     -104268.892 5    -81248.335 3
  22191738.274      -97498.037 7    -75972.394 6
 91  5  2 20 21  0.0000000  0  6 19 16 11 18  6  2
  21177648.623      120721.729 8     94068.721 9
  24119957.494       18758.208 5     14616.743 3
  23093281.647       53451.744 7     41650.653 5
  22208283.820      271718.486 7    211728.809 7
  23966850.802     -157163.869 5   -122465.121 4
  22182406.648     -146536.379 7   -114184.016 7
 91  5  2 20 21 30.0000000  0  6 19 16 11 18  6  2
  21182419.216      145786.615 7    113599.779 9
  24121321.560       25900.732 5     20182.349 3
  23096762.546       71737.045 7     55898.965 5
  22226575.069      367831.846 7    286622.220 7
  23956800.245     -209978.634 5   -163619.395 3
  22173140.059     -195214.312 7   -152114.798 8
 91  5  2 20 22  0.0010000  0  6 19 16 11 18  6  2
  21187245.268      171146.535 7    133360.759 9
  24122789.336       33648.901 5     26219.871 1
  23100374.448       90719.064 7     70690.171 5
  22244943.939      464367.379 7    361844.592 7
  23946766.791     -262693.270 5   -204695.641 3
  22163955.908     -243511.560 7   -189748.951 6
 91  5  2 20 22 30.0010000  0  6 19 16 11 18  6  2
  21192121.400      196793.632 8    153345.496 9
  24124379.732       41993.846 5     32722.385 4
  23104120.050      110389.510 7     86017.784 5
  22263396.165      561309.549 7    437383.818 7
  23936745.637     -315311.512 5   -245696.784 3
  22154832.027     -291431.906 7   -227089.417 6
 91  5  2 20 23  0.0010000  0  6 19 16 11 18  6  2
  21197059.288      222729.435 7    173555.188 8
  24126085.857       50936.177 5     39690.360 2
  23107990.979      130749.283 7    101882.565 6
  22281914.947      658659.840 7    513241.068 8
  23926761.652     -367834.884 5   -286624.016 2
  22145785.188     -338976.262 7   -264136.907 7
 91  5  2 20 23 30.0010000  0  6 19 16 11 18  6  2
  21202050.225      248939.811 7    193978.847 9
  24127896.300       60460.507 5     47111.920 4
  23111992.908      151783.837 7    118273.128 4
  22300518.869      756401.776 7    589403.498 7
  23916779.761     -420278.169 5   -327488.801 3
  22136809.703     -386158.630 7   -300902.314 7
 91  5  2 20 24  0.0010000  0  6 19 16 11 18  6  2
  21207083.740      275413.581 7    214607.738 9
  24129818.267       70554.021 5     54976.910 4
  23116125.835      173481.159 7    135180.167 5
  22319191.439      854521.778 7    665860.515 7
  23906811.359     -472653.449 5   -368300.658 3
  22127893.881     -432990.834 7   -337394.874 8
 91  5  2 20 24 30.0010000  0  6 19 16 11 18  6  2
  21212171.212      302148.777 7    235440.359 9
  24131851.461       81213.779 5     63283.220 2
  23120375.696      195838.706 7    152601.663 5
  22337936.568      953015.169 7    742608.499 7
  23896858.244     -524963.361 5   -409061.523 2
  22119046.708     -479475.131 7   -373616.327 7
 91  5  2 20 25  0.0010000  0  6 19 16 11 18  6  2
  21217311.767      329145.957 7    256477.104 9
  24133978.486       92438.748 5     72029.917 3
  23124756.869      218856.013 7    170537.243 5
  22356745.250     1051879.761 7    819645.722 7
  23886913.836     -577208.408 5   -449771.876 3
  22110270.871     -525611.556 7   -409566.718 7
 91  5  2 20 25 30.0010000  0  6 19 16 11 18  6  2
  21222496.366      356405.744 7    277718.475 8
  24136223.038      104228.589 5     81216.758 2
  23129267.541      242533.317 7    188987.139 5
  22375630.382     1151113.941 7    896970.928 7
  23876990.996     -629388.152 6   -490431.363 4
  22101556.808     -571399.690 7   -445245.714 8
 91  5  2 20 26  0.0010000  0  6 19 16 11 18  6  2
  21227729.547      383923.082 7    299160.556 9
  24138573.111      116576.631 5     90838.567 3
  23133894.833      266864.428 7    207946.470 5
  22394585.053     1250709.892 7    974578.040 7
  23867066.970     -681508.935 5   -531044.901 3
  22092911.988     -616845.648 7   -480658.089 7
 91  5  2 20 26 30.0010000  0  6 19 16 11 18  6  2
  21233024.187      411700.996 7    320805.669 9
  24141036.506      129484.002 5    100896.237 4
  23138654.345      291851.438 7    227416.882 6
  22413603.277     1350668.298 7   1052467.584 7
  23857157.341     -733568.413 5   -571610.646 3
  22084326.847     -661946.667 7   -515801.671 8
 91  5  2 20 27  0.0010000  0  6 19 16 11 18  6  2
  21238354.496      439731.204 7    342647.369 9
  24143594.044      142941.351 5    111382.414 4
  23143527.475      317485.292 7    247391.360 5
  22432694.671     1450977.997 7   1130630.854 6
  23847260.293     -785575.572 5   -612135.648 2
  22075808.838     -706711.266 8   -550683.114 8
 91  5  2 20 27 30.0010000  0  6 19 16 11 18  6  2
  21243737.870      468022.658 7    364692.637 9
  24146256.197      156955.942 5    122302.883 3
  23148528.900      343774.219 7    267876.253 5
  22451849.600     1551645.706 7   1209073.092 5
  23837384.220     -837521.944 5   -652613.263 3
  22067355.289     -751130.687 8   -585295.594 8
 91  5  2 20 28  0.0010000  0  6 19 16 11 18  6  2
  21249168.902      496566.001 7    386934.190 9
  24149031.969      171517.052 5    133649.190 5
  23153655.058      370707.770 7    288863.444 5
  22471071.102     1652659.083 7   1287784.689 6
  23827507.868     -889417.890 5   -693051.607 2
  22058971.890     -795215.145 8   -619647.052 7
 91  5  2 20 28 30.0010000  0  6 19 16 11 18  6  2
  21254647.310      525363.299 7    409373.628 9
  24151902.494      186625.430 5    145421.898 2
  23158902.025      398287.458 7    310354.105 5
  22490360.049     1754017.842 7   1366765.416 6
  23817636.594     -941261.572 5   -733449.181 5
  22050641.558     -838962.844 8   -653736.111 8
 91  5  2 20 29  0.0010000  0  6 19 16 11 18  6  2
  21260182.380      554420.550 7    432015.622 9
  24154883.916      202285.232 5    157624.296 3
  23164276.709      426517.861 7    332351.842 5
  22509713.458     1855725.258 7   1446017.814 6
  23807786.312     -993048.361 5   -773802.461 4
  22042382.876     -882368.396 8   -687558.562 8
 91  5  2 20 29 30.0010000  0  6 19 16 11 18  6  2
  21265754.932      583732.777 7    454856.297 9
  24157964.892      218489.968 5    170251.337 3
  23169769.200      455393.030 7    354851.978 5
  22529136.108     1957773.697 7   1525535.942 6
  23797941.719    -1044783.619 5   -814115.594 3
  22034188.044     -925437.193 8   -721118.598 8
 91  5  2 20 30  0.0010000  0  6 19 16 11 18  6  2
  21271385.926      613304.831 7    477899.449 9
  24161154.687      235243.120 5    183305.677 4
  23175391.503      484916.915 7    377857.594 5
  22548616.013     2060165.009 7   1605321.241 8
  23788104.630    -1096463.498 5   -854385.532 3
  22026056.487     -968164.495 7   -754412.536 8
 91  5  2 20 30 30.0010000  0  6 19 16 11 18  6  2
  21277056.199      643130.131 7    501139.915 9
  24164449.393      252536.133 6    196780.717 2
  23181126.238      515081.837 7    401362.756 5
  22568168.790     2162890.301 7   1685366.772 7
  23778278.343    -1148095.033 5   -894617.836 3
  22017987.873    -1010557.828 7   -787446.243 7
 91  5  2 20 31  0.0010000  0  6 19 16 11 18  6  2
  21282786.432      673209.935 7    524578.703 9
  24167837.056      270368.389 5    210675.946 3
  23186990.785      545887.804 7    425367.420 5
  22587779.101     2265948.366 7   1765671.607 6
  23768458.931    -1199677.867 5   -934812.177 4
  22009983.999    -1052616.761 8   -820219.363 8
 91  5  2 20 31 30.0010000  0  6 19 16 11 18  6  2
  21288555.631      703549.107 7    548219.597 9
  24171334.132      288743.859 5    224994.457 4
  23192974.936      577338.837 7    449874.703 6
  22607453.890     2369341.514 7   1846237.542 7
  23758659.621    -1251207.600 5   -974965.150 3
  22002044.010    -1094336.460 8   -852728.168 8
 91  5  2 20 32  0.0010000  0  6 19 16 11 18  6  2
  21294379.100      734140.601 7    572057.097 9
  24174931.651      307653.194 5    239728.956 4
  23199081.413      609426.591 7    474878.145 5
  22627190.417     2473059.417 7   1927056.526 7
  23748862.406    -1302692.087 5  -1015082.834 4
  21994172.060    -1135724.666 8   -884978.665 8
 91  5  2 20 32 30.0010000  0  6 19 16 11 18  6  2
  21300247.853      764986.807 7    596093.082 9
  24178632.878      327096.605 5    254879.590 2
  23205313.496      642152.228 7    500378.632 6
  22646985.718     2577101.779 7   2008128.347 7
  23739073.288    -1354129.671 5  -1055164.027 4
  21986355.566    -1176779.795 8   -916969.631 8
 91  5  2 20 33  0.0010000  0  6 19 16 11 18  6  2
  21306169.654      796088.179 7    620327.894 9
  24182432.750      347073.588 5    270446.016 3
  23211655.603      675515.101 7    526375.676 5
  22666848.759     2681466.488 7   2089451.337 7
  23729292.859    -1405520.321 6  -1095208.622 4
  21978608.019    -1217502.112 8   -948701.245 8
 91  5  2 20 33 30.0010000  0  6 19 16 11 18  6  2
  21312129.811      827445.146 7    644761.867 9
  24186338.440      367583.200 5    286427.491 4
  23218127.226      709514.517 7    552868.734 4
  22686769.980     2786151.595 7   2171023.991 7
  23719526.810    -1456864.415 6  -1135216.937 4
  21970923.152    -1257891.143 8   -980173.167 8
 91  5  2 20 34  0.0010000  0  6 19 16 11 18  6  2
  21318147.553      859059.754 7    669396.612 9
  24190337.978      388624.708 5    302823.452 3
  23224718.156      744150.895 7    579858.099 5
  22706750.550     2891156.368 7   2252845.731 6
  23709762.872    -1508160.711 5  -1175188.021 3
  21963296.430    -1297946.227 8  -1011384.869 8
 91  5  2 20 34 30.0010000  0  6 19 16 11 18  6  2
  21324221.643      890929.490 7    694230.143 9
  24194449.039      410194.428 5    319630.979 3
  23231430.818      779420.781 7    607341.149 5
  22726796.766     2996475.879 7   2334912.716 7
  23699998.324    -1559412.113 5  -1215124.125 4
  21955738.950    -1337669.535 8  -1042338.032 8
 91  5  2 20 35  0.0010000  0  6 19 16 11 18  6  2
  21330330.213      923059.514 7    719266.493 9
  24198656.322      432295.945 5    336852.854 2
  23238261.880      815327.952 7    635320.769 6
  22746896.049     3102112.122 7   2417226.507 6
  23690261.067    -1610614.156 5  -1255021.763 4
  21948245.949    -1377057.034 8  -1073029.542 9
 91  5  2 20 35 30.0010000  0  6 19 16 11 18  6  2
  21336489.460      955442.956 7    744500.321 8
  24202958.341      454920.168 5    354482.097 3
  23245211.674      851864.239 7    663790.591 6
  22767054.995     3208055.625 7   2499779.720 7
  23680524.108    -1661774.343 5  -1294886.774 4
  21940814.389    -1416115.923 8  -1103464.987 8
 91  5  2 20 36  0.0010000  0  6 19 16 11 18  6  2
  21342705.960      988086.410 7    769936.748 9
  24207364.993      478072.054 5    372522.496 3
  23252287.371      889034.536 7    692754.461 4
  22787275.399     3314309.984 7   2582575.148 6
  23670802.452    -1712886.844 5  -1334714.627 4
  21933443.400    -1454840.238 8  -1133639.724 9
 91  5  2 20 36 30.0010000  0  6 19 16 11 18  6  2
  21348960.816     1020986.452 7    795573.122 9
  24211869.976      501745.733 5    390969.431 2
  23259483.596      926833.975 7    722208.548 4
  22807553.966     3420869.076 7   2665608.048 6
  23661084.670    -1763955.938 6  -1374508.690 3
  21926135.650    -1493234.342 8  -1163557.160 9
 91  5  2 20 37  0.0010000  0  6 19 16 11 18  6  2
  21355276.242     1054144.340 7    821410.410 9
  24216470.586      525940.851 5    409822.715 2
  23266792.829      965262.693 7    752153.019 5
  22827890.380     3527731.621 7   2748877.370 6
  23651372.297    -1814980.680 6  -1414268.173 4
  21918893.566    -1531297.730 8  -1193216.892 9
 91  5  2 20 37 30.0010000  0  6 19 16 11 18  6  2
  21361633.042     1087564.632 7    847452.177 8
  24221172.233      550660.368 5    429084.600 2
  23274227.983     1004323.618 7    782590.086 6
  22848278.063     3634898.865 7   2832384.138 5
  23641677.306    -1865957.071 6  -1453989.961 4
  21911716.239    -1569026.467 8  -1222615.858 8
 91  5  2 20 38  0.0010000  0  6 19 16 11 18  6  2
  21368038.110     1121244.250 7    873696.015 8
  24225979.995      575898.748 5    448750.839 3
  23281777.366     1044012.420 7    813516.426 5
  22868730.206     3742365.846 7   2916124.462 6
  23631984.722    -1916888.804 6  -1493676.996 4
  21904596.759    -1606423.772 8  -1251756.566 8
 91  5  2 20 38 30.0010000  0  6 19 16 11 18  6  2
  21374498.041     1155181.918 7    900140.928 9
  24230879.807      601652.767 5    468818.883 3
  23289451.449     1084326.234 7    844929.777 5
  22889237.510     3850127.617 7   3000094.488 6
  23622303.219    -1967777.872 6  -1533330.752 4
  21897544.149    -1643491.817 8  -1280640.715 9
 91  5  2 20 39  0.0010000  0  6 19 16 11 18  6  2
  21381010.741     1189378.022 7    926787.226 9
  24235877.043      627920.646 5    489287.297 1
  23297243.948     1125263.599 7    876829.017 5
  22909799.678     3958181.869 7   3084292.424 5
  23612625.014    -2018624.604 6  -1572951.525 4
  21890551.794    -1680231.096 8  -1309268.672 9
 91  5  2 20 39 30.0010000  0  6 19 16 11 18  6  2
  21387563.298     1223831.621 7    953634.155 9
  24240971.721      654699.152 5    510153.612 3
  23305150.083     1166821.889 7    909212.098 5
  22930419.693     4066525.229 7   3168715.636 5
  23602953.423    -2069430.722 6  -1612540.643 5
  21883623.587    -1716643.643 8  -1337642.046 9
 91  5  2 20 40  0.0010000  0  6 19 16 11 18  6  2
  21394165.623     1258541.068 7    980680.460 9
  24246165.936      681985.541 5    531415.660 3
  23313174.932     1208998.512 7    942076.970 5
  22951086.492     4175153.356 7   3253360.749 6
  23593298.601    -2120197.736 6  -1652099.304 2
  21876755.338    -1752730.943 8  -1365761.971 9
 91  5  2 20 40 30.0010000  0  6 19 16 11 18  6  2
  21400821.624     1293504.465 7   1007924.648 9
  24251455.166      709775.957 5    553070.468 2
  23321318.792     1251790.144 7    975421.096 5
  22971816.547     4284061.432 7   3338224.006 6
  23583641.685    -2170928.145 6  -1691629.434 4
  21869950.347    -1788495.460 8  -1393630.389 9
 91  5  2 20 41  0.0010000  0  6 19 16 11 18  6  2
  21407521.374     1328722.590 7   1035367.320 9
  24256840.635      738068.938 5    575116.907 3
  23329578.364     1295195.945 7   1009243.773 4
  22992592.759     4393247.888 7   3423304.162 6
  23573992.867    -2221621.884 6  -1731130.997 3
  21863205.017    -1823937.252 8  -1421247.333 9
 91  5  2 20 41 30.0010000  0  6 19 16 11 18  6  2
  21414277.801     1364204.751 7   1063015.728 9
  24262322.045      766871.278 5    597560.253 2
  23337957.575     1339223.122 7   1043550.650 5
  23013427.429     4502718.923 7   3508606.085 6
  23564351.238    -2272270.263 6  -1770597.201 4
  21856524.149    -1859048.359 8  -1448606.600 9
 91  5  2 20 42  0.0010000  0  6 19 16 11 18  6  2
  21421077.994     1399947.725 7   1090867.373 8
  24267903.585      796178.123 5    620396.678 3
  23346452.794     1383867.026 6   1078338.091 4
  23034306.789     4612468.052 7   3594124.705 6
  23554726.710    -2322876.933 6  -1810030.911 4
  21849905.334    -1893832.238 8  -1475710.900 8
 91  5  2 20 42 30.0010000  0  6 19 16 11 18  6  2
  21427926.158     1435944.175 7   1118916.528 9
  24273575.359      825979.427 5    643618.384 2
  23355070.026     1429118.126 7   1113598.682 5
  23055246.091     4722485.551 7   3679852.420 6
  23545104.258    -2373450.113 6  -1849438.537 3
  21843344.366    -1928297.335 8  -1502566.774 9
 91  5  2 20 43  0.0010000  0  6 19 16 11 18  6  2
  21434827.370     1472199.405 7   1147167.329 8
  24279329.865      856278.435 5    667227.955 3
  23363790.092     1474980.115 6   1149335.272 6
  23076227.657     4832773.518 7   3765790.892 6
  23535489.014    -2423984.899 6  -1888816.251 4
  21836848.767    -1962438.910 8  -1529170.568 9
 91  5  2 20 43 30.0010000  0  6 19 16 11 18  6  2
  21441775.959     1508713.615 7   1175619.942 8
  24285195.005      887073.014 5    691223.640 3
  23372629.464     1521451.845 6   1185546.988 5
  23097269.496     4943329.637 7   3851938.323 5
  23525874.677    -2474481.414 6  -1928164.102 4
  21830417.018    -1996257.179 8  -1555522.430 9
 91  5  2 20 44  0.0010000  0  6 19 16 11 18  6  2
  21448772.519     1545491.734 7   1204278.183 9
  24291148.880      918365.973 5    715607.699 3
  23381592.367     1568536.168 6   1222236.040 5
  23118359.288     5054156.089 7   3938296.388 5
  23516276.813    -2524935.159 6  -1967478.655 4
  21824040.429    -2029748.193 8  -1581619.292 9
 91  5  2 20 44 30.0010000  0  6 19 16 11 18  6  2
  21455822.739     1582526.835 7   1233136.676 9
  24297191.507      950148.694 5    740373.382 2
  23390668.871     1616224.389 7   1259395.676 5
  23139498.552     5165243.260 7   4024857.615 4
  23506681.060    -2575353.576 6  -2006765.712 5
  21817731.006    -2062919.567 8  -1607467.085 9
 91  5  2 20 45  0.0010000  0  6 19 16 11 18  6  2
  21462914.036     1619817.367 7   1262194.206 9
  24303332.151      982417.461 5    765517.817 3
  23399862.920     1664513.048 7   1297023.199 5
  23160686.397     5276586.159 7   4111618.101 4
  23497092.200    -2625738.962 6  -2046026.982 4
  21811477.337    -2095773.293 8  -1633067.353 9
 91  5  2 20 45 30.0010000  0  6 19 16 11 18  6  2
  21470064.088     1657367.800 7   1291454.246 9
  24309569.627     1015173.777 5    791042.218 2
  23409163.677     1713404.675 6   1335120.560 6
  23181927.290     5388187.083 7   4198579.647 5
  23487514.439    -2676087.197 6  -2085259.320 4
  21805286.314    -2128306.303 8  -1658417.713 9
 91  5  2 20 46  0.0010000  0  6 19 16 11 18  6  2
  21477256.405     1695176.108 7   1320915.248 9
  24315891.055     1048413.368 5    816943.056 3
  23418578.052     1762895.470 7   1373684.785 6
  23203210.448     5500040.149 6   4285737.656 6
  23477936.957    -2726400.984 6  -2124464.830 4
  21799157.658    -2160521.180 8  -1683520.179 9
 91  5  2 20 46 30.0010000  0  6 19 16 11 18  6  2
  21484503.289     1733249.387 7   1350582.708 9
  24322315.004     1082140.969 5    843224.255 2
  23428111.455     1812990.603 7   1412719.940 5
  23224542.781     5612150.315 6   4373095.995 5
  23468369.683    -2776673.421 6  -2163638.090 3
  21793088.960    -2192411.632 8  -1708369.858 9
 91  5  2 20 47  0.0010000  0  6 19 16 11 18  6  2
  21491800.830     1771584.849 7   1380454.471 8
  24328824.703     1116351.557 5    869881.813 4
  23437758.179     1863685.224 7   1452222.245 5
  23245925.179     5724511.468 6   4460649.941 5
  23458807.504    -2826907.935 6  -2202781.846 4
  21787079.611    -2223981.429 8  -1732969.660 9
 91  5  2 20 47 30.0010000  0  6 19 16 11 18  6  2
  21499141.247     1810185.715 7   1410533.034 9
  24335431.530     1151045.753 5    896916.183 4
  23447521.524     1914981.007 7   1492192.971 6
  23267355.843     5837124.243 6   4548399.925 5
  23449260.019    -2877101.523 6  -2241893.669 5
  21781133.834    -2255227.956 8  -1757317.565 9
 91  5  2 20 48  0.0010000  0  6 19 16 11 18  6  2
  21506537.138     1849044.381 7   1440812.485 9
  24342116.604     1186214.440 5    924320.259 3
  23457396.375     1966867.858 7   1532624.249 6
  23288829.383     5949978.072 6   4636337.747 5
  23439713.720    -2927262.635 6  -2280980.192 5
  21775249.201    -2286159.928 8  -1781420.364 9
 91  5  2 20 48 30.0010000  0  6 19 16 11 18  6  2
  21513986.374     1888164.771 7   1471295.884 9
  24348906.902     1221858.844 5    952095.045 3
  23467377.673     2019348.123 7   1573517.941 6
  23310354.785     6063074.609 6   4724464.696 5
  23430181.522    -2977387.256 6  -2320038.295 5
  21769422.137    -2316773.711 8  -1805275.225 9
 91  5  2 20 49  0.0010000  0  6 19 16 11 18  6  2
  21521474.594     1927542.911 7   1501980.116 8
  24355768.555     1257972.568 5    980235.524 2
  23477477.981     2072415.724 7   1614869.311 5
  23331913.744     6176406.578 6   4812775.059 4
  23420647.229    -3027479.910 6  -2359071.481 5
  21763655.032    -2347074.151 8  -1828885.927 9
 91  5  2 20 49 30.0010000  0  6 19 16 11 18  6  2
  21529024.867     1967179.174 7   1532865.472 8
  24362736.636     1294553.840 5   1008740.361 3
  23487687.719     2126069.037 6   1656677.063 5
  23353525.786     6289971.190 6   4901266.718 5
  23411118.624    -3077540.510 6  -2398079.709 5
  21757946.979    -2377061.948 8  -1852253.008 9
 91  5  2 20 50  0.0010000  0  6 19 16 11 18  6  2
  21536612.605     2007078.248 7   1563955.638 8
  24369779.055     1331604.539 5   1037610.994 3
  23498008.668     2180310.797 7   1698943.340 5
  23375187.300     6403770.692 6   4989941.420 5
  23401596.913    -3127564.850 6  -2437059.675 5
  21752303.387    -2406732.844 8  -1875373.153 9
 91  5  2 20 50 30.0010000  0  6 19 16 11 18  6  2
  21544253.427     2047241.664 7   1595251.769 8
  24376928.811     1369124.292 5   1066847.098 2
  23508446.847     2235140.509 7   1741667.798 5
  23396882.981     6517803.550 6   5078797.939 6
  23392087.190    -3177551.699 6  -2476010.418 5
  21746716.769    -2436086.226 8  -1898245.889 9
 91  5  2 20 51  0.0010000  0  6 19 16 11 18  6  2
  21551950.300     2087668.468 7   1626753.146 8
  24384151.997     1407109.331 5   1096445.778 3
  23518993.532     2290554.807 7   1784847.752 6
  23418626.022     6632065.979 6   5167833.347 6
  23382581.079    -3227502.504 6  -2514933.064 4
  21741193.688    -2465124.144 8  -1920872.810 9
 91  5  2 20 51 30.0010000  0  6 19 16 11 18  6  2
  21559695.736     2128360.274 7   1658461.009 8
  24391474.440     1445559.351 5   1126406.766 3
  23529646.960     2346553.026 7   1828482.699 4
  23440410.734     6746556.232 6   5257046.275 6
  23373082.158    -3277416.127 6  -2553826.762 5
  21735724.877    -2493846.075 8  -1943253.500 9
 91  5  2 20 52  0.0010000  0  6 19 16 11 18  6  2
  21567483.436     2169312.046 7   1690371.438 8
  24398873.315     1484466.023 5   1156723.607 3
  23540411.319     2403128.303 7   1872567.309 6
  23462244.028     6861267.054 6   5346431.067 5
  23363588.925    -3327297.842 6  -2592695.605 5
  21730316.322    -2522257.457 8  -1965392.210 9
 91  5  2 20 52 30.0010000  0  6 19 16 11 18  6  2
  21575324.221     2210527.715 7   1722487.499 7
  24406366.630     1523830.415 5   1187397.034 2
  23551287.778     2460282.327 7   1917102.892 5
  23484111.786     6976199.137 6   5435988.261 6
  23354102.289    -3377143.975 6  -2631536.675 4
  21724971.023    -2550355.242 8  -1987286.551 9
 91  5  2 20 53  0.0010000  0  6 19 16 11 18  6  2
  21583215.942     2252008.891 7   1754810.463 8
  24413946.272     1563652.616 5   1218427.274 3
  23562276.372     2518014.377 7   1962088.893 4
  23506029.608     7091350.939 6   5525716.686 6
  23344633.644    -3426953.260 6  -2670349.070 5
  21719684.183    -2578138.715 8  -2008935.980 9
 91  5  2 20 53 30.0010000  0  6 19 16 11 18  6  2
  21591161.044     2293755.663 7   1787340.372 8
  24421614.962     1603930.150 5   1249812.297 3
  23573371.098     2576322.813 7   2007524.014 5
  23527977.724     7206719.950 6   5615614.331 6
  23335155.401    -3476725.713 6  -2709132.748 4
  21714456.395    -2605608.651 8  -2030341.088 9
 91  5  2 20 54  0.0010000  0  6 19 16 11 18  6  2
  21599159.805     2335768.100 7   1820077.301 8
  24429355.913     1644659.927 5   1281549.738 2
  23584571.939     2635205.270 7   2053406.439 5
  23549972.293     7322303.805 6   5705679.414 6
  23325688.257    -3526461.650 6  -2747887.975 5
  21709290.973    -2632765.676 8  -2051502.376 9
 91  5  2 20 54 30.0010000  0  6 19 16 11 18  6  2
  21607203.552     2378047.635 7   1853022.346 8
  24437189.491     1685840.886 5   1313638.707 2
  23595888.213     2694661.014 7   2099735.545 5
  23572009.440     7438100.502 6   5795910.331 5
  23316228.616    -3576160.077 6  -2786613.979 5
  21704181.602    -2659609.597 8  -2072419.701 9
 91  5  2 20 55  0.0010000  0  6 19 16 11 18  6  2
  21615298.534     2420586.247 7   1886169.284 8
  24445113.600     1727462.854 5   1346071.374 2
  23607308.805     2754679.715 7   2146503.354 5
  23594085.257     7554099.116 6   5886298.569 6
  23306779.445    -3625829.275 6  -2825317.196 5
  21699130.706    -2686149.142 8  -2093099.826 9
 91  5  2 20 55 30.0010000  0  6 19 16 11 18  6  2
  21623444.208     2463395.675 7   1919527.247 8
  24453119.550     1769534.709 5   1378854.562 3
  23618842.422     2815270.506 6   2193716.941 5
  23616200.947     7670308.703 6   5976851.221 6
  23297336.295    -3675457.817 6  -2863988.737 6
  21694140.956    -2712373.374 8  -2113534.266 9
 91  5  2 20 56  0.0010000  0  6 19 16 11 18  6  2
  21631643.525     2506475.737 7   1953096.092 8
  24461213.048     1812053.840 5   1411986.261 3
  23630476.168     2876431.183 6   2241374.598 5
  23638351.713     7786726.475 6   6067566.071 6
  23287906.912    -3725045.913 6  -2902628.764 6
  21689211.479    -2738283.062 8  -2133723.602 9
 91  5  2 20 56 30.0010000  0  6 19 16 11 18  6  2
  21639891.719     2549821.019 7   1986871.615 8
  24469385.997     1855011.950 5   1445459.988 2
  23642223.532     2938153.908 6   2289470.213 6
  23660545.353     7903343.789 6   6158436.404 5
  23278470.358    -3774599.626 6  -2941241.982 5
  21684339.238    -2763884.680 8  -2153672.888 9
 91  5  2 20 57  0.0010000  0  6 19 16 11 18  6  2
  21648191.461     2593437.501 7   2020858.449 8
  24477650.682     1898412.668 5   1479278.705 3
  23654080.013     3000442.239 6   2338006.553 5
  23682779.147     8020163.232 6   6249464.257 6
  23269046.979    -3824112.903 6  -2979823.723 6
  21679526.381    -2789173.665 8  -2173378.561 9
 91  5  2 20 57 30.0010000  0  6 19 16 11 18  6  2
  21656540.396     2637316.456 7   2055049.822 8
  24485987.611     1942244.683 5   1513433.470 3
  23666035.750     3063285.606 6   2386975.404 5
  23705040.547     8137173.959 6   6340641.149 4
  23259632.883    -3873594.553 6  -3018380.794 5
  21674771.371    -2814159.074 8  -2192847.682 9
 91  5  2 20 58  0.0010000  0  6 19 16 11 18  6  2
  21664946.864     2681459.354 7   2089446.866 9
  24494412.663     1986506.596 5   1547923.150 3
  23678101.791     3126682.970 6   2436375.926 5
  23727347.195     8254374.666 6   6431966.088 5
  23250222.103    -3923043.291 6  -3056912.236 5
  21670076.320    -2838840.412 8  -2212079.868 9
 91  5  2 20 58 30.0010000  0  6 19 16 11 18  6  2
  21673394.427     2725868.414 7   2124051.308 8
  24502919.278     2031198.286 5   1582747.748 2
  23690272.759     3190634.064 6   2486207.912 5
  23749683.544     8371764.076 6   6523438.021 4
  23240822.107    -3972457.044 6  -3095416.410 4
  21665438.227    -2863216.336 8  -2231074.061 9
 91  5  2 20 59  0.0010000  0  6 19 16 11 18  6  2
  21681895.335     2770550.530 7   2158868.520 8
  24511506.844     2076323.828 5   1617910.464 3
  23702545.672     3255142.942 6   2536474.562 6
  23772060.638     8489345.874 6   6615059.923 4
  23231420.331    -4021829.519 6  -3133888.434 6
  21660856.498    -2887281.224 8  -2249825.906 9
 91  5  2 20 59 30.0010000  0  6 19 16 11 18  6  2
  21690451.421     2815508.329 7   2193900.534 8
  24520175.641     2121882.539 5   1653410.667 3
  23714921.104     3320209.784 6   2587175.969 5
  23794474.920     8607119.681 6   6706831.404 3
  23222038.326    -4071158.198 6  -3172326.334 5
  21656338.933    -2911033.163 8  -2268333.887 9
 91  5  2 21  0  0.0010000  0  6 19 16 11 18  6  2
  21699055.461     2860737.670 7   2229144.157 8
  24528925.687     2167868.368 5   1689243.661 3
  23727412.546     3385828.705 6   2638307.571 5
  23816925.794     8725079.443 6   6798747.822 3
  23212661.713    -4120446.924 6  -3210733.088 6
  21651875.621    -2934476.858 8  -2286601.674 9
 91  5  2 21  0 30.0010000  0  6 19 16 11 18  6  2
  21707712.863     2906236.956 7   2264598.123 8
  24537754.869     2214276.179 4   1725405.499 2
  23740002.931     3451995.138 6   2689865.807 5
  23839403.332     8843219.916 6   6890804.986 3
  23203281.802    -4169698.052 6  -3249110.556 5
  21647471.971    -2957615.616 8  -2304631.853 9
 91  5  2 21  1  0.0010000  0  6 19 16 11 18  6  2
  21716424.832     2952003.194 7   2300260.093 8
  24546667.393     2261100.776 4   1761892.111 4
  23752696.446     3518703.649 6   2741846.416 5
  23861917.132     8961536.053 6   6982999.101 4
  23193919.289    -4218914.456 6  -3287460.937 6
  21643126.780    -2980452.777 8  -2322427.016 9
 91  5  2 21  1 30.0010000  0  6 19 16 11 18  6  2
  21725183.864     2998040.505 7   2336133.299 8
  24555655.773     2308343.456 5   1798704.491 2
  23765500.281     3585956.098 6   2794250.907 5
  23884460.929     9080028.710 6   7075330.728 2
  23184561.558    -4268091.788 6  -3325780.890 6
  21638839.139    -3002985.187 8  -2339984.712 9
 91  5  2 21  2  0.0010000  0  6 19 16 11 18  6  2
  21734001.371     3044348.684 7   2372217.553 8
  24564730.497     2356001.756 5   1835840.744 3
  23778393.462     3653749.696 6   2847077.056 4
  23907048.194     9198694.516 6   7167797.273 2
  23175211.033    -4317230.556 6  -3364070.787 6
  21634611.475    -3025213.774 8  -2357305.659 9
 91  5  2 21  2 30.0010000  0  6 19 16 11 18  6  2
  21742860.236     3090930.473 7   2408515.033 8
  24573870.555     2404075.474 4   1873300.705 3
  23791400.854     3722084.734 6   2900325.098 5
  23929660.046     9317533.718 6   7260398.928 3
  23165870.996    -4366327.753 6  -3402328.294 6
  21630437.767    -3047136.838 8  -2374388.531 9
 91  5  2 21  3  0.0010000  0  6 19 16 11 18  6  2
  21751778.763     3137783.772 7   2445024.061 8
  24583093.675     2452559.317 5   1911080.241 3
  23804508.376     3790956.400 6   2953991.294 5
  23952308.754     9436541.124 6   7353131.678 3
  23156534.571    -4415386.061 6  -3440555.493 5
  21626327.002    -3068757.391 8  -2391235.681 9
 91  5  2 21  3 30.0010000  0  6 19 16 11 18  6  2
  21760746.151     3184910.075 7   2481745.815 7
  24592409.422     2501452.340 5   1949178.570 2
  23817723.531     3860363.587 6   3008074.761 6
  23974985.957     9555715.404 6   7445994.415 2
  23147204.725    -4464404.134 6  -3478751.344 6
  21622269.023    -3090074.957 8  -2407846.747 9
 91  5  2 21  4  0.0010000  0  6 19 16 11 18  6  2
  21769764.807     3232307.115 7   2518678.537 8
  24601776.140     2550748.928 4   1987591.450 2
  23831022.935     3930301.598 6   3062571.862 5
  23997698.532     9675050.855 6   7538982.737 3
  23137882.976    -4513383.946 6  -3516917.370 5
  21618267.688    -3111092.701 8  -2424224.177 9
 91  5  2 21  4 30.0010000  0  6 19 16 11 18  6  2
  21778834.733     3279973.052 7   2555820.780 8
  24611234.594     2600444.579 4   2026315.243 3
  23844435.643     4000765.818 6   3117479.055 4
  24020433.008     9794543.175 6   7632093.308 4
  23128571.417    -4562327.699 6  -3555055.319 6
  21614325.108    -3131813.626 8  -2440370.324 9
 91  5  2 21  5  0.0010000  0  6 19 16 11 18  6  2
  21787955.612     3327906.559 7   2593171.527 8
  24620774.890     2650535.683 5   2065347.174 2
  23857937.086     4071752.361 6   3172793.204 5
  24043197.742     9914188.188 6   7725322.831 2
  23119264.972    -4611236.548 6  -3593166.064 5
  21610435.612    -3152239.723 8  -2456286.743 9
 91  5  2 21  5 30.0010000  0  6 19 16 11 18  6  2
  21797129.558     3376111.836 7   2630734.045 8
  24630376.349     2701023.058 5   2104687.908 2
  23871545.865     4143263.242 6   3228515.919 4
  24066000.849    10033987.231 6   7818672.423 3
  23109960.900    -4660106.175 6  -3631246.246 5
  21606605.760    -3172367.519 8  -2471970.707 9
 91  5  2 21  6  0.0010000  0  6 19 16 11 18  6  2
  21806358.071     3424585.604 7   2668505.770 8
  24640053.943     2751900.461 4   2144332.519 3
  23885252.976     4215292.126 6   3284642.280 5
  24088825.855    10153933.858 6   7912136.980 3
  23100669.147    -4708939.902 6  -3669298.471 5
  21602831.976    -3192201.638 8  -2487425.842 9
 91  5  2 21  6 30.0010000  0  6 19 16 11 18  6  2
  21815636.649     3473335.850 7   2706492.947 8
  24649819.382     2803173.642 5   2184285.537 2
  23899065.330     4287844.435 6   3341176.502 5
  24111682.029    10274033.443 6   8005720.694 5
  23091382.176    -4757729.734 6  -3707316.464 6
  21599112.741    -3211735.150 8  -2502646.743 9
 91  5  2 21  7  0.0010000  0  6 19 16 11 18  6  2
  21824961.399     3522363.282 7   2744696.100 9
  24659648.688     2854839.744 5   2224544.713 3
  23912968.494     4360918.105 6   3398117.004 5
  24134560.992    10394283.716 6   8099421.857 4
  23082107.787    -4806475.136 6  -3745299.859 6
  21595455.280    -3230968.105 8  -2517633.440 9
 91  5  2 21  7 30.0010000  0  6 19 16 11 18  6  2
  21834342.497     3571663.105 7   2783111.514 7
  24669550.831     2906891.532 4   2265104.457 2
  23926975.103     4434506.072 6   3455458.240 5
  24157467.229    10514677.433 5   8193234.773 3
  23072840.901    -4855180.555 6  -3783252.073 5
  21591852.666    -3249905.793 9  -2532390.066 9
 91  5  2 21  8  0.0010000  0  6 19 16 11 18  6  2
  21843777.271     3621240.432 7   2821743.153 8
  24679530.908     2959331.133 4   2305966.365 3
  23941068.039     4508610.725 6   3513202.100 5
  24180414.545    10635216.435 5   8287160.897 5
  23063582.112    -4903840.991 6  -3821169.249 6
  21588304.635    -3268544.473 8  -2546913.690 9
 91  5  2 21  8 30.0010000  0  6 19 16 11 18  6  2
  21853263.297     3671095.858 7   2860591.504 8
  24689586.857     3012156.377 4   2347128.778 3
  23955274.017     4583229.592 6   3571346.634 5
  24203375.960    10755898.333 5   8381198.338 4
  23054334.718    -4952455.800 6  -3859050.867 6
  21584818.343    -3286884.567 8  -2561204.655 9
 91  5  2 21  9  0.0010000  0  6 19 16 11 18  6  2
  21862801.498     3721229.694 7   2899656.791 8
  24699711.142     3065364.608 4   2388589.604 2
  23969569.619     4658360.449 6   3629890.095 4
  24226367.041    10876720.348 5   8475344.977 6
  23045089.715    -5001024.620 6  -3896896.652 7
  21581381.819    -3304926.519 8  -2575263.289 9
 91  5  2 21  9 30.0010000  0  6 19 16 11 18  6  2
  21872396.361     3771641.629 7   2938938.770 8
  24709913.377     3118952.553 4   2430346.396 1
  23983968.352     4734000.189 6   3688830.107 5
  24249383.302    10997679.417 5   8569598.416 4
  23035854.903    -5049547.526 7  -3934706.655 6
  21578003.161    -3322671.809 8  -2589090.763 9
 91  5  2 21 10  0.0010000  0  7 19 16 11 18  6 15  2
  21882042.178     3822328.937 7   2978435.336 7
  24720181.277     3172914.999 5   2472394.920 2
  23998452.521     4810143.640 6   3748162.623 4
  24272430.154    11118770.833 5   8663954.941 4
  23026627.001    -5098026.853 6  -3972482.700 6
  25578868.416       -9362.461 4     -7295.258 2
  21574683.850    -3340123.580 9  -2602689.521 9
 91  5  2 21 10 30.0010000  0  7 19 16 11 18  6 15  2
  21891743.470     3873291.359 6   3018146.281 7
  24730513.028     3227248.791 4   2514732.852 4
  24013034.429     4886787.808 6   3807885.317 4
  24295497.370    11239991.070 5   8758411.871 4
  23017416.776    -5146462.749 7  -4010224.905 6
  25568191.605      -65467.874 4    -51013.295 2
  21571420.310    -3357282.898 9  -2616060.393 9
 91  5  2 21 11  0.0010000  0  7 19 16 11 18  6 15  2
  21901486.712     3924528.818 7   3058071.521 7
  24740928.714     3281950.247 4   2557357.242 2
  24027717.653     4963929.495 6   3867995.692 5
  24318585.299    11361336.729 5   8852966.501 5
  23008202.660    -5194855.516 7  -4047933.514 6
  25557538.788     -121464.588 4    -94647.087 2
  21568207.743    -3374151.603 9  -2629204.822 9
 91  5  2 21 11 30.0010000  0  7 19 16 11 18  6 15  2
  21911296.823     3976045.295 7   3098214.192 7
  24751411.862     3337020.856 4   2600269.280 2
  24042493.224     5041570.168 6   3928494.873 4
  24341699.299    11482809.687 5   8947620.372 4
  22999004.126    -5243200.746 7  -4085605.077 5
  25546900.943     -177346.607 4   -138191.978
  21565055.431    -3390726.146 8  -2642120.020 9
 91  5  2 21 12  0.0010000  0  7 19 16 11 18  6 15  2
  21921154.608     4027841.163 6   3138574.575 7
  24761959.454     3392458.023 4   2643466.976 3
  24057362.031     5119707.299 6   3989380.904 5
  24364842.668    11604406.941 5   9042371.045 5
  22989816.988    -5291498.147 7  -4123239.374 5
  25536293.392     -233111.490 4   -181645.134 2
  21561958.261    -3407007.553 8  -2654806.802 9
 91  5  2 21 12 30.0010000  0  7 19 16 11 18  6 15  2
  21931056.751     4079908.641 7   3179146.593 7
  24772571.804     3448250.817 4   2686941.773 3
  24072323.481     5198330.389 6   4050645.636 5
  24388003.434    11726117.801 5   9137210.278 5
  22980630.740    -5339755.225 7  -4160842.254 6
  25525701.127     -288763.964 4   -225010.689 2
  21558911.767    -3423003.993 8  -2667271.533 9
 91  5  2 21 13  0.0010000  0  7 19 16 11 18  6 15  2
  21941020.948     4132259.867 7   3219939.728 8
  24783261.807     3504408.013 4   2730700.500 2
  24087379.058     5277448.474 6   4112296.028 5
  24411182.192    11847951.549 5   9232145.251 5
  22971457.684    -5387959.626 6  -4198404.083 6
  25515131.949     -344289.040 4   -268276.996 2
  21555926.751    -3438704.697 8  -2679505.817 9
 91  5  2 21 13 30.0010000  0  7 19 16 11 18  6 15  2
  21951038.507     4184887.777 7   3260948.457 7
  24794014.457     3560919.844 4   2774735.617 2
  24102525.463     5357052.137 6   4174324.826 4
  24434392.430    11969898.635 5   9327168.539 4
  22962291.538    -5436118.143 7  -4235930.164 5
  25504592.733     -399691.237 4   -311448.005 1
  21552989.670    -3454117.346 8  -2691515.646 9
 91  5  2 21 14  0.0010000  0  7 19 16 11 18  6 15  2
  21961103.740     4237792.904 7   3302173.200 7
  24804836.367     3617783.881 4   2819045.062 2
  24117767.513     5437138.967 6   4236730.097 5
  24457617.937    12091956.329 6   9422278.004 4
  22953139.178    -5484229.895 6  -4273419.804 5
  25494066.727     -454967.451 4   -354520.429 2
  21550114.066    -3469242.535 8  -2703301.475 9
 91  5  2 21 14 30.0010000  0  7 19 16 11 18  6 15  2
  21971224.744     4290975.748 7   3343614.334 7
  24815727.536     3674998.706 5   2863627.960 2
  24133103.706     5517707.207 6   4299510.497 6
  24480870.754    12214123.193 6   9517472.529 4
  22943990.709    -5532293.525 6  -4310871.928 5
  25483575.185     -510113.928 4   -397491.241 2
  21547290.027    -3484080.070 8  -2714863.164 9
 91  5  2 21 15  0.0010000  0  7 19 16 11 18  6 15  2
  21981397.593     4344433.139 7   3385269.414 7
  24826672.958     3732557.140 5   2908478.590 2
  24148518.426     5598750.296 6   4362660.931 4
  24504136.431    12336392.842 6   9612747.149 4
  22934857.527    -5580312.639 6  -4348289.367 6
  25473109.137     -565131.521 4   -440362.138 2
  21544518.444    -3498634.964 8  -2726204.613 9
 91  5  2 21 15 30.0010000  0  7 19 16 11 18  6 15  2
  21991618.412     4398158.396 7   3427133.224 8
  24837696.017     3790449.562 4   2953589.477 2
  24164029.087     5680258.587 6   4426173.817 5
  24527423.415    12458755.581 6   9708094.324 4
  22925721.361    -5628293.719 6  -4385677.187 6
  25462667.067     -620025.118 4   -483136.421 3
  21541805.022    -3512914.400 8  -2737331.420 9
 91  5  2 21 16  0.0010000  0  7 19 16 11 18  6 15  2
  22001897.411     4452165.928 7   3469216.971 7
  24848774.846     3848687.585 5   2998969.612 1
  24179629.390     5762243.872 6   4490058.421 5
  24550724.795    12581222.930 6   9803522.975 3
  22916602.261    -5676221.998 6  -4423023.848 6
  25452240.282     -674777.010 4   -525800.299 2
  21539140.758    -3526905.365 8  -2748233.442 9
 91  5  2 21 16 30.0010000  0  7 19 16 11 18  6 15  2
  22012233.646     4506450.294 6   3511516.453 7
  24859915.745     3907262.818 4   3044612.568 1
  24195322.336     5844697.783 6   4554308.217 1
  24574049.245    12703787.163 6   9899027.127 3
  22907494.277    -5724102.342 7  -4460333.160 7
  25441859.061     -729390.123 4   -568355.549 3
  21536530.764    -3540613.523 9  -2758915.102 9
 91  5  2 21 17  0.0010000  0  7 19 16 11 18  6 15  2
  22022615.461     4561016.248 7   3554035.322 8
  24871138.766     3966176.912 5   3090519.516 2
  24211101.608     5927622.112 6   4618924.491 5
  24597391.686    12826449.577 6   9994608.307 3
  22898387.183    -5771929.732 6  -4497601.222 6
  25431483.842     -783856.818 4   -610796.708 3
  21533978.634    -3554035.177 8  -2769373.509 9
 91  5  2 21 17 30.0010000  0  7 19 16 11 18  6 15  2
  22033044.933     4615858.018 7   3596769.136 7
  24882401.974     4025421.190 5   3136683.850 2
  24226973.820     6011007.982 6   4683900.467 5
  24620754.508    12949201.835 5  10090259.407 2
  22889297.173    -5819709.812 7  -4534832.398 6
  25421145.513     -838180.222 4   -653126.232 1
  21531478.367    -3567177.567 9  -2779614.306 9
 91  5  2 21 18  0.0010000  0  7 19 16 11 18  6 15  2
  22043533.177     4670979.930 7   3639721.248 7
  24893741.928     4084996.280 5   3183105.835 1
  24242928.763     6094857.278 6   4749237.516 4
  24644128.726    13072045.684 5  10185981.463 2
  22880217.056    -5867437.547 7  -4572022.801 7
  25410829.049     -892353.965 4   -695339.097 2
  21529031.166    -3580037.142 9  -2789634.738 9
 91  5  2 21 18 30.0010000  0  7 19 16 11 18  6 15  2
  22054069.985     4726379.331 7   3682889.570 7
  24905136.432     4144897.285 4   3229781.814 1
  24258970.364     6179164.304 6   4814931.255 4
  24667520.027    13194975.562 5  10281770.977 2
  22871143.240    -5915115.646 7  -4609174.519 7
  25400555.756     -946377.769 3   -737435.118 2
  21526633.419    -3592617.586 8  -2799437.657 9
 91  5  2 21 19  0.0010000  0  7 19 16 11 18  6 15  2
  22064675.145     4782059.261 7   3726276.492 7
  24916606.198     4205123.790 5   3276711.442 2
  24275098.292     6263929.563 6   4880982.062 5
  24690935.323    13317991.969 5  10377627.502 2
  22862077.817    -5962740.254 7  -4646284.566 6
  25390304.661    -1000245.639 3   -779409.663 3
  21524296.835    -3604916.092 8  -2809020.892 9
 91  5  2 21 19 30.0010000  0  6 19 16 11 18  6  2
  22075325.571     4838026.349 7   3769887.173 7
  24928127.216     4265679.712 5   3323897.778 2
  24291316.769     6349156.493 6   4947392.598 4
  24714360.513    13441098.136 5  10473554.413 2
  22853025.272    -6010304.487 7  -4683347.562 7
  21522008.815    -3616927.674 8  -2818380.546 9
 91  5  2 21 20  0.0010000  0  6 19 16 11 18  6  2
  22086026.656     4894276.802 6   3813718.663 7
  24939710.304     4326558.419 5   3371335.558 1
  24307622.776     6434838.161 6   5014157.469 4
  24737802.472    13564288.099 5  10569546.554 2
  22843985.937    -6057811.805 7  -4720366.210 6
  21519778.974    -3628656.526 8  -2827519.888 9
 91  5  2 21 20 30.0010000  0  6 19 16 11 18  6  2
  22096788.606     4950812.344 6   3857772.297 6
  24951355.445     4387758.327 5   3419023.694
  24324013.940     6520973.966 6   5081276.206 4
  24761257.641    13687561.205 5  10665603.592 2
  22834958.591    -6105259.404 7  -4757338.329 7
  21517597.975    -3640101.932 8  -2836438.371 9
 91  5  2 21 21  0.0010000  0  6 19 16 11 18  6  2
  22107598.231     5007629.700 6   3902045.509 7
  24963058.137     4449273.403 5   3466957.551 2
  24340486.631     6607556.987 6   5148743.428 5
  24784732.878    13810910.469 5  10761719.905 3
  22825942.028    -6152650.873 7  -4794266.692 7
  21515473.656    -3651268.635 8  -2845139.676 9
 91  5  2 21 21 30.0010000  0  7 19 16 11 18  6 15  2
  22118461.515     5064729.478 6   3946538.820 7
  24974831.589     4511100.569 5   3515134.458 2
  24357052.856     6694585.264 6   5216557.617 5
  24808220.418    13934333.910 5  10857894.430 1
  22816931.765    -6199984.791 7  -4831150.226 6
  25339527.005      -22960.16414    -17889.303 2
  21513403.885    -3662156.211 8  -2853623.490 9
 91  5  2 21 22  0.0010000  0  7 19 16 11 18  6 15  2
  22129379.052     5122111.049 7   3991251.676 6
  24986652.995     4573236.285 5   3563551.675 1
  24373694.936     6782055.015 6   5284715.782 5
  24831716.368    14057828.326 5  10954123.877 2
  22807940.994    -6247261.503 7  -4867989.187 6
  25329460.882      -75819.073 4    -59077.650 2
  21511382.086    -3672766.803 8  -2861891.457 9
 91  5  2 21 22 30.0010000  0  7 19 16 11 18  6 15  2
  22140353.546     5179773.065 7   4036183.080 6
  24998523.889     4635676.461 4   3612206.370 2
  24390422.767     6869962.342 6   5353214.948 3
  24855236.871    14181390.107 5  11050405.753 2
  22798950.520    -6294481.558 7  -4904784.004 6
  25319440.915     -128503.490 4   -100130.532 2
  21509417.244    -3683101.987 8  -2869944.834 9
 91  5  2 21 23  0.0010000  0  7 19 16 11 18  6 15  2
  22151381.717     5237720.439 6   4081336.850 6
  25010475.404     4698423.410 4   3661099.980 3
  24407233.330     6958309.349 6   5422056.698 3
  24878762.190    14305021.433 5  11146741.847 4
  22789978.333    -6341639.364 7  -4941530.297 6
  25309459.024     -181005.138 4   -141040.907 2
  21507504.263    -3693157.881 8  -2877780.578 9
 91  5  2 21 23 30.0010000  0  7 19 16 11 18  6 15  2
  22162462.344     5295948.796 7   4126709.554 7
  25022479.705     4761469.079 5   3710226.334 1
  24424126.624     7047088.544 6   5491235.219 3
  24902294.995    14428715.218 5  11243127.045 3
  22781016.635    -6388738.801 7  -4978231.132 6
  25299486.730     -233325.829 3   -181809.911 2
  21505641.662    -3702939.960 8  -2885402.953 9
 91  5  2 21 24  0.0010000  0  7 19 16 11 18  6 15  2
  22173605.041     5354465.022 7   4172306.570 6
  25034529.848     4824816.417 4   3759587.725 2
  24441107.466     7136303.683 6   5560753.424 4
  24925847.589    14552475.167 5  11339563.850 4
  22772060.938    -6435772.708 7  -5014880.905 7
  25289562.704     -285456.467 3   -222431.173 2
  21503835.111    -3712442.308 8  -2892807.356 9
 91  5  2 21 24 30.0010000  0  7 19 16 11 18  6 15  2
  22184789.094     5413266.107 6   4218125.549 8
  25046630.981     4888461.197 5   3809180.978 2
  24458162.070     7225949.113 6   5630606.935 4
  24949410.984    14676296.003 5  11436047.572 3
  22763128.608    -6482743.081 7  -5051481.162 7
  25279693.838     -337397.485 3   -262904.750 2
  21502077.717    -3721668.998 8  -2899996.963 9
 91  5  2 21 25  0.0010000  0  7 19 16 11 18  6 15  2
  22196029.216     5472349.761 7   4264164.723 8
  25058801.653     4952397.045 4   3859000.992 2
  24475312.301     7316019.664 6   5700791.697 5
  24972978.271    14800172.674 4  11532575.265 4
  22754202.002    -6529651.951 7  -5088033.500 7
  25269835.460     -389148.993 4   -303230.192 3
  21500374.000    -3730622.762 9  -2906973.901 9
 91  5  2 21 25 30.0010000  0  7 19 16 11 18  6 15  2
  22207328.389     5531718.643 7   4310426.138 8
  25071024.484     5016624.213 4   3909047.984 3
  24492530.570     7406514.643 6   5771307.177 5
  24996568.627    14924105.182 4  11629146.475 3
  22745285.272    -6576496.053 7  -5124535.373 7
  25260027.739     -440704.771 4   -343403.162 2
  21498723.645    -3739301.796 9  -2913736.765 9
 91  5  2 21 26  0.0010000  0  7 19 16 11 18  6 15  2
  22218682.722     5591370.986 6   4356908.438 7
  25083301.584     5081136.970 4   3959317.577 2
  24509831.292     7497429.431 6   5842149.778 5
  25020161.409    15048088.474 4  11725756.804 2
  22736382.328    -6623276.461 7  -5160987.606 6
  25250256.019     -492063.767 4   -383422.786 3
  21497121.244    -3747709.433 9  -2920288.143 9
 91  5  2 21 26 30.0010000  0  7 19 16 11 18  6 15  2
  22230084.136     5651306.092 7   4403611.067 8
  25095637.457     5145931.903 4   4009807.014 2
  24527207.573     7588760.434 5   5913316.699 5
  25043773.962    15172119.672 4  11822404.878 4
  22727492.280    -6669993.294 7  -5197390.313 7
  25240521.450     -543224.150 4   -423287.581 2
  21495575.522    -3755847.168 9  -2926629.211 9
 91  5  2 21 27  0.0010000  0  7 19 16 11 18  6 15  2
  22241546.992     5711521.414 6   4450532.056 8
  25108015.281     5211003.441 4   4060511.980 2
  24544668.680     7680502.083 6   5984803.599 5
  25067374.823    15296193.490 4  11919086.197 2
  22718614.830    -6716648.321 7  -5233744.842 6
  25230819.565     -594185.159 4   -462997.160 1
  21494074.157    -3763718.185 9  -2932762.449 9
 91  5  2 21 27 30.0010000  0  7 19 16 11 18  6 15  2
  22253057.522     5772019.720 7   4497673.529 8
  25120451.265     5276351.707 4   4111432.539 3
  24562203.234     7772654.089 6   6056610.278 4
  25091004.459    15420309.929 4  12015800.707 2
  22709747.572    -6763237.969 7  -5270048.436 7
  25221160.555     -644942.023 4   -502547.566 3
  21492631.565    -3771320.358 9  -2938686.201 9
 91  5  2 21 28  0.0010000  0  7 19 16 11 18  6 15  2
  22264619.932     5832804.689 7   4545038.395 6
  25132938.537     5341976.979 4   4162568.963 3
  24579811.848     7865217.310 6   6128737.377 5
  25114631.408    15544470.800 5  12112549.868 5
  22700897.991    -6809757.881 7  -5306297.680 7
  25211552.204     -695487.946 4   -541933.646 2
  21491233.331    -3778651.080 9  -2944398.425 9
 91  5  2 21 28 30.0010000  0  7 19 16 11 18  6 15  2
  22276247.675     5893871.146 7   4592622.604 8
  25145487.250     5407870.626 5   4213914.541 2
  24597510.103     7958183.328 5   6201178.330 3
  25138260.138    15668667.712 5  12209327.066 3
  22692059.211    -6856212.850 7  -5342496.325 7
  25201957.655     -745825.869 4   -581157.583 1
  21489889.351    -3785716.705 9  -2949904.092 9
 91  5  2 21 29  0.0010000  0  7 19 16 11 18  6 15  2
  22287922.185     5955223.363 6   4640429.460 7
  25158074.930     5474034.064 5   4265470.370 2
  24615275.192     8051553.553 6   6273934.251 4
  25161899.075    15792901.788 5  12306133.228 2
  22683232.123    -6902597.627 7  -5378640.268 7
  25192418.843     -795948.976 3   -620214.260 1
  21488596.063    -3792513.387 9  -2955200.187 9
 91  5  2 21 29 30.0010000  0  7 19 16 11 18  6 15  2
  22299647.370     6016862.243 6   4688459.703 7
  25170708.486     5540465.192 4   4317234.719 3
  24633118.843     8145326.106 6   6347003.680 4
  25185548.814    15917172.231 5  12402967.754 4
  22674416.727    -6948910.428 7  -5414728.135 7
  25182927.722     -845852.653 4   -659099.840 3
  21487354.619    -3799040.871 9  -2960286.519 9
 91  5  2 21 30  0.0010000  0  7 19 16 11 18  6 15  2
  22311431.921     6078786.651 6   4736712.427 7
  25183407.690     5607160.286 4   4369204.822 2
  24651038.646     8239497.141 5   6420383.627 3
  25209199.426    16041475.434 5  12499827.731 3
  22665616.320    -6995151.549 7  -5450760.142 7
  25173478.568     -895535.353 4   -697813.317 2
  21486165.038    -3805301.402 9  -2965164.840 9
 91  5  2 21 30 30.0010000  0  7 19 16 11 18  6 15  2
  22323269.520     6140994.215 6   4785185.791 7
  25196151.863     5674114.228 4   4421376.593 2
  24669031.583     8334060.985 5   6494069.668 4
  25232861.747    16165806.224 5  12596709.308 3
  22656830.904    -7041322.441 7  -5486737.419 7
  25164065.677     -944997.334 4   -736354.767 2
  21485024.335    -3811297.758 9  -2969837.302 9
 91  5  2 21 31  0.0010000  0  7 19 16 11 18  6 15  2
  22335161.687     6203488.808 6   4833882.812 6
  25208925.423     5741326.890 4   4473749.960 1
  24687106.675     8429018.496 5   6568062.439 3
  25256527.976    16290165.388 5  12693612.903 4
  22648061.366    -7087418.653 7  -5522656.525 7
  25154687.266     -994231.077 4   -774718.436 2
  21483930.380    -3817027.316 8  -2974301.883 9
 91  5  2 21 31 30.0010000  0  7 19 16 11 18  6 15  2
  22347109.624     6266270.973 6   4882803.924 6
  25221779.933     5808796.394 4   4526323.405 2
  24705251.604     8524367.262 6   6642360.085 4
  25280197.486    16414551.516 5  12790537.541 2
  22639302.945    -7133438.867 7  -5558516.398 7
  25145358.938    -1043233.558 4   -812901.860 1
  21482892.808    -3822490.307 9  -2978558.737 9
 91  5  2 21 32  0.0010000  0  7 19 16 11 18  6 15  2
  22359110.906     6329337.003 6   4931946.232 7
  25234661.108     5876514.769 4   4579090.851 2
  24723468.497     8620099.906 6   6716956.871 3
  25303874.797    16538957.285 5  12887477.495 3
  22630559.496    -7179386.253 7  -5594319.526 7
  25136087.551    -1092006.025 4   -850906.091 2
  21481902.892    -3827691.693 9  -2982611.755 9
 91  5  2 21 32 30.0020000  0  6 19 16 11 18  6  2
  22371164.665     6392693.558 6   4981314.912 7
  25247593.852     5944486.748 3   4632055.944 1
  24741757.934     8716221.573 5   6791856.794 4
  25327554.798    16663389.359 5  12984437.921 2
  22621831.040    -7225256.489 7  -5630062.544 7
  21480964.841    -3832627.353 9  -2986457.710 9
 91  5  2 21 33  0.0020000  0  6 19 16 11 18  6  2
  22383278.973     6456327.282 6   5030899.573 7
  25260576.360     6012695.820 3   4685205.700 3
  24760116.627     8812713.905 5   6867045.558 2
  25351231.812    16787828.290 5  13081403.713 3
  22613115.459    -7271054.772 7  -5665749.490 6
  21480073.257    -3837307.534 9  -2990104.586 9
 91  5  2 21 33 30.0020000  0  6 19 16 11 18  6  2
  22395439.454     6520244.925 6   5080705.458 7
  25273596.055     6081145.275 4   4738542.800 1
  24778553.864     8909581.664 5   6942526.815 4
  25374915.718    16912279.943 5  13178379.364 4
  22604418.794    -7316777.238 7  -5701377.358 7
  21479232.331    -3841728.053 9  -2993549.132 9
 91  5  2 21 34  0.0020000  0  6 19 16 11 18  6  2
  22407658.393     6584446.912 6   5130732.905 7
  25286676.005     6149832.606 4   4792065.280 1
  24797054.358     9006822.723 5   7018298.987 3
  25398597.217    17036742.803 5  13275363.776 3
  22595729.598    -7362422.189 7  -5736944.829 7
  21478437.579    -3845889.291 9  -2996791.642 9
 91  5  2 21 34 30.0020000  0  6 19 16 11 18  6  2
  22419926.506     6648931.011 6   5180980.174 7
  25299778.728     6218752.679 4   4845769.086 1
  24815636.694     9104431.331 6   7094357.605 4
  25422290.407    17161211.101 5  13372352.414 1
  22587050.610    -7407991.411 7  -5772453.295 7
  21477694.705    -3849794.816 9  -2999834.900 9
 91  5  2 21 35  0.0020000  0  6 19 16 11 18  6  2
  22432251.874     6713697.779 6   5231447.720 7
  25312938.722     6287903.105 4   4899652.398 3
  24834274.486     9202405.407 6   7170700.931 4
  25445971.923    17285683.445 5  13469344.223 3
  22578399.507    -7453483.044 7  -5807901.284 7
  21477003.083    -3853444.420 9  -3002678.738 9
 91  5  2 21 35 30.0020000  0  6 19 16 11 18  6  2
  22444633.310     6778748.974 6   5282136.880 7
  25326148.467     6357282.177 4   4953713.860 2
  24852986.634     9300743.763 6   7247328.142 4
  25469655.516    17410159.317 5  13566338.788 2
  22569757.077    -7498894.602 7  -5843286.883 7
  21476352.522    -3856837.098 9  -3005322.374 9
 91  5  2 21 36  0.0020000  0  6 19 16 11 18  6  2
  22457060.308     6844087.845 6   5333050.212 7
  25339390.600     6426890.512 4   5007953.998 1
  24871767.727     9399446.581 6   7324239.356 3
  25493351.725    17534639.196 5  13663336.442 3
  22561134.454    -7544221.692 7  -5878606.676 8
  21475758.639    -3859970.431 9  -3007763.928 9
 91  5  2 21 36 30.0020000  0  7 19 16 11 18  6 15  2
  22469554.158     6909710.518 6   5384184.668 7
  25352683.408     6496720.988 4   5062367.168 2
  24890626.177     9498506.715 6   7401428.995 4
  25517029.332    17659116.499 5  13760332.113 2
  22552522.911    -7589467.480 7  -5913863.113 8
  25054610.847      -17047.70414    -13275.801 3
  21475210.929    -3862849.284 9  -3010007.181 9
 91  5  2 21 37  0.0020000  0  6 19 11 18  6 15  2
  22482095.664     6975617.380 6   5435540.582 7
  24909541.882     9597921.338 6   7478894.853 4
  25540725.524    17783588.880 5  13857323.859 3
  22543932.657    -7634630.495 7  -5949055.040 7
  25045798.749      -63362.769 4    -49365.225 3
  21474711.172    -3865473.972 9  -3012052.384 9
 91  5  2 21 37 30.0020000  0  6 19 11 18  6 15  2
  22494691.755     7041812.071 6   5487120.764 6
  24928525.049     9697691.655 6   7556637.854 3
  25564403.427    17908057.928 5  13954313.104 3
  22535350.797    -7679705.681 7  -5984178.540 7
  25037039.123     -109412.578 3    -85247.879 1
  21474260.886    -3867841.287 9  -3013897.040 9
 91  5  2 21 38  0.0020000  0  5 19 11 18  6  2
  22507344.192     7108291.005 6   5538922.447 7
  24947582.240     9797811.026 6   7634652.885 4
  25588091.225    18032517.892 5  14051295.236 3
  22526789.633    -7724695.685 7  -6019235.661 7
  21473860.648    -3869955.373 9  -3015544.370 9
 91  5  2 21 38 30.0020000  0  5 19 11 18  6  2
  22520047.899     7175055.020 6   5590946.271 7
  24966694.015     9898277.423 5   7712938.319 4
  25611777.244    18156967.056 5  14148268.957 2
  22518246.146    -7769598.371 7  -6054224.741 8
  21473505.397    -3871816.621 9  -3016994.700 9
 91  5  2 21 39  0.0020000  0  5 19 11 18  6  2
  22532805.561     7242107.696 6   5643195.039 7
  24985879.238     9999091.354 6   7791494.532 5
  25635457.835    18281406.693 5  14245235.250 2
  22509719.150    -7814409.372 7  -6089142.380 7
  21473199.006    -3873422.228 9  -3018245.814 9
 91  5  2 21 39 30.0020000  0  5 19 11 18  6  2
  22545627.387     7309450.886 6   5695670.185 7
  25005128.608    10100251.834 6   7870320.812 5
  25659132.144    18405836.315 5  14342193.740 2
  22501209.533    -7859125.553 7  -6123986.130 7
  21472945.995    -3874770.980 9  -3019296.787 9
 91  5  2 21 40  0.0020000  0  6 19 11 18  6 15  2
  22558490.885     7377076.748 6   5748365.580 7
  25024448.128    10201747.789 6   7949408.486 4
  25682805.860    18530244.877 5  14439135.765 3
  22492719.706    -7903753.896 7  -6158761.441 8
  24993997.324      -19332.77014    -15055.450 4
  21472735.528    -3875871.832 9  -3020154.585 9
 91  5  2 21 40 30.0020000  0  6 19 11 18  6 15  2
  22571417.326     7444987.785 6   5801283.190 7
  25043828.514    10303579.097 6   8028757.461 3
  25706488.562    18654633.081 5  14536061.996 2
  22484241.291    -7948290.312 7  -6193465.118 8
  24985541.367      -63743.345 4    -49661.184 2
  21472571.548    -3876722.217 9  -3020817.215 9
 91  5  2 21 41  0.0020000  0  6 19 11 18  6 15  2
  22584392.645     7513187.928 6   5854426.081 7
  25063263.467    10405746.737 5   8108368.547 3
  25730141.285    18779003.049 5  14632974.006 3
  22475780.535    -7992729.668 7  -6228093.160 8
  24977154.077     -107867.720 4    -84043.563 3
  21472458.820    -3877318.795 9  -3021282.077 9
 91  5  2 21 41 30.0020000  0  6 19 11 18  6 15  2
  22597430.627     7581672.240 6   5907790.392 8
  25082759.566    10508242.962 5   8188235.661 4
  25753805.403    18903347.006 5  14729865.679 1
  22467342.884    -8037075.421 7  -6262648.265 8
  24968803.066     -151707.929 4   -118204.485 3
  21472391.671    -3877667.345 9  -3021553.669 9
 91  5  2 21 42  0.0020000  0  6 19 11 18  6 15  2
  22610509.077     7650441.154 6   5961376.482 7
  25102342.602    10611065.038 6   8268356.647 3
  25777471.633    19027663.211 5  14826735.800 2
  22458925.318    -8081326.551 7  -6297129.636 8
  24960519.796     -195260.772 4   -152141.519 1
  21472371.883    -3877768.583 9  -3021632.552 9
 91  5  2 21 42 30.0020000  0  6 19 11 18  6 15  2
  22623648.672     7719500.566 6   6015188.935 7
  25121963.731    10714215.558 5   8348733.599 4
  25801116.853    19151954.303 5  14923586.366 1
  22450522.427    -8125475.933 7  -6331531.738 8
  24952280.903     -238517.641 4   -185847.919 1
  21472400.658    -3877617.239 9  -3021514.608 9
 91  5  2 21 43  0.0020000  0  6 19 11 18  6 15  2
  22636844.946     7788843.721 6   6069222.489 7
  25141649.305    10817684.905 5   8429358.981 4
  25824760.885    19276212.119 5  15020410.983 1
  22442138.138    -8169528.983 7  -6365858.767 9
  24944098.967     -281482.077 4   -219326.461 1
  21472476.218    -3877220.734 9  -3021205.640 9
 91  5  2 21 43 30.0020000  0  6 19 11 18  6 15  2
  22650101.161     7858476.923 6   6123482.058 6
  25161403.824    10921476.846 5   8510235.679 3
  25848406.419    19400440.386 5  15117212.594 1
  22433777.512    -8213477.925 7  -6400104.682 8
  24935998.262     -324145.331 4   -252570.261 3
  21472600.324    -3876573.200 9  -3020701.066 9
 91  5  2 21 44  0.0020000  0  6 19 11 18  6 15  2
  22663412.239     7928394.053 6   6177962.869 6
  25181216.801    11025581.971 5   8591356.466 3
  25872033.072    19524630.627 5  15213984.496 1
  22425434.301    -8257327.758 8  -6434273.378 9
  24927922.458     -366510.742 4   -285582.035 2
  21472768.509    -3875681.695 9  -3020006.372 9
 91  5  2 21 44 30.0020000  0  7 19 16 11 18  6 15  2
  22676763.209     7998593.783 6   6232663.885 7
  25570645.405       12178.52114      9476.549 2
  25201078.359    11129996.059 5   8672717.978 3
  25895664.505    19648779.166 5  15310723.983 2
  22417109.064    -8301078.616 8  -6468364.921 8
  24919918.602     -408576.851 4   -318360.584 2
  21472985.258    -3874548.317 9  -3019123.213 9
 91  5  2 21 45  0.0020000  0  7 19 16 11 18  6 15  2
  22690171.415     8069078.396 6   6287586.879 6
  25584571.674       85365.571 4     66505.326 2
  25221014.849    11234718.703 5   8754319.954 4
  25919281.246    19772886.167 5  15407431.094 2
  22408803.616    -8344726.369 7  -6502376.146 8
  24911973.797     -450338.018 5   -350901.531 2
  21473245.476    -3873170.986 9  -3018049.958 9
 91  5  2 21 45 30.0020000  0  7 19 16 11 18  6 15  2
  22703642.599     8139850.891 6   6342734.200 6
  25598528.201      158724.823 4    123668.205 2
  25240997.216    11339749.773 5   8836162.273 3
  25942883.311    19896952.553 5  15504106.612 1
  22400516.437    -8388267.195 7  -6536304.047 8
  24904085.059     -491788.809 5   -383200.582 2
  21473553.071    -3871547.839 9  -3016785.164 9
 91  5  2 21 46  0.0020000  0  7 19 16 11 18  6 15  2
  22717165.331     8210910.877 6   6398105.541 6
  25612520.117      232253.363 4    180963.056 2
  25261047.045    11445086.137 5   8918242.464 3
  25966492.863    20020975.032 5  15600747.353 2
  22392250.862    -8431699.932 7  -6570147.727 8
  24896255.077     -532926.583 5   -415255.758 2
  21473913.121    -3869679.616 9  -3015329.403 9
 91  5  2 21 46 30.0020000  0  7 19 16 11 18  6 15  2
  22730741.444     8282257.707 6   6453700.388 6
  25626544.717      305947.649 4    238386.931 1
  25281146.031    11550724.618 5   9000558.078 3
  25990086.238    20144951.748 5  15697353.007 1
  22384006.577    -8475023.539 7  -6603906.356 8
  24888490.463     -573749.367 5   -447065.546 3
  21474311.248    -3867567.378 9  -3013683.497 9
 91  5  2 21 47  0.0020000  0  7 19 16 11 18  6 15  2
  22744371.791     8353887.342 6   6509515.598 7
  25640599.280      379800.585 4    295934.459 1
  25301305.866    11656657.805 5   9083103.294 3
  26013664.012    20268875.578 5  15793916.907 2
  22375782.377    -8518241.026 7  -6637582.295 8
  24880778.897     -614258.662 5   -478630.954 1
  21474762.737    -3865215.931 9  -3011851.194 9
 91  5  2 21 47 30.0020000  0  6 19 16 11  6 15  2
  22758054.018     8425799.405 6   6565550.891 6
  25654678.133      453809.032 4    353603.299 2
  25321515.784    11762882.221 5   9165875.495 2
  22367578.244    -8561351.422 7  -6671174.796 8
  24873129.088     -654451.543 5   -509949.859 2
  21475254.397    -3862626.434 9  -3009833.406 9
 91  5  2 21 48  0.0020000  0  6 19 16 11  6 15  2
  22771796.519     8497996.777 6   6621808.483 7
  25668791.764      527972.851 4    411393.073 2
  25341790.145    11869398.142 5   9248874.826 4
  22359396.605    -8604350.160 7  -6704680.285 8
  24865541.646     -694322.620 5   -541017.968 2
  21475787.414    -3859796.424 9  -3007628.190 9
 91  5  2 21 48 30.0020000  0  6 19 16 11  6 15  2
  22785587.269     8570477.212 6   6678286.642 7
  25682943.769      602287.034 4    469300.128 1
  25362116.664    11976200.400 5   9332097.280 4
  22351237.755    -8647237.988 7  -6738099.354 9
  24858021.946     -733870.345 5   -571834.209 2
  21476373.811    -3856728.858 9  -3005237.878 9
 91  5  2 21 49  0.0020000  0  6 19 16 11  6 15  2
  22799435.587     8643242.958 6   6734987.142 7
  25697123.048      676750.794 4    527323.648 2
  25382493.563    12083288.452 5   9415542.401 3
  22343096.601    -8690011.127 7  -6771429.059 8
  24850553.811     -773089.877 5   -602394.625 2
  21477005.474    -3853421.814 9  -3002660.957 9
 91  5  2 21 49 30.0020000  0  6 19 16 11  6 15  2
  22813336.064     8716296.795 6   6791912.102 7
  25711309.534      751363.965 4    585463.592 3
  25402917.228    12190662.359 5   9499210.290 4
  22334980.312    -8732665.494 8  -6804666.198 9
  24843150.138     -811976.192 5   -632695.451 2
  21477680.309    -3849873.258 9  -2999895.845 9
 91  5  2 21 50  0.0020000  0  6 19 16 11  6 15  2
  22827287.792     8789632.758 6   6849056.907 6
  25725533.485      826117.680 4    643713.062 2
  25423402.353    12298313.077 5   9583093.841 4
  22326882.329    -8775205.383 8  -6837814.141 9
  24835820.226     -850531.962 5   -662738.697 3
  21478399.816    -3846089.688 9  -2996947.608 9
 91  5  2 21 50 30.0020000  0  6 19 16 11  6 15  2
  22841300.404     8863250.466 6   6906421.256 6
  25739790.418      901008.720 4    702069.560 1
  25443944.417    12406236.971 5   9667190.280 4
  22318811.604    -8817630.169 8  -6870872.401 8
  24828541.566     -888755.619 5   -692523.128 2
  21479162.792    -3842072.590 9  -2993817.399 9
 91  5  2 21 51  0.0020000  0  6 19 16 11  6 15  2
  22855363.954     8937153.864 6   6964008.240 6
  25754060.229      976038.410 4    760534.059 4
  25464533.877    12514435.751 5   9751500.925 3
  22310760.091    -8859933.832 8  -6903836.277 8
  24821331.258     -926639.515 5   -722042.857 3
  21479973.128    -3837817.823 9  -2990501.990 9
 91  5  2 21 51 30.0020000  0  6 19 16 11  6 15  2
  22869480.586     9011341.153 6   7021816.409 6
  25768365.725     1051201.804 4    819102.731 2
  25485173.680    12622904.637 5   9836022.003 3
  22302733.741    -8902116.753 8  -6936706.062 8
  24814186.598     -964183.242 5   -751297.514 3
  21480833.232    -3833328.085 9  -2987003.491 9
 91  5  2 21 52  0.0020000  0  6 19 16 11  6 15  2
  22883656.882     9085811.603 6   7079845.231 6
  25782694.309     1126495.642 4    877773.021 2
  25505871.349    12731639.824 5   9920750.616 3
  22294730.774    -8944178.081 8  -6969481.099 9
  24807108.493    -1001383.979 5   -780284.940 4
  21481726.002    -3828604.674 9  -2983322.910 9
 91  5  2 21 52 30.0020000  0  6 19 16 11  6 15  2
  22897880.222     9160568.279 6   7138097.085 6
  25797051.667     1201919.501 4    936544.619 3
  25526603.202    12840642.164 5  10005687.375 4
  22286745.502    -8986112.819 7  -7002157.493 9
  24800101.445    -1038235.975 5   -809000.585 2
  21482671.857    -3823644.848 9  -2979458.111 9
 91  5  2 21 53  0.0020000  0  6 19 16 11  6 15  2
  22912156.036     9235605.833 6   7196567.826 6
  25811421.625     1277466.010 4    995411.799 2
  25547397.702    12949902.770 5  10090825.374 3
  22278798.307    -9027925.148 8  -7034738.504 9
  24793148.668    -1074742.650 5   -837447.123 3
  21483657.270    -3818454.505 9  -2975413.696 9
 91  5  2 21 53 30.0020000  0  6 19 16 11  6 15  2
  22926494.217     9310932.748 6   7255264.037 6
  25825828.752     1353140.333 4   1054378.667 1
  25568238.374    13059427.582 5  10176169.308 4
  22270859.208    -9069604.718 8  -7067216.065 8
  24786276.510    -1110891.715 5   -865615.090 1
  21484696.658    -3813025.299 9  -2971183.142 9
 91  5  2 21 54  0.0020000  0  6 19 16 11  6 15  2
  22940886.354     9386545.189 6   7314182.730 6
  25840239.176     1428935.845 4   1113439.989
  25589136.912    13169210.067 5  10261713.983 3
  22262954.870    -9111153.808 8  -7099591.957 9
  24779462.235    -1146684.574 5   -893505.456 1
  21485769.916    -3807362.112 9  -2966770.279 9
 91  5  2 21 54 30.0020000  0  6 19 16 11  6 15  2
  22955323.163     9462442.405 6   7373323.331 6
  25854697.258     1504849.123 4   1172592.959 3
  25610076.807    13279246.877 5  10347456.847 4
  22255076.027    -9152571.174 8  -7131865.205 9
  24772720.797    -1182118.792 5   -921116.352 3
  21486890.831    -3801465.869 9  -2962175.796 1
 91  5  2 21 55  0.0020000  0  6 19 16 11  6 15  2
  22969822.026     9538621.499 6   7432683.559 6
  25869158.654     1580874.425 4   1231833.268 2
  25631064.376    13389532.012 5  10433393.178 3
  22247218.177    -9193858.368 8  -7164037.018 9
  24766034.223    -1217194.824 5   -948448.143 3
  21488058.233    -3795339.967 9  -2957402.363 9
 91  5  2 21 55 30.0020000  0  6 19 16 11  6 15  2
  22984369.749     9615078.387 6   7492260.278 6
  25883646.122     1657005.027 3   1291155.975 1
  25652093.319    13500058.966 5  10519517.963 3
  22239379.800    -9235017.345 8  -7196108.927 9
  24759434.899    -1251913.479 5   -975501.493 2
  21489264.584    -3788988.711 9  -2952453.329 9
 91  5  2 21 56  0.0020000  0  5 19 11  6 15  2
  22998967.240     9691817.319 6   7552056.758 6
  25673178.627    13610828.906 5  10605832.098 3
  22231576.203    -9276042.493 8  -7228076.551 9
  24752897.629    -1286267.779 5  -1002270.913 2
  21490518.015    -3782408.715 9  -2947326.058 2
 91  5  2 21 56 30.0020000  0  5 19 11  6 15  2
  23013630.989     9768837.640 6   7612072.507 5
  25694298.713    13721838.455 5  10692332.948 2
  22223793.894    -9316932.409 8  -7259938.820 9
  24746426.914    -1320255.511 5  -1028754.724 3
  21491815.823    -3775600.763 9  -2942021.151 1
 91  5  2 21 57  0.0020000  0  5 19 11  6 15  2
  23028336.113     9846140.369 6   7672308.296 6
  25715464.954    13833086.331 5  10779019.552 2
  22216038.564    -9357684.304 8  -7291693.511 9
  24740027.832    -1353873.153 5  -1054950.133 3
  21493154.691    -3768564.040 9  -2936537.991 9
 91  5  2 21 57 30.0020000  0  5 19 11  6 15  2
  23043096.991     9923717.029 6   7732757.534 6
  25736682.761    13944561.175 5  10865882.953 2
  22208309.601    -9398304.951 8  -7323345.940 9
  24733706.403    -1387126.085 5  -1080861.339 2
  21494535.247    -3761307.657 9  -2930883.664 9
 91  5  2 21 58  0.0020000  0  5 19 11  6 15  2
  23057923.533    10001570.282 6   7793422.318 5
  25757935.661    14056262.480 5  10952922.767 2
  22200609.430    -9438790.280 8  -7354892.929 9
  24727448.249    -1420009.549 5  -1106484.632 4
  21495958.365    -3753829.804 9  -2925056.767 1
 91  5  2 21 58 30.0020000  0  5 19 11  6 15  2
  23072784.540    10079705.688 6   7854306.968 6
  25779236.810    14168193.137 5  11040141.458 2
  22192932.347    -9479132.657 8  -7386328.521 9
  24721255.132    -1452514.777 5  -1131813.289 3
  21497420.152    -3746125.297 9  -2919053.253 9
 91  5  2 21 59  0.0020000  0  5 19 11  6 15  2
  23087711.212    10158124.859 6   7915412.719 6
  25800583.522    14280352.112 5  11127537.899 1
  22185282.852    -9519328.557 8  -7417649.975 9
  24715144.467    -1484637.154 5  -1156843.512 2
  21498932.894    -3738192.128 9  -2912871.558 9
 91  5  2 21 59 30.0020000  0  5 19 11  6 15  2
  23102682.853    10236826.306 6   7976738.412 6
  25821961.120    14392735.683 5  11215109.371 2
  22177658.834    -9559377.244 8  -7448856.720 9
  24709111.735    -1516374.924 5  -1181574.129 2
  21500487.621    -3730032.540 9  -2906513.437 9
 91  5  2 22  0  0.0020000  0  5 19 11  6 15  2
  23117713.843    10315806.479 6   8038281.328 6
  25843385.189    14505337.650 5  11302851.111 3
  22170069.874    -9599280.401 8  -7479950.063 9
  24703138.665    -1547729.404 5  -1206006.076 3
  21502079.221    -3721650.364 9  -2899981.869 9
 91  5  2 22  0 30.0020000  0  5 19 11  6 15  2
  23132799.992    10395066.038 6   8100041.926 5
  25864860.526    14618155.677 5  11390761.138 2
  22162505.222    -9639035.762 8  -7510928.237 9
  24697248.344    -1578697.848 5  -1230137.224 2
  21503716.994    -3713045.379 9  -2893276.687 1
 91  5  2 22  1  0.0020000  0  5 19 11  6 15  2
  23147926.329    10474597.486 6   8162014.382 6
  25886373.940    14731179.768 5  11478831.748 2
  22154964.233    -9678648.895 8  -7541795.590 9
  24691430.877    -1609283.770 5  -1253970.243 2
  21505394.623    -3704225.274 9  -2886403.875 9
 91  5  2 22  1 30.0020000  0  5 19 11  6 15  2
  23163116.500    10554406.336 6   8224202.992 5
  25907920.614    14844412.104 5  11567064.611 4
  22147454.444    -9718112.650 8  -7572546.538 9
  24685689.546    -1639479.214 5  -1277499.014 2
  21507117.535    -3695185.691 9  -2879360.052 9
 91  5  2 22  2  0.0020000  0  5 19 11  6 15  2
  23178360.958    10634495.175 5   8286609.798 5
  25929510.477    14957853.325 5  11655460.199 2
  22139973.710    -9757422.137 8  -7603177.280 9
  24680008.488    -1669278.757 5  -1300719.287 2
  21508877.616    -3685923.914 9  -2872143.078 9
 91  5  2 22  2 30.0020000  0  5 19 11  6 15  2
  23193649.774    10714862.999 6   8349233.968 5
  25951127.614    15071499.877 5  11744015.806 2
  22132519.082    -9796576.136 8  -7633686.866 9
  24674409.865    -1698680.646 5  -1323629.727 2
  21510687.169    -3676440.691 9  -2864753.558 9
 91  5  2 22  3  0.0020000  0  5 19 11  6 15  2
  23208997.938    10795506.578 6   8412073.036 5
  25972799.302    15185345.669 5  11832726.674 3
  22125102.513    -9835576.100 8  -7664076.425 9
  24668891.286    -1727685.210 5  -1346230.558 2
  21512530.593    -3666739.870 9  -2857194.479 9
 91  5  2 22  3 30.0020000  0  5 19 11  6 15  2
  23224400.076    10876425.262 6   8475126.465 5
  25994497.984    15299387.504 5  11921590.291 3
  22117709.030    -9874420.644 8  -7694344.879 9
  24663450.343    -1756290.620 5  -1368520.368 4
  21514418.985    -3656822.230 9  -2849466.452 9
 91  5  2 22  4  0.0020000  0  5 19 11  6 15  2
  23239843.589    10957621.617 6   8538396.252 6
  26016234.133    15413625.631 5  12010606.836 4
  22110347.621    -9913104.932 8  -7724488.461 9
  24658077.770    -1784491.344 5  -1390494.793 3
  21516346.641    -3646685.355 9  -2841567.586 9
 91  5  2 22  4 30.0020000  0  5 19 11  6 15  2
  23255347.950    11039093.876 6   8601881.032 5
  26038004.466    15528055.444 5  12099772.856 3
  22103020.100    -9951628.923 8  -7754507.138 9
  24652799.027    -1812286.620 5  -1412153.334 4
  21518315.078    -3636331.141 9  -2833499.367 9
 91  5  2 22  5  0.0020000  0  5 19 11  6 15  2
  23270908.379    11120841.207 6   8665580.150 5
  26059820.362    15642673.255 5  12189085.252 2
  22095716.259    -9989991.438 8  -7784399.990 9
  24647584.727    -1839674.502 5  -1433494.402 4
  21520327.594    -3625761.098 9  -2825262.974 9
 91  5  2 22  5 30.0020000  0  5 19 11  6 15  2
  23286510.776    11202860.713 6   8729491.334 5
  26081670.128    15757474.456 5  12278540.672 1
  22088446.585   -10028193.050 8  -7814167.459 9
  24642450.489    -1866655.050 5  -1454518.049 2
  21522378.466    -3614978.342 9  -2816860.820 9
 91  5  2 22  6  0.0020000  0  5 19 11  6 15  2
  23302177.634    11285157.436 6   8793618.549 6
  26103549.281    15872460.939 5  12368140.388 1
  22081207.799   -10066226.779 8  -7843804.109 9
  24637394.481    -1893220.734 5  -1475218.386 1
  21524477.012    -3603978.003 9  -2808289.123 9
 91  5  2 22  6 30.0020000  0  5 19 11  6 15  2
  23317901.746    11367731.646 5   8857961.973 5
  26125462.619    15987629.598 5  12457882.036 3
  22074005.884   -10104090.920 8  -7873308.609 9
  24632419.738    -1919368.773 5  -1495593.363 3
  21526606.148    -3592760.357 9  -2799548.093 9
 91  5  2 22  7  0.0020000  0  5 19 11  6 15  2
  23333654.651    11450582.515 6   8922520.984 6
  26147417.017    16102978.186 4  12547763.940 2
  22066832.745   -10141783.274 8  -7902679.258 9
  24627521.427    -1945096.138 5  -1515640.524 2
  21528782.329    -3581325.862 9  -2790638.097 9
 91  5  2 22  7 30.0020000  0  5 19 11  6 15  2
  23349479.485    11533709.632 6   8987295.242 5
  26169397.206    16218503.969 4  12637783.920 2
  22059695.292   -10179302.351 8  -7931914.885 9
  24622707.348    -1970400.616 5  -1535358.157 4
  21531000.793    -3569675.342 9  -2781559.760 9
 91  5  2 22  8  0.0020000  0  5 19 11  6 15  2
  23365343.304    11617106.016 6   9052279.319 6
  26191410.970    16334196.998 4  12727934.177 2
  22052585.707   -10216652.847 8  -7961019.144 9
  24617973.924    -1995287.360 5  -1554750.268 2
  21533258.240    -3557816.141 9  -2772318.820 9
 91  5  2 22  8 30.0020000  0  5 19 11  6 15  2
  23381264.987    11700777.511 6   9117477.790 4
  26213456.197    16450060.664 4  12818217.326 3
  22045510.604   -10253826.908 8  -7989985.930 9
  24613320.248    -2019747.683 5  -1573810.098 3
  21535555.544    -3545742.738 9  -2762910.966 9
 91  5  2 22  9  0.0020000  0  5 19 11  6 15  2
  23397248.723    11784723.267 6   9182889.965 5
  26235555.100    16566092.001 3  12908631.120 3
  22038472.983   -10290822.914 8  -8018813.962 9
  24608740.316    -2043779.466 5  -1592536.060 4
  21537891.535    -3533455.567 9  -2753336.539 9
 91  5  2 22  9 30.0020000  0  5 19 11  6 15  2
  23413270.536    11868941.106 6   9248514.138 6
  26257657.598    16682286.395 4  12999172.049 3
  22031461.433   -10327640.620 8  -8047503.060 9
  24604262.922    -2067381.876 5  -1610927.395 2
  21540269.179    -3520957.086 9  -2743597.455 9
 91  5  2 22 10  0.0020000  0  5 19 11  6 15  2
  23429352.605    11953431.359 6   9314350.578 6
  26279800.581    16798641.123 4  13089837.712 5
  22024490.368   -10364277.906 8  -8076051.577 9
  24599848.784    -2090552.275 5  -1628982.111 4
  21542691.497    -3508247.053 9  -2733693.535 9
 91  5  2 22 10 30.0020000  0  5 19 11  6 15  2
  23445473.343    12038190.991 5   9380396.928 6
  26301977.714    16915150.975 4  13180624.423 2
  22017556.158   -10400735.509 8  -8104460.076 9
  24595519.176    -2113291.030 5  -1646700.468 3
  21545150.703    -3495328.701 9  -2723627.278 9
 91  5  2 22 11  0.0020000  0  4 19  6 15  2
  23461660.636    12123222.186 5   9446654.875 5
  22010654.335   -10437008.871 8  -8132725.012 9
  24591266.924    -2135593.040 5  -1664078.529 5
  21547647.376    -3482200.107 9  -2713397.209 9
 91  5  2 22 11 30.0020000  0  5 19  6 15 13  2
  23477891.101    12208525.040 5   9513124.518 5
  22003784.289   -10473095.627 8  -8160844.540 9
  24587115.989    -2157455.853 5  -1681114.367 2
  24014066.613     -219434.804 5   -170988.215 2
  21550186.016    -3468861.144 9  -2703003.205 9
 91  5  2 22 12  0.0020000  0  5 19  6 15 13  2
  23494171.630    12294096.043 5   9579803.105 5
  21996952.319   -10508996.685 8  -8188819.365 9
  24583035.517    -2178879.817 5  -1697808.236 3
  23994862.805     -320372.631 5   -249640.734 3
  21552763.640    -3455315.202 9  -2692447.921 9
 91  5  2 22 12 30.0020000  0  5 19  6 15 13  2
  23510508.821    12379931.890 5   9646688.071 4
  21990154.238   -10544713.243 8  -8216650.425 9
  24579036.887    -2199866.377 5  -1714161.231 3
  23975692.572     -421096.073 5   -328126.234 3
  21555378.119    -3441565.903 9  -2681734.178 9
 91  5  2 22 13  0.0020000  0  5 19  6 15 13  2
  23526895.169    12466040.030 5   9713785.206 4
  21983400.201   -10580235.606 8  -8244330.171 9
  24575128.788    -2220405.145 5  -1730165.351 3
  23956571.217     -521594.220 6   -406436.232 2
  21558037.288    -3427605.460 9  -2670855.918 9
 91  5  2 22 13 30.0020000  0  5 19  6 15 13  2
  23543329.190    12552415.073 5   9781090.311 4
  21976677.365   -10615566.534 8  -8271860.737 9
  24571308.831    -2240498.420 5  -1745822.312 4
  23937486.420     -621868.452 6   -484571.653 3
  21560728.809    -3413439.345 9  -2659817.379 9
 91  5  2 22 14  0.0020000  0  5 19  6 15 13  2
  23559823.171    12639052.692 5   9848600.022 5
  21969988.085   -10650708.071 8  -8299243.735 9
  24567567.435    -2260148.157 5  -1761133.663 2
  23918442.404     -721920.087 6   -562533.669 3
  21563466.522    -3399072.493 9  -2648622.439 9
 91  5  2 22 14 30.0020000  0  5 19  6 15 13  2
  23576362.418    12725956.152 5   9916316.875 5
  21963338.697   -10685654.575 8  -8326474.748 9
  24563915.662    -2279348.766 5  -1776095.034 3
  23899454.455     -821742.253 6   -640316.934 2
  21566237.512    -3384501.440 9  -2637268.363 9
 91  5  2 22 15  0.0020000  0  5 19  6 15 13  2
  23592934.645    12813126.990 5   9984242.074 5
  21956720.476   -10720402.447 8  -8353550.993 9
  24560348.122    -2298095.563 5  -1790702.808 3
  23880502.472     -921330.340 6   -717917.760 4
  21569051.952    -3369725.013 9  -2625754.270 9
 91  5  2 22 15 30.0020000  0  5 19  6 15 13  2
  23609581.821    12900562.468 5  10052373.480 5
  21950149.928   -10754951.505 8  -8380472.310 9
  24556866.333    -2316388.483 5  -1804956.905 2
  23861587.972    -1020683.031 5   -795335.172 3
  21571902.079    -3354745.049 9  -2614081.567 9
 91  5  2 22 16  0.0020000  0  5 19  6 15 13  2
  23626269.779    12988262.498 5  10120711.027 4
  21943612.657   -10789298.884 8  -8407236.481 9
  24553473.592    -2334224.878 5  -1818855.265 2
  23842734.913    -1119796.177 5   -872565.947 2
  21574786.984    -3339561.430 9  -2602250.171 9
 91  5  2 22 16 30.0020000  0  5 19  6 15 13  2
  23643006.282    13076226.749 5  10189254.459 4
  21937116.447   -10823443.218 8  -8433842.439 9
  24550166.880    -2351603.100 5  -1832396.599 3
  23823916.040    -1218667.998 5   -949608.658 3
  21577719.249    -3324174.897 9  -2590260.664 9
 91  5  2 22 17  0.0020000  0  5 19  6 15 13  2
  23659797.964    13164454.721 5  10258003.385 6
  21930660.425   -10857382.805 8  -8460288.846 9
  24546942.307    -2368521.344 5  -1845579.509 3
  23805148.436    -1317295.338 5  -1026460.876 2
  21580683.605    -3308586.366 9  -2578113.765 9
 91  5  2 22 17 30.0020000  0  5 19  6 15 13  2
  23676637.598    13252945.456 5  10326957.066 3
  21924237.070   -10891115.634 8  -8486574.148 9
  24543812.174    -2384977.724 5  -1858402.513 4
  23786424.893    -1415674.806 5  -1103119.914 3
  21583689.317    -3292796.197 9  -2565809.729 9
 91  5  2 22 18  0.0020000  0  5 19  6 15 13  2
  23693523.406    13341699.837 5  10396116.196 5
  21917861.685   -10924638.648 8  -8512695.959 9
  24540773.480    -2400968.687 5  -1870862.887 3
  23767755.324    -1513802.701 5  -1179582.987 3
  21586733.124    -3276803.890 9  -2553348.198 9
 91  5  2 22 18 30.0020000  0  5 19  6 15 13  2
  23710467.079    13430713.189 5  10465477.099 5
  21911518.374   -10957953.471 8  -8538655.547 9
  24537812.719    -2416496.118 5  -1882962.067 4
  23749128.316    -1611680.110 5  -1255850.856 2
  21589814.082    -3260613.641 9  -2540732.420 9
 91  5  2 22 19  0.0020000  0  5 19  6 15 13  2
  23727463.225    13519989.433 5  10535042.872 4
  21905218.531   -10991054.232 8  -8564448.325 9
  24534952.402    -2431553.831 5  -1894695.255 3
  23730546.888    -1709299.265 5  -1331917.481 2
  21592934.617    -3244221.430 9  -2527959.274 9
 91  5  2 22 19 30.0020000  0  5 19  6 15 13  2
  23744494.428    13609530.242 5  10604814.781 5
  21898964.268   -11023935.706 8  -8590070.242 9
  24532177.520    -2446137.051 5  -1906058.682 3
  23712023.307    -1806655.030 5  -1407778.871 1
  21596091.135    -3227625.054 9  -2515027.034 9
 91  5  2 22 20  0.0020000  0  5 19  6 15 13  2
  23761576.010    13699329.783 5  10674788.303 5
  21892748.972   -11056602.314 8  -8615524.725 9
  24529490.187    -2460250.176 5  -1917055.793 4
  23693555.497    -1903750.318 5  -1483437.329 4
  21599286.322    -3210830.737 9  -2501940.552 9
 91  5  2 22 20 30.0020000  0  5 19  6 15 13  2
  23778715.736    13789391.207 5  10744965.881 5
  21886572.642   -11089047.419 8  -8640806.611 9
  24526893.385    -2473886.933 5  -1927681.708 3
  23675126.043    -2000577.527 5  -1558886.820 2
  21602520.179    -3193835.174 9  -2488697.255 9
 91  5  2 22 21  0.0020000  0  5 19  6 15 13  2
  23795904.637    13879708.527 5  10815342.887 5
  21880440.391   -11121274.971 8  -8665918.978 9
  24524391.617    -2487051.012 5  -1937939.296 3
  23656748.468    -2097139.687 5  -1634129.845 3
  21605791.519    -3176644.265 9  -2475301.742 9
 91  5  2 22 21 30.0020000  0  5 19  6 15 13  2
  23813148.994    13970280.853 5  10885918.581 4
  21874349.497   -11153282.903 8  -8690860.200 9
  24521968.986    -2499740.348 5  -1947826.977 3
  23638425.757    -2193433.839 5  -1709164.021 3
  21609098.527    -3159258.279 9  -2461754.225 9
 91  5  2 22 22  0.0020000  0  5 19  6 15 13  2
  23830426.036    14061113.008 5  10956696.738 5
  21868301.182   -11185064.002 8  -8715624.685 9
  24519651.004    -2511948.015 5  -1957339.318 5
  23620151.313    -2289451.722 5  -1783982.912 2
  21612447.206    -3141672.520 9  -2448051.039 9
 91  5  2 22 22 30.0020000  0  5 19  6 15 13  2
  23847756.737    14152201.850 5  11027674.920 5
  21862297.853   -11216618.653 8  -8740212.709 9
  24517424.740    -2523674.397 5  -1966476.648 4
  23601941.017    -2385192.964 5  -1858586.255 2
  21615832.165    -3123890.062 9  -2434194.587 9
 91  5  2 22 23  0.0020000  0  5 19  6 15 13  2
  23865148.601    14243546.914 5  11098852.741 4
  21856334.678   -11247944.685 8  -8764622.587 9
  24515284.226    -2534917.750 5  -1975237.597 3
  23583767.592    -2480654.680 5  -1932971.791 2
  21619254.903    -3105911.146 9  -2420185.044 9
 91  5  2 22 23 30.0020000  0  5 19  6 15 13  2
  23882575.244    14335149.704 5  11170231.378 5
  21850418.269   -11279037.953 8  -8788851.090 9
  24513228.242    -2545674.206 5  -1983619.146 2
  23565658.925    -2575831.851 6  -2007135.590 3
  21622710.901    -3087734.299 9  -2406021.274 9
 91  5  2 22 24  0.0020000  0  5 19  6 15 13  2
  23900051.043    14427003.089 5  11241805.304 5
  21844545.328   -11309902.706 8  -8812901.538 9
  24511278.389    -2555947.863 5  -1991624.463 3
  23547598.229    -2670727.788 6  -2081080.246 2
  21626206.790    -3069365.216 9  -2391707.700 9
 91  5  2 22 24 30.0020000  0  5 19  6 15 13  2
  23917577.205    14519109.116 5  11313576.054 5
  21838716.170   -11340533.732 8  -8836769.847 9
  24509414.881    -2565734.185 5  -1999250.063 4
  23529591.210    -2765336.207 6  -2154800.888 2
  21629737.144    -3050801.944 9  -2377242.817 9
 91  5  2 22 25  0.0020000  0  5 19  6 15 13  2
  23935159.730    14611469.697 5  11385545.188 5
  21832935.279   -11370927.183 8  -8860453.046 9
  24507644.905    -2575029.053 5  -2006492.724 2
  23511647.133    -2859652.844 6  -2228294.141 2
  21633310.373    -3032043.288 9  -2362625.683 9
 91  5  2 22 25 30.0020000  0  5 19  6 15 13  2
  23952778.238    14704085.174 5  11457712.948 4
  21827195.152   -11401079.634 8  -8883948.440 9
  24505975.059    -2583830.173 5  -2013350.674 2
  23493753.418    -2953673.207 6  -2301556.536 3
  21636913.284    -3013088.186 9  -2347855.475 9
 91  5  2 22 26  0.0020000  0  5 19  6 15 13  2
  23970454.907    14796948.987 5  11530074.176 5
  21821506.294   -11430995.096 8  -8907259.173 9
  24504388.258    -2592141.497 5  -2019826.957 4
  23475913.066    -3047400.519 6  -2374590.591 2
  21640559.053    -2993942.946 9  -2332937.105 9
 91  5  2 22 26 30.0020000  0  5 19  6 15 13  2
  23988171.729    14890061.416 5  11602629.172 5
  21815856.106   -11460670.606 8  -8930382.942 9
  24502907.590    -2599960.175 5  -2025919.356 4
  23458140.473    -3140830.166 6  -2447392.726 2
  21644238.397    -2974606.900 9  -2317870.061 9
 91  5  2 22 27  0.0020000  0  5 19  6 15 13  2
  24005951.826    14983420.617 5  11675376.440 5
  21810254.481   -11490104.830 8  -8953318.679 9
  24501512.654    -2607285.446 6  -2031627.260 3
  23440416.130    -3233960.812 6  -2519961.886 4
  21647957.335    -2955081.542 9  -2302655.496 9
 91  5  2 22 27 30.0020000  0  5 19  6 15 13  2
  24023749.599    15077031.892 5  11748320.136 4
  21804703.514   -11519290.215 8  -8976060.530 9
  24500213.363    -2614109.831 5  -2036944.879 3
  23422749.966    -3326784.062 6  -2592291.469 4
  21651702.937    -2935361.120 9  -2287288.939 9
 91  5  2 22 28  0.0020000  0  5 19  6 15 13  2
  24041614.539    15170893.693 5  11821459.023 5
  21799194.830   -11548224.895 8  -8998607.019 9
  24499006.384    -2620432.606 6  -2041871.661 3
  23405153.358    -3419297.485 6  -2664379.654 3
  21655497.103    -2915446.961 9  -2271771.409 9
 91  5  2 22 28 30.0020000  0  5 19  6 15 13  2
  24059530.433    15265003.641 5  11894791.280 5
  21793735.006   -11576908.590 8  -9020957.935 9
  24497895.067    -2626253.672 5  -2046407.479 3
  23387602.295    -3511499.925 6  -2736225.472 2
  21659323.063    -2895340.674 9  -2256104.173 9
 91  5  2 22 29  0.0020000  0  5 19  6 15 13  2
  24077474.509    15359359.807 5  11968315.393 3
  21788327.654   -11605340.763 8  -9043112.864 9
  24496888.050    -2631572.716 5  -2050552.123 4
  23370119.900    -3603389.959 6  -2807827.922 3
  21663182.598    -2875044.459 9  -2240288.946 9
 91  5  2 22 29 30.0020000  0  5 19  6 15 13  2
  24095489.643    15453962.557 5  12042031.649 4
  21782966.162   -11633517.396 8  -9065068.673 9
  24495972.193    -2636387.197 5  -2054303.597 3
  23352690.866    -3694963.478 6  -2879183.704 4
  21667083.786    -2854557.479 9  -2224325.069 9
 91  5  2 22 30  0.0020000  0  5 19  6 15 13  2
  24113527.549    15548813.296 5  12115941.139 3
  21777649.953   -11661435.073 8  -9086822.682 9
  24495152.259    -2640693.243 5  -2057658.864 3
  23335321.495    -3786214.957 6  -2950288.581 3
  21671018.269    -2833877.516 9  -2208210.818 9
 91  5  2 22 30 30.0020000  0  5 19  6 15 13  2
  24131624.524    15643908.519 5  12190041.132 5
  21772389.795   -11689094.143 8  -9108375.199 9
  24494426.470    -2644492.270 5  -2060619.072 3
  23318018.976    -3877145.487 6  -3021143.314 2
  21674988.717    -2813007.680 9  -2191948.612 9
 91  5  2 22 31  0.0020000  0  5 19  6 15 13  2
  24149765.561    15739252.010 5  12264334.580 3
  21767173.104   -11716488.002 8  -9129721.048 9
  24493802.293    -2647777.910 5  -2063179.250 3
  23300782.995    -3967747.457 6  -3091742.083 4
  21678995.147    -2791944.399 9  -2175535.667 9
 91  5  2 22 31 30.0020000  0  5 19  6 15 13  2
  24167965.964    15834833.521 5  12338813.500 4
  21762013.372   -11743624.095 8  -9150866.044 9
  24493270.166    -2650558.661 5  -2065345.994 3
  23283601.598    -4058026.996 6  -3162089.562 4
  21683041.137    -2770696.860 9  -2158979.150 9
 91  5  2 22 32  0.0020000  0  5 19  6 15 13  2
  24186188.843    15930655.082 4  12413479.451 5
  21756900.109   -11770496.609 8  -9171805.646 9
  24492845.951    -2652829.603 5  -2067115.493 4
  23266478.956    -4147978.413 6  -3232181.389 3
  21687120.126    -2749262.451 9  -2142277.028 9
 91  5  2 22 32 30.0030000  0  5 19  6 15 13  2
  24204474.091    16026720.731 4  12488335.599 2
  21751831.225   -11797103.540 8  -9192538.303 9
  24492504.192    -2654587.592 6  -2068485.271 3
  23249428.857    -4237600.606 6  -3302016.683 4
  21691237.770    -2727639.556 9  -2125428.021 9
 91  5  2 22 33  0.0030000  0  5 19  6 15 13  2
  24222798.600    16123022.683 4  12563375.886 3
  21746823.780   -11823441.164 8  -9213061.112 9
  24492268.247    -2655831.761 6  -2069454.731 4
  23232430.914    -4326885.376 6  -3371589.049 4
  21695386.000    -2705830.349 9  -2108433.846 9
 91  5  2 22 33 30.0030000  0  5 19  6 15 13  2
  24241164.483    16219562.828 4  12638601.779 3
  21741863.713   -11849509.267 8  -9233373.909 9
  24492128.559    -2656561.717 6  -2070023.457 4
  23215513.329    -4415833.446 6  -3440899.037 2
  21699569.010    -2683835.210 9  -2091294.774 9
 91  5  2 22 34  0.0030000  0  5 19  6 15 13  2
  24259597.532    16316345.768 4  12714016.850 4
  21736958.213   -11875299.708 8  -9253470.336 9
  24492086.887    -2656770.235 6  -2070185.883 2
  23198653.906    -4504436.074 6  -3509939.885 4
  21703791.282    -2661648.734 9  -2074006.623 9
 91  5  2 22 34 30.0030000  0  4  6 15 13  2
  21732102.480   -11900814.964 8  -9273352.343 9
  24492152.238    -2656460.619 6  -2069944.589 3
  23181855.629    -4592695.639 6  -3578713.399 4
  21708048.925    -2639275.877 9  -2056573.222 9
 91  5  2 22 35  0.0030000  0  4  6 15 13  2
  21727298.313   -11926055.564 8  -9293020.326 9
  24492308.732    -2655634.158 5  -2069300.556 4
  23165130.206    -4680612.054 6  -3647219.549 4
  21712342.255    -2616719.490 9  -2038996.824 9
 91  5  2 22 35 30.0030000  0  4  6 15 13  2
  21722544.804   -11951018.299 8  -9312471.788 9
  24492561.149    -2654287.998 5  -2068251.563 2
  23148463.852    -4768180.920 6  -3715454.861 2
  21716667.972    -2593978.149 9  -2021276.300 9
 91  5  2 22 36  0.0030000  0  4  6 15 13  2
  21717850.050   -11975704.117 8  -9331707.484 9
  24492915.808    -2652424.928 5  -2066799.758 2
  23131866.147    -4855402.964 6  -3783419.929 4
  21721031.748    -2571055.747 9  -2003414.690 9
 91  5  2 22 36 30.0030000  0  4  6 15 13  2
  21713208.955   -12000104.567 8  -9350720.799 9
  24493379.879    -2650037.270 5  -2064939.219 4
  23115331.682    -4942269.826 6  -3851108.243 3
  21725427.301    -2547946.909 9  -1985407.808 9
 91  5  2 22 37  0.0030000  0  5 19  6 15 13  2
  24371034.587       16381.34915     12745.841 3
  21708617.942   -12024214.096 8  -9369507.433 9
  24493925.215    -2647119.968 5  -2062665.936 2
  23098872.479    -5028774.471 6  -3918514.314 4
  21729861.226    -2524647.854 9  -1967252.706 9
 91  5  2 22 37 30.0030000  0  5 19  6 15 13  2
  24389757.519      114805.023 5     89439.450 4
  21704083.573   -12048036.991 8  -9388070.713 9
  24494580.558    -2643678.593 5  -2059984.296 2
  23082476.534    -5114921.039 6  -3985641.341 2
  21734332.339    -2501165.561 9  -1948954.817 9
 91  5  2 22 38  0.0030000  0  5 19  6 15 13  2
  24408546.413      213454.751 5    166309.129 2
  21699604.678   -12071575.337 8  -9406412.270 9
  24495336.938    -2639715.345 5  -2056896.039 2
  23066154.926    -5200711.085 6  -4052490.598 2
  21738834.617    -2477503.939 9  -1930517.192 9
 91  5  2 22 38 30.0030000  0  5 19  6 15 13  2
  24427352.390      312338.582 5    243361.277 3
  21695182.740   -12094817.520 8  -9424523.049 9
  24496189.538    -2635220.109 5  -2053393.228 4
  23049902.282    -5286132.113 6  -4119052.257 4
  21743372.581    -2453654.206 9  -1911932.993 9
 91  5  2 22 39  0.0030000  0  5 19  6 15 13  2
  24446209.043      411448.126 4    320589.261 2
  21690813.555   -12117768.700 8  -9442407.078 9
  24497149.771    -2630199.145 5  -2049480.771 3
  23033709.894    -5371189.165 6  -4185330.349 2
  21747947.103    -2429624.123 9  -1893208.259 9
 91  5  2 22 39 30.0030000  0  5 19  6 15 13  2
  24465120.857      510785.904 4    397995.138 2
  21686502.548   -12140423.786 8  -9460060.374 9
  24498198.756    -2624648.086 5  -2045155.222 4
  23017599.940    -5455876.551 6  -4251320.345 3
  21752554.013    -2405410.623 9  -1874340.603 9
 91  5  2 22 40  0.0030000  0  5 19  6 15 13  2
  24484061.445      610349.252 4    475576.711 2
  21682249.389   -12162782.225 8  -9477482.520 9
  24499361.342    -2618567.445 5  -2040417.032 2
  23001556.262    -5540193.473 6  -4317021.697 4
  21757197.202    -2381015.709 9  -1855331.588 9
 91  5  2 22 40 30.0030000  0  5 19  6 15 13  2
  24503049.987      710138.254 4    553334.135 2
  21678052.594   -12184840.928 8  -9494671.105 9
  24500617.775    -2611955.623 5  -2035264.910 3
  22985579.418    -5624137.100 6  -4382432.132 3
  21761873.668    -2356438.953 9  -1836180.876 9
 91  5  2 22 41  0.0030000  0  5 19  6 15 13  2
  24522081.421      810155.401 4    631269.345 3
  21673909.162   -12206594.123 8  -9511621.642 9
  24501984.825    -2604807.512 5  -2029694.931 3
  22969673.632    -5707700.167 6  -4447546.090 4
  21766586.710    -2331677.151 9  -1816885.975 9
 91  5  2 22 41 30.0030000  0  5 19  6 15 13  2
  24541156.010      910393.985 4    709377.082 1
  21669828.987   -12228045.844 8  -9528337.266 9
  24503441.517    -2597128.335 5  -2023711.126 3
  22953843.685    -5790886.404 6  -4512366.384 4
  21771333.013    -2306736.334 9  -1797451.588 9
 91  5  2 22 42  0.0030000  0  4  6 15 13  2
  21665807.567   -12249190.809 8  -9544813.846 9
  24505011.531    -2588914.072 5  -2017310.365 4
  22938088.389    -5873689.765 6  -4576888.310 4
  21776109.015    -2281613.801 9  -1777875.596 9
 91  5  2 22 42 30.0030000  0  4  6 15 13  2
  21661841.325   -12270025.509 8  -9561048.672 9
  24506668.481    -2580162.549 5  -2010491.026 2
  22922408.653    -5956107.164 6  -4641109.518 4
  21780927.875    -2256308.142 9  -1758156.915 9
 91  5  2 22 43  0.0030000  0  4  6 15 13  2
  21657938.025   -12290546.238 8  -9577038.840 9
  24508437.567    -2570871.408 5  -2003251.088 2
  22906793.361    -6038134.160 6  -4705026.495 4
  21785777.326    -2230818.424 9  -1738294.803 9
 91  5  2 22 43 30.0030000  0  4  6 15 13  2
  21654091.386   -12310753.313 8  -9592784.606 9
  24510304.077    -2561041.659 5  -1995591.497 2
  22891260.206    -6119770.701 6  -4768639.238 3
  21790658.535    -2205147.508 9  -1718291.505 9
 91  5  2 22 44  0.0030000  0  4  6 15 13  2
  21650309.802   -12330646.688 8  -9608285.932 9
  24512281.204    -2550674.606 5  -1987513.278 4
  22875799.907    -6201016.090 6  -4831947.187 4
  21795581.137    -2179297.117 9  -1698148.350 9
 91  5  2 22 44 30.0030000  0  4  6 15 13  2
  21646575.892   -12350226.530 8  -9623542.941 9
  24514358.164    -2539772.062 5  -1979017.756 2
  22860413.073    -6281869.933 6  -4894950.038 3
  21800534.905    -2153270.070 9  -1677867.548 9
 91  5  2 22 45  0.0030000  0  4  6 15 13  2
  21642914.819   -12369483.630 8  -9638548.468 9
  24516538.255    -2528326.168 5  -1970098.852 5
  22845105.654    -6362323.553 6  -4957641.033 5
  21805520.450    -2127059.859 9  -1657444.018 9
 91  5  2 22 45 30.0030000  0  5 19  6 15 13  2
  24695270.627       17009.30814     13233.394 3
  21639307.719   -12388423.945 8  -9653307.147 9
  24518806.783    -2516344.024 5  -1960762.089 4
  22829869.904    -6442382.422 6  -5020024.432 3
  21810542.884    -2100674.279 9  -1636883.833 9
 91  5  2 22 46  0.0030000  0  5 19  6 15 13  2
  24714712.752      119216.533 4     92875.093 4
  21635767.174   -12407041.348 8  -9667814.205 9
  24521196.433    -2503820.567 5  -1951003.516 3
  22814709.713    -6522039.295 6  -5082094.590 3
  21815596.485    -2074109.410 9  -1616183.950 9
 91  5  2 22 46 30.0030000  0  5 19  6 15 13  2
  24734223.247      221642.287 4    172687.076 3
  21632291.074   -12425328.428 8  -9682063.870 9
  24523678.413    -2490749.781 5  -1940818.476 3
  22799626.251    -6601287.128 6  -5143846.000 4
  21820687.254    -2047360.854 9  -1595340.926 9
 91  5  2 22 47  0.0030000  0  5 19  6 15 13  2
  24753742.432      324277.112 4    252662.009 2
  21628867.742   -12443291.465 8  -9696061.031 9
  24526272.213    -2477139.279 5  -1930212.848 2
  22784628.225    -6680131.958 6  -5205283.408 4
  21825810.708    -2020436.976 9  -1574361.287 9
 91  5  2 22 47 30.0030000  0  4  6 15 13  2
  21625512.467   -12460923.801 8  -9709800.499 9
  24528969.441    -2462984.078 6  -1919182.808 3
  22769698.273    -6758566.665 7  -5266401.243 3
  21830970.440    -1993333.405 9  -1553241.623 9
 91  5  2 22 48  0.0030000  0  4  6 15 13  2
  21622221.949   -12478222.957 8  -9723280.357 9
  24531771.911    -2448283.170 5  -1907727.525 4
  22754855.833    -6836588.502 7  -5327197.331 5
  21836163.137    -1966050.128 9  -1531981.933 9
 91  5  2 22 48 30.0030000  0  4  6 15 13  2
  21618996.486   -12495187.342 8  -9736499.336 9
  24534667.303    -2433036.194 6  -1895846.751 3
  22740083.561    -6914195.678 7  -5387670.331 5
  21841388.220    -1938587.672 9  -1510582.617 9
 91  5  2 22 49  0.0030000  0  4  6 15 13  2
  21615826.776   -12511816.693 8  -9749457.265 9
  24537671.515    -2417244.708 6  -1883541.662 2
  22725395.538    -6991387.243 7  -5447819.465 6
  21846646.285    -1910948.531 9  -1489045.636 9
 91  5  2 22 49 30.0030000  0  4  6 15 13  2
  21612729.921   -12528108.179 8  -9762151.922 9
  24540784.861    -2400907.436 6  -1870811.297 3
  22710786.948    -7068160.840 6  -5507642.909 5
  21851940.018    -1883131.865 9  -1467370.310 9
 91  5  2 22 50  0.0030000  0  4  6 15 13  2
  21609696.322   -12544061.706 8  -9774583.227 9
  24543992.944    -2384025.395 6  -1857656.435 2
  22696256.309    -7144516.156 6  -5567140.446 5
  21857264.935    -1855139.949 9  -1445558.439 9
 91  5  2 22 50 30.0030000  0  4  6 15 13  2
  21606722.683   -12559671.554 8  -9786746.732 9
  24547310.754    -2366594.759 5  -1844074.072 3
  22681806.604    -7220446.699 6  -5626306.973 4
  21862626.723    -1826969.123 9  -1423607.154 9
 91  5  2 22 51  0.0030000  0  4  6 15 13  2
  21603817.082   -12574935.772 8  -9798640.921 9
  24550732.288    -2348615.177 5  -1830063.994 3
  22667439.054    -7295950.308 6  -5685140.809 5
  21868021.790    -1798619.957 9  -1401516.903 9
 91  5  2 22 51 30.0030000  0  4  6 15 13  2
  21600981.055   -12589857.997 8  -9810268.623 9
  24554246.744    -2330091.929 5  -1815630.229 2
  22653148.844    -7371030.494 7  -5743644.730 4
  21873449.226    -1770098.040 9  -1379292.046 9
 91  5  2 22 52  0.0030000  0  4  6 15 13  2
  21598204.673   -12604429.590 8  -9821623.107 9
  24557882.933    -2311017.863 5  -1800767.337 4
  22638952.185    -7445678.509 7  -5801811.916 5
  21878910.848    -1741397.467 9  -1356927.974 9
 91  5  2 22 52 30.0030000  0  4  6 15 13  2
  21595499.942   -12618650.546 8  -9832704.360 9
  24561619.548    -2291394.448 5  -1785476.312 3
  22624827.158    -7519894.145 7  -5859642.146 6
  21884406.637    -1712520.282 9  -1334426.277 9
 91  5  2 22 53  0.0030000  0  4  6 15 13  2
  21592863.266   -12632516.580 8  -9843509.049 9
  24565455.386    -2271219.070 5  -1769755.199 4
  22610784.584    -7593673.424 7  -5917132.393 5
  21889934.220    -1683464.504 9  -1311785.421 9
 91  5  2 22 53 30.0030000  0  4  6 15 13  2
  21590289.255   -12646026.862 8  -9854036.536 9
  24569400.653    -2250492.586 5  -1753604.673 2
  22596830.448    -7667015.087 7  -5974281.634 5
  21895499.566    -1654231.116 9  -1289006.167 9
 91  5  2 22 54  0.0030000  0  4  6 15 13  2
  21587786.283   -12659178.747 8  -9864284.750 9
  24573449.959    -2229214.114 5  -1737024.031 3
  22582954.541    -7739916.662 7  -6031087.962 3
  21901097.281    -1624820.136 9  -1266088.525 9
 91  5  2 22 54 30.0030000  0  4  6 15 13  2
  21585355.275   -12671966.008 8  -9874248.833 9
  24577606.583    -2207379.478 6  -1720010.009 2
  22569168.589    -7812371.356 7  -6087546.048 5
  21906726.181    -1595227.583 9  -1243029.401 9
 91  5  2 22 55  0.0030000  0  4  6 15 13  2
  21582983.320   -12684397.405 8  -9883935.636 9
  24581869.025    -2184998.992 6  -1702570.666 3
  22555462.072    -7884388.554 7  -6143663.248 4
  21912388.061    -1565464.467 9  -1219837.381 9
 91  5  2 22 55 30.0030000  0  4  6 15 13  2
  21580690.501   -12696466.280 8  -9893339.949 9
  24586227.409    -2162067.650 6  -1684702.055 2
  22541840.711    -7955960.913 7  -6199433.806 5
  21918088.332    -1535526.424 9  -1196509.053 9
 91  5  2 22 56  0.0030000  0  4  6 15 13  2
  21578462.736   -12708168.513 8  -9902458.570 9
  24590699.115    -2138582.906 6  -1666402.250 2
  22528312.569    -8027084.298 7  -6254854.520 5
  21923817.064    -1505411.208 9  -1173042.657 9
 91  5  2 22 56 30.0030000  0  4  6 15 13  2
  21576305.435   -12719506.676 8  -9911293.498 9
  24595276.342    -2114549.623 6  -1647674.983 2
  22514859.394    -8097761.610 7  -6309927.657 4
  21929582.371    -1475123.913 9  -1149442.180 9
 91  5  2 22 57  0.0030000  0  4  6 15 13  2
  21574218.581   -12730477.281 8  -9919842.008 9
  24599945.008    -2089965.741 6  -1628518.676 3
  22501491.637    -8167988.996 7  -6364650.185 5
  21935377.955    -1444663.052 9  -1125706.455 9
 91  5  2 22 57 30.0030000  0  4  6 15 13  2
  21572202.174   -12741075.989 8  -9928100.738 9
  24604729.107    -2064828.839 6  -1608931.516 3
  22488218.635    -8237762.155 7  -6419018.766 6
  21941209.224    -1414026.268 9  -1101833.648 9
 91  5  2 22 58  0.0030000  0  4  6 15 13  2
  21570256.230   -12751299.753 8  -9936067.300 9
  24609616.617    -2039138.164 6  -1588912.773 3
  22475029.568    -8307077.593 7  -6473030.697 6
  21947071.067    -1383212.876 9  -1077823.230 9
 91  5  2 22 58 30.0030000  0  4  6 15 13  2
  21568380.419   -12761146.465 8  -9943740.055 9
  24614615.650    -2012893.455 6  -1568462.314 2
  22461924.141    -8375933.555 7  -6526684.581 5
  21952970.375    -1352222.888 9  -1053675.192 9
 91  5  2 22 59  0.0030000  0  4  6 15 13  2
  21566581.371   -12770617.055 8  -9951119.731 9
  24619716.628    -1986097.107 6  -1547582.064 3
  22448908.651    -8444331.145 7  -6579981.295 5
  21958898.475    -1321059.536 9  -1029392.086 9
 91  5  2 22 59 30.0030000  0  4  6 15 13  2
  21564850.659   -12779704.661 8  -9958200.978 9
  24624925.518    -1958744.506 6  -1526268.331 2
  22435981.286    -8512263.422 7  -6632915.445 6
  21964861.337    -1289718.167 9  -1004970.257 9
 91  5  2 23  0  0.0030000  0  4  6 15 13  2
  21563193.708   -12788413.164 8  -9964986.815 9
  24630225.847    -1930841.559 6  -1504525.755 2
  22423145.377    -8579734.232 7  -6685489.996 6
  21970858.087    -1258204.688 9   -980414.313 9
 91  5  2 23  0 30.0030000  0  4  6 15 13  2
  21561611.706   -12796733.076 8  -9971469.857 9
  24635640.702    -1902380.921 5  -1482348.658 4
  22410392.810    -8646733.778 7  -6737697.340 5
  21976890.208    -1226511.695 9   -955718.493 9
 91  5  2 23  1  0.0030000  0  4  6 15 13  2
  21560100.744   -12804667.096 8  -9977652.202 9
  24641164.377    -1873367.007 5  -1459740.395 4
  22397731.665    -8713265.291 7  -6789539.999 5
  21982953.513    -1194643.826 9   -930886.407 9
 91  5  2 23  1 30.0030000  0  4  6 15 13  2
  21558668.343   -12812213.494 8  -9983532.504 9
  24646791.182    -1843799.372 5  -1436700.659 2
  22385163.774    -8779326.792 7  -6841016.372 5
  21989049.502    -1162601.654 9   -905918.484 9
 91  5  2 23  2  0.0030000  0  4  6 15 13  2
  21557301.886   -12819372.713 8  -9989111.109 9
  24652528.011    -1813681.182 5  -1413231.923 2
  22372675.927    -8844918.910 7  -6892127.036 5
  21995185.051    -1130387.647 9   -880816.678 9
 91  5  2 23  2 30.0030000  0  4  6 15 13  2
  21556016.381   -12826137.361 8  -9994382.254 9
  24658361.078    -1783007.526 5  -1389330.351 4
  22360288.192    -8910034.498 7  -6942866.372 5
  22001343.687    -1097996.489 9   -855576.825 9
 91  5  2 23  3  0.0030000  0  4  6 15 13  2
  21554803.713   -12832508.181 8  -9999346.528 9
  24664300.556    -1751780.948 5  -1364997.937 3
  22347988.615    -8974674.720 7  -6993235.274 5
  22007543.994    -1065431.062 9   -830201.178 9
 91  5  2 23  3 30.0030000  0  4  6 15 13  2
  21553667.198   -12838483.276 8 -10004002.440 9
  24670352.169    -1720000.725 5  -1340234.159 4
  22335776.569    -9038837.323 7  -7043232.023 5
  22013771.278    -1032691.118 9   -804689.541 9
 91  5  2 23  4  0.0030000  0  4  6 15 13  2
  21552604.148   -12844058.818 8 -10008347.010 9
  24676495.222    -1687666.053 5  -1315038.278 3
  22323660.150    -9102518.449 7  -7092853.607 6
  22020037.547     -999775.322 9   -779040.879 9
 91  5  2 23  4 30.0030000  0  4  6 15 13  2
  21551621.125   -12849232.828 8 -10012378.696 9
  24682773.775    -1654776.620 5  -1289410.135 9
  22311630.074    -9165716.516 7  -7142098.766 5
  22026333.184     -966683.581 9   -753255.111 9
 91  5  2 23  5  0.0030000  0  4  6 15 13  2
  21550713.644   -12854005.494 8 -10016097.655 9
  24689125.166    -1621335.422 5  -1263352.053 4
  22299698.348    -9228431.794 7  -7190967.725 6
  22032664.804     -933417.905 9   -727333.811 9
 91  5  2 23  5 30.0030000  0  4  6 15 13  2
  21549879.628   -12858374.913 8 -10019502.393 9
  24695596.195    -1587342.271 6  -1236863.892 3
  22287855.933    -9290662.007 7  -7239458.703 6
  22039027.903     -899978.852 9   -701277.410 9
 91  5  2 23  6  0.0030000  0  4  6 15 13  2
  21549125.343   -12862341.449 8 -10022593.202 9
  24702168.837    -1552799.841 6  -1209947.684 3
  22276107.678    -9352408.581 7  -7287572.833 5
  22045423.967     -866368.760 9   -675087.743 9
 91  5  2 23  6 30.0030000  0  4  6 15 13  2
  21548452.009   -12865894.376 8 -10025361.713 9
  24708850.613    -1517699.156 5  -1182596.474 4
  22264451.736    -9413660.297 7  -7335301.348 5
  22051853.325     -832578.345 9   -648757.567 9
 91  5  2 23  7  0.0030000  0  4  6 15 13  2
  21547854.827   -12869038.418 8 -10027811.620 9
  24715630.127    -1482047.769 5  -1154816.199 3
  22252890.548    -9474422.889 7  -7382648.733 6
  22058318.351     -798614.328 9   -622292.109 9
 91  5  2 23  7 30.0030000  0  4  6 15 13  2
  21547333.188   -12871770.468 8 -10029940.494 9
  24722523.853    -1445844.632 5  -1126605.950 2
  22241419.280    -9534693.153 7  -7429612.485 6
  22064813.043     -764475.803 9   -595690.683 9
 91  5  2 23  8  0.0030000  0  4  6 15 13  2
  21546891.889   -12874088.888 8 -10031747.054 9
  24729516.818    -1409090.496 5  -1097966.332 3
  22230043.065    -9594469.583 7  -7476191.434 6
  22071344.625     -730163.104 9   -568953.525 9
 91  5  2 23  8 30.0030000  0  4  6 15 13  2
  21546527.354   -12875991.354 8 -10033229.498 9
  24736620.401    -1371784.970 5  -1068897.083 2
  22218764.867    -9653749.418 7  -7522383.431 5
  22077904.982     -695675.417 9   -542080.018 9
 91  5  2 23  9  0.0030000  0  4  6 15 13  2
  21546250.349   -12877472.553 8 -10034383.670 9
  24743812.717    -1333925.041 5  -1039395.838 1
  22207580.220    -9712528.297 7  -7568185.081 5
  22084502.822     -661010.035 9   -515068.035 9
 91  5  2 23  9 30.0030000  0  4  6 15 13  2
  21546045.275   -12878528.270 8 -10035206.307 9
  24751130.344    -1295508.799 5  -1009461.097 2
  22196488.495    -9770802.113 7  -7613593.171 6
  22091133.625     -626164.450 9   -487915.635 9
 91  5  2 23 10  0.0030000  0  4  6 15 13  2
  21545926.857   -12879166.141 8 -10035703.351 9
  24758549.322    -1256546.374 5   -979100.766 3
  22185495.695    -9828579.148 7  -7658614.149 6
  22097797.410     -591147.956 9   -460630.069 9
 91  5  2 23 10 30.0030000  0  4  6 15 13  2
  21545887.298   -12879379.514 8 -10035869.618 9
  24766066.003    -1217033.213 5   -948311.302 2
  22174597.354    -9885852.542 7  -7703242.702 6
  22104497.473     -555955.623 9   -433207.482 9
 91  5  2 23 11  0.0030000  0  4  6 15 13  2
  21545925.967   -12879166.731 8 -10035703.801 9
  24773688.537    -1176970.169 5   -917093.340 3
  22163791.324    -9942620.909 7  -7747477.712 5
  22111225.422     -520587.755 9   -405648.111 9
 91  5  2 23 11 30.0030000  0  4  6 15 13  2
  21546047.089   -12878525.413 8 -10035204.069 9
  24781407.292    -1136357.193 5   -885446.854 4
  22153086.645    -9998882.692 7  -7791317.965 6
  22117984.240     -485043.966 9   -377951.669 9
 91  5  2 23 12  0.0030000  0  4  6 15 13  2
  21546249.145   -12877452.770 8 -10034368.234 9
  24789254.062    -1095193.859 5   -853371.539 3
  22142478.779   -10054635.007 7  -7834761.259 7
  22124785.323     -449323.253 9   -350117.365 9
 91  5  2 23 12 30.0030000  0  4  6 15 13  2
  21546537.842   -12875953.637 8 -10033200.074 9
  24797180.875    -1053487.549 5   -820873.105 3
  22131959.055   -10109883.070 7  -7877811.616 6
  22131616.699     -413432.091 9   -322150.231 9
 91  5  2 23 13  0.0030000  0  4  6 15 13  2
  21546907.193   -12874018.920 8 -10031692.497 9
  24805221.604    -1011231.155 5   -787946.080 3
  22121547.278   -10164617.832 7  -7920462.005 6
  22138476.258     -377363.380 9   -294044.751 9
 91  5  2 23 13 30.0030000  0  4  6 15 13  2
  21547355.070   -12871652.205 8 -10029848.300 9
  24813371.763     -968430.644 5   -754594.988 4
  22111230.221   -10218843.585 7  -7962715.767 6
  22145373.875     -341122.487 9   -265805.103 9
 91  5  2 23 14  0.0030000  0  4  6 15 13  2
  21547886.011   -12868848.119 8 -10027663.298 9
  24821625.943     -925083.193 5   -720817.760 3
  22101010.291   -10272555.100 7  -8004568.821 6
  22152305.974     -304705.853 9   -237428.523 9
 91  5  2 23 14 30.0030000  0  4  6 15 13  2
  21548506.872   -12865604.657 8 -10025135.920 9
  24829969.171     -881189.215 5   -686614.696 4
  22090884.506   -10325750.650 7  -8046019.827 6
  22159269.850     -268112.899 9   -208914.547 9
 91  5  2 23 15  0.0030000  0  4  6 15 13  2
  21549209.592   -12861919.577 8 -10022264.427 9
  24838434.412     -836749.247 5   -651986.108 3
  22080859.443   -10378428.488 7  -8087067.423 5
  22166267.614     -231343.322 9   -180262.944 9
 91  5  2 23 15 30.0030000  0  4  6 15 13  2
  21549992.653   -12857796.092 8 -10019051.325 9
  24846990.480     -791768.941 5   -616936.550 2
  22070929.414   -10430592.536 7  -8127714.665 6
  22173294.451     -194401.892 9   -151477.430 9
 91  5  2 23 16  0.0030000  0  4  6 15 13  2
  21550858.743   -12853230.567 8 -10015493.768 9
  24855657.183     -746246.782 5   -581464.718 2
  22061105.814   -10482238.738 7  -8167958.375 6
  22180356.658     -157286.863 9   -122556.667 9
 91  5  2 23 16 30.0030000  0  4  6 15 13  2
  21551815.695   -12848215.908 8 -10011586.238 9
  24864415.029     -700178.029 5   -545567.016 3
  22051376.655   -10533361.303 7  -8207794.073 6
  22187452.440     -119992.636 9    -93496.224 9
 91  5  2 23 17  0.0030000  0  4  6 15 13  2
  21552853.878   -12842753.192 8 -10007329.572 9
  24873287.383     -653566.593 5   -509246.396 3
  22041749.422   -10583961.261 7  -8247222.522 6
  22194584.205      -82521.788 9    -64298.176 9
 91  5  2 23 17 30.0030000  0  4  6 15 13  2
  21553977.184   -12836844.221 8 -10002725.176 9
  24882262.274     -606416.774 5   -472506.299 4
  22032217.205   -10634040.988 7  -8286245.614 6
  22201750.154      -44878.190 9    -34965.514 9
 91  5  2 23 18  0.0030000  0  4  6 15 13  2
  21555190.759   -12830484.797 8  -9997769.783 9
  24891336.387     -558726.909 5   -435345.358 4
  22022786.637   -10683596.600 7  -8324860.316 6
  22208944.861       -7059.030 9     -5496.038 9
 91  5  2 23 18 30.0030000  0  4  6 15 13  2
  21556479.859   -12823673.731 8  -9992462.460 9
  24900511.240     -510498.378 5   -397764.695 4
  22013458.902   -10732627.576 8  -8363066.201 6
  22216174.958       30935.141 8     24109.794 9
 91  5  2 23 19  0.0030000  0  4  6 15 13  2
  21557865.808   -12816409.316 8  -9986801.868 9
  24909790.708     -461731.966 5   -359764.927 3
  22004230.983   -10781132.355 8  -8400862.076 6
  22223436.238       69104.387 8     53852.052 9
 91  5  2 23 19 30.0030000  0  4  6 15 13  2
  21559338.676   -12808688.119 8  -9980785.347 9
  24919177.511     -412427.059 5   -321345.500 3
  21995099.301   -10829108.583 8  -8438246.076 6
  22230735.873      107450.449 8     83732.089 9
 91  5  2 23 20  0.0030000  0  4  6 15 13  2
  21560892.810   -12800504.903 8  -9974408.808 9
  24928666.538     -362580.392 5   -282503.905 3
  21986070.768   -10876550.965 8  -8475214.097 6
  22238064.005      145977.075 8    113752.824 9
 91  5  2 23 20 30.0030000  0  4  6 15 13  2
  21562538.662   -12791858.884 8  -9967671.641 9
  24938253.898     -312194.075 5   -243241.884 3
  21977142.940   -10923458.924 7  -8511765.683 6
  22245433.511      184683.860 8    143913.940 9
 91  5  2 23 21  0.0030000  0  4  6 15 13  2
  21564274.767   -12782751.701 8  -9960575.131 9
  24947939.903     -261272.451 5   -203562.692 2
  21968323.338   -10969834.709 7  -8547902.592 6
  22252829.088      223567.272 8    174212.692 9
 91  5  2 23 21 30.0030000  0  4  6 15 13  2
  21566094.510   -12773182.660 8  -9953118.732 9
  24957734.117     -209817.124 5   -163467.646 3
  21959594.896   -11015678.331 8  -8583624.812 7
  22260263.038      262626.124 8    204648.151 9
 91  5  2 23 22  0.0030000  0  4  6 15 13  2
  21568002.377   -12763152.052 8  -9945302.672 9
  24967624.568     -157831.063 5   -122959.019 2
  21950972.866   -11060990.923 8  -8618933.261 7
  22267727.578      301859.032 8    235219.231 9
 91  5  2 23 22 30.0030000  0  4  6 15 13  2
  21569998.403   -12752652.757 8  -9937121.401 9
  24977621.746     -105309.504 5    -82033.074 2
  21942451.261   -11105765.750 8  -8653822.664 7
  22275231.084      341272.061 8    265930.667 9
 91  5  2 23 23  0.0030000  0  4  6 15 13  2
  21572087.351   -12741685.317 8  -9928575.346 9
  24987715.772      -52255.660 5    -40692.514 3
  21934032.788   -11150003.953 8  -8688293.929 7
  22282764.867      380862.943 8    296780.702 9
 91  5  2 23 23 30.0030000  0  4  6 15 13  2
  21574262.346   -12730248.381 8  -9919663.440 9
  24997912.597        1328.489 5      1061.336 3
  21925717.445   -11193704.578 8  -8722346.300 7
  22290331.927      420631.289 8    327769.008 9
 91  5  2 23 24  0.0030000  0  4  6 15 13  2
  21576528.484   -12718335.278 8  -9910380.510 9
  25008209.883       55447.610 5     43232.090 3
  21917504.919   -11236861.159 7  -8755974.749 6
  22297935.266      460582.877 9    358900.112 9
 91  5  2 23 24 30.0030000  0  4  6 15 13  2
  21578887.544   -12705948.630 8  -9900728.581 9
  25018607.578      110096.355 5     85815.526 3
  21909395.541   -11279476.804 8  -8789181.680 6
  22305568.270      500713.178 9    390170.463 9
 91  5  2 23 25  0.0030000  0  4  6 15 13  2
  21581332.354   -12693093.103 8  -9890711.287 9
  25029107.217      165267.319 5    128805.884 2
  21901386.885   -11321557.309 8  -8821971.628 6
  22313238.461      541016.115 9    421575.333 9
 91  5  2 23 25 30.0030000  0  4  6 15 13  2
  21583870.105   -12679759.391 8  -9880321.383 9
  25039710.877      220967.010 5    172208.205 3
  21893484.956   -11363093.900 8  -8854337.727 7
  22320946.135      581499.886 9    453121.117 9
 91  5  2 23 26  0.0030000  0  4  6 15 13  2
  21586499.277   -12665951.140 8  -9869561.712 9
  25050401.474      277189.172 5    216017.635 2
  21885681.061   -11404090.848 8  -8886283.346 7
  22328680.769      622159.517 9    484803.937 9
 91  5  2 23 26 30.0030000  0  4  6 15 13  2
  21589216.904   -12651660.219 7  -9858425.928 9
  25061197.888      333939.626 5    260238.805 2
  21877983.281   -11444540.229 8  -8917802.285 7
  22336449.903      663001.596 9    516628.916 9
 91  5  2 23 27  0.0030000  0  4  6 15 13  2
  21592029.251   -12636889.602 7  -9846916.364 9
  25072106.735      391212.342 5    304866.875 3
  21870393.135   -11484445.581 8  -8948897.295 7
  22344258.893      704021.893 9    548592.760 9
 91  5  2 23 27 30.0030000  0  4  6 15 13  2
  21594930.035   -12621636.030 7  -9835030.464 9
  25083090.234      449008.019 5    349902.433 2
  21862900.727   -11523804.188 8  -8979566.287 7
  22352100.567      745222.618 9    580697.208 9
 91  5  2 23 28  0.0030000  0  4  6 15 13  2
  21597927.058   -12605898.092 7  -9822767.139 9
  25094195.744      507325.032 5    395344.235 2
  21855515.341   -11562615.357 8  -9009808.685 7
  22359976.112      786603.735 9    612942.215 9
 91  5  2 23 28 30.0030000  0  4  6 15 13  2
  21601017.020   -12589671.480 8  -9810123.035 9
  25105390.896      566165.169 4    441193.689 2
  21848233.976   -11600875.483 8  -9039621.715 7
  22367882.544      828168.481 9    645330.307 9
 91  5  2 23 29  0.0030000  0  4  6 15 13  2
  21604193.326   -12572957.963 7  -9797099.519 9
  25116689.476      625523.896 5    487447.261 4
  21841061.448   -11638587.398 8  -9069007.562 7
  22375827.035      869913.508 8    677858.880 9
 91  5  2 23 29 30.0040000  0  4  6 15 13  2
  21607466.170   -12555755.914 8  -9783695.328 9
  25128080.999      685401.788 5    534105.322 3
  21833986.051   -11675751.246 8  -9097966.362 7
  22383806.918      911840.190 8    710529.009 9
 91  5  2 23 30  0.0040000  0  4  6 15 13  2
  21610836.732   -12538061.767 8  -9769907.687 9
  25139580.431      745797.156 5    581166.627 3
  21827018.563   -11712360.786 8  -9126493.214 8
  22391822.169      953949.467 8    743341.417 9
 91  5  2 23 30 30.0040000  0  4  6 15 13  2
  21614295.138   -12519875.841 7  -9755736.841 9
  25151166.206      806707.817 5    628629.451 3
  21820158.411   -11748419.563 8  -9154590.899 7
  22399867.697      996240.562 8    776295.491 9
 91  5  2 23 31  0.0040000  0  4  6 15 13  2
  21617850.376   -12501197.392 7  -9741182.210 9
  25162854.222      868132.650 5    676492.955 3
  21813402.891   -11783926.908 8  -9182258.900 7
  22407947.392     1038712.932 8    809390.829 9
 91  5  2 23 31 30.0040000  0  4  6 15 13  2
  21621494.051   -12482028.651 7  -9726245.539 9
  25174645.055      930065.874 5    724752.598 3
  21806749.594   -11818885.112 8  -9209499.002 7
  22416067.275     1081362.902 8    842624.564 9
 91  5  2 23 32  0.0040000  0  4  6 15 13  2
  21625237.856   -12462365.399 7  -9710923.523 9
  25186526.734      992509.299 5    773409.779 4
  21800201.243   -11853291.300 8  -9236308.966 7
  22424215.933     1124194.033 8    875999.452 9
 91  5  2 23 32 30.0040000  0  4  6 15 13  2
  21629073.100   -12442202.040 7  -9695211.823 9
  25198503.743     1055465.343 5    822466.444 2
  21793759.896   -11887140.457 8  -9262684.896 7
  22432404.762     1167210.535 8    909518.788 9
 91  5  2 23 33  0.0040000  0  4  6 15 13  2
  21633010.270   -12421541.207 7  -9679112.469 9
  25210582.069     1118928.961 5    871918.585 2
  21787426.182   -11920435.866 8  -9288629.318 7
  22440619.976     1210408.895 8    943179.828 9
 91  5  2 23 33 30.0040000  0  4  6 15 13  2
  21637035.896   -12400377.557 7  -9662621.318 9
  25222749.460     1182902.739 5    921768.283 3
  21781194.099   -11953172.380 8  -9314138.236 7
  22448876.267     1253793.598 8    976986.067 9
 91  5  2 23 34  0.0040000  0  4  6 15 13  2
  21641155.945   -12378710.653 7  -9645738.018 9
  25235023.262     1247384.326 5    972013.649 3
  21775070.538   -11985350.722 8  -9339212.209 8
  22457168.523     1297363.578 8   1010936.691 9
 91  5  2 23 34 30.0040000  0  4  6 15 13  2
  21645380.014   -12356541.843 7  -9628463.625 9
  25247389.394     1312369.814 5   1022651.676 2
  21769054.593   -12016973.249 8  -9363853.090 8
  22465495.558     1341116.743 8   1045030.036 9
 91  5  2 23 35  0.0040000  0  4  6 15 13  2
  21649689.834   -12333871.877 7  -9610798.721 9
  25259855.062     1377855.332 5   1073679.354 2
  21763142.390   -12048041.119 8  -9388061.770 8
  22473859.168     1385051.476 8   1079264.879 9
 91  5  2 23 35 30.0040000  0  4  6 15 13  2
  21654099.172   -12310699.430 7  -9592742.272 9
  25272415.467     1443839.357 5   1125095.464 3
  21757335.411   -12078553.650 8  -9411837.725 8
  22482251.868     1429168.175 8   1113641.500 9
 91  5  2 23 36  0.0040000  0  4  6 15 13  2
  21658606.564   -12287020.498 7  -9574291.167 9
  25285063.716     1510324.009 5   1176901.661 3
  21751635.751   -12108508.139 8  -9435178.842 8
  22490680.829     1473469.292 8   1148161.822 9
 91  5  2 23 36 30.0040000  0  4  6 15 13  2
  21663208.081   -12262836.574 7  -9555446.556 9
  25297807.296     1577304.805 5   1229094.472 5
  21746040.129   -12137906.265 8  -9458086.428 8
  22499143.661     1517953.032 8   1182824.457 9
 91  5  2 23 37  0.0040000  0  4  6 15 13  2
  21667906.116   -12238147.657 7  -9536208.449 9
  25310650.395     1644778.739 5   1281671.573 4
  21740553.030   -12166748.921 8  -9480561.181 8
  22507642.789     1562618.119 8   1217628.401 9
 91  5  2 23 37 30.0040000  0  4  6 15 13  2
  21672700.703   -12212946.096 7  -9516570.875 9
  25323585.246     1712750.547 5   1334636.572 3
  21735171.453   -12195029.078 8  -9502597.620 8
  22516180.274     1607471.354 8   1252578.945 9
 91  5  2 23 38  0.0040000  0  4  6 15 13  2
  21677595.419   -12187233.779 7  -9496535.311 9
  25336610.333     1781215.578 5   1387985.908 3
  21729896.601   -12222749.210 8  -9524197.669 8
  22524748.941     1652510.207 8   1287674.133 9
 91  5  2 23 38 30.0040000  0  4  6 15 13  2
  21682587.560   -12161009.080 7  -9476100.492 9
  25349730.750     1850172.617 5   1441718.658 4
  21724726.678   -12249908.780 8  -9545360.932 8
  22533360.187     1697735.440 8   1322914.554 9
 91  5  2 23 39  0.0040000  0  4  6 15 13  2
  21687671.140   -12134271.227 7  -9455265.807 9
  25362951.001     1919620.049 5   1495833.519 4
  21719667.685   -12276507.924 8  -9566087.498 8
  22542003.490     1743147.051 8   1358300.206 9
 91  5  2 23 39 30.0040000  0  4  6 15 13  2
  21692858.741   -12107015.313 7  -9434027.435 9
  25376263.876     1989559.850 5   1550332.050 3
  21714710.322   -12302542.342 8  -9586374.011 8
  22550675.288     1788749.257 8   1393834.374 9
 91  5  2 23 40  0.0040000  0  4  6 15 13  2
  21698146.488   -12079244.447 7  -9412387.816 9
  25389657.407     2059986.308 5   1605209.778 3
  21709863.873   -12328016.070 8  -9606223.623 8
  22559389.665     1834537.805 8   1429513.742 9
 91  5  2 23 40 30.0040000  0  4  6 15 13  2
  21703527.158   -12050961.581 8  -9390349.222 9
  25403157.053     2130893.678 5   1660462.257 3
  21705121.166   -12352933.040 8  -9625639.403 8
  22568137.302     1880509.255 8   1465335.627 9
 91  5  2 23 41  0.0040000  0  4  6 15 13  2
  21709007.068   -12022162.605 7  -9367908.475 9
  25416733.758     2202283.840 5   1716090.901 2
  21700487.261   -12377289.752 8  -9644618.616 8
  22576919.421     1926667.051 8   1501302.718 9
 91  5  2 23 41 30.0040000  0  4  6 15 13  2
  21714585.902   -11992846.595 7  -9345064.838 9
  25430413.891     2274154.317 5   1772093.855 4
  21695960.098   -12401086.045 8  -9663161.143 9
  22585740.524     1973011.324 8   1537415.113 9
 91  5  2 23 42  0.0040000  0  4  6 15 13  2
  21720264.273   -11963010.567 8  -9321815.995 9
  25444183.963     2346505.197 5   1828471.163 2
  21691538.161   -12424319.836 8  -9681265.341 8
  22594592.495     2019544.396 8   1573674.629 9
 91  5  2 23 42 30.0040000  0  4  6 15 13  2
  21726042.476   -11932653.560 8  -9298161.204 9
  25458041.268     2419335.033 5   1885221.617 3
  21687221.448   -12446990.439 8  -9698930.710 8
  22603487.325     2066266.326 8   1610081.308 9
 91  5  2 23 43  0.0040000  0  4  6 15 13  2
  21731917.511   -11901772.902 8  -9274098.361 9
  25471992.106     2492644.111 5   1942345.547 1
  21683016.556   -12469096.530 8  -9716156.190 8
  22612413.356     2113179.021 8   1646636.632 9
 91  5  2 23 43 30.0040000  0  4  6 15 13  2
  21737893.862   -11870368.487 8  -9249627.398 9
  25486028.398     2566429.276 5   1999840.463 2
  21678917.204   -12490638.142 8  -9732941.824 9
  22621376.555     2160281.972 8   1683340.202 9
 91  5  2 23 44  0.0040000  0  4  6 15 13  2
  21743967.968   -11838442.498 8  -9224750.009 9
  25500171.398     2640685.447 5   2057702.373 4
  21674924.262   -12511619.064 8  -9749290.548 8
  22630376.924     2207572.678 8   1720190.083 9
 91  5  2 23 44 30.0040000  0  4  6 15 13  2
  21750144.595   -11805989.574 8  -9199462.034 9
  25514390.848     2715415.670 5   2115933.682 2
  21671042.549   -12532034.777 8  -9765198.858 8
  22639413.868     2255056.139 8   1757190.147 9
 91  5  2 23 45  0.0040000  0  4  6 15 13  2
  21756419.240   -11773015.020 7  -9173767.589 9
  25528691.249     2790611.891 5   2174528.089 2
  21667262.762   -12551890.999 8  -9780671.201 8
  22648481.089     2302726.230 8   1794335.640 8
 91  5  2 23 45 30.0040000  0  4  6 15 13  2
  21762791.640   -11739515.606 7  -9147664.178 9
  25543081.589     2866274.577 5   2233486.049 2
  21663590.014   -12571185.627 8  -9795705.946 9
  22657591.778     2350585.516 8   1831628.566 9
 91  5  2 23 46  0.0040000  0  5  6 15 13 12  2
  21769266.858   -11705490.597 7  -9121151.192 9
  25557582.248     2942401.273 5   2292805.514 3
  21660023.975   -12589918.569 8  -9810303.007 8
  26222554.607     -199792.169 5   -155681.836 2
  22666734.243     2398634.451 8   1869069.267 9
 91  5  2 23 46 30.0040000  0  5  6 15 13 12  2
  21775842.501   -11670938.840 7  -9094227.766 9
  25572152.465     3018990.577 5   2352485.475 3
  21656566.476   -12608089.507 8  -9824462.141 8
  26206479.432     -284288.986 5   -221523.398 2
  22675917.194     2446873.472 8   1906658.104 9
 91  5  2 23 47  0.0040000  0  5  6 15 13 12  2
  21782523.073   -11635853.999 8  -9066888.940 9
  25586811.119     3096046.825 5   2412529.264 3
  21653214.185   -12625693.186 8  -9838179.262 8
  26190382.670     -368824.089 5   -287394.825 2
  22685129.513     2495308.488 8   1944399.653 9
 91  5  2 23 47 30.0040000  0  5  6 15 13 12  2
  21789297.491   -11600244.133 8  -9039141.014 9
  25601567.808     3173558.664 4   2472928.069 2
  21649974.936   -12642738.405 8  -9851461.214 8
  26174287.410     -453404.675 5   -353301.679 2
  22694385.597     2543931.473 8   1982287.672 9
 91  5  2 23 48  0.0040000  0  5  6 15 13 12  2
  21796174.430   -11564104.416 8  -9010980.213 9
  25616396.741     3251528.277 4   2533683.547 3
  21646836.706   -12659221.211 8  -9864304.920 8
  26158192.463     -538025.168 5   -419239.618 2
  22703672.882     2592746.352 8   2020325.216 9
 91  5  2 23 48 30.0040000  0  5  6 15 13 12  2
  21803150.888   -11527434.206 8  -8982406.032 9
  25631325.211     3329954.255 4   2594794.721 2
  21643808.500   -12675141.883 8  -9876710.597 9
  26142072.615     -622683.577 5   -485207.131 1
  22712999.709     2641753.577 8   2058512.637 8
 91  5  2 23 49  0.0040000  0  5  6 15 13 12  2
  21810230.790   -11490233.826 8  -8953418.745 9
  25646338.506     3408833.001 4   2656258.644 3
  21640886.129   -12690501.104 8  -9888678.783 9
  26125962.679     -707379.429 5   -551203.846 1
  22722360.145     2690952.275 8   2096849.260 9
 91  5  2 23 49 30.0040000  0  5  6 15 13 12  2
  21817412.026   -11452501.545 8  -8924016.985 9
  25661432.159     3488163.463 4   2718074.549 2
  21638067.186   -12705298.528 8  -9900209.208 9
  26109835.344     -792109.665 5   -617227.290 2
  22731764.626     2740343.890 8   2135336.200 9
 91  5  2 23 50  0.0040000  0  5  6 15 13 12  2
  21824692.484   -11414236.098 7  -8894199.776 9
  25676609.747     3567944.193 4   2780241.326 2
  21635359.453   -12719534.078 8  -9911301.814 9
  26093707.696     -876872.212 5   -683275.962 4
  22741195.492     2789929.159 8   2173974.047 8
 91  5  2 23 50 30.0040000  0  5  6 15 13 12  2
  21832075.775   -11375437.370 7  -8863967.015 9
  25691879.089     3648172.879 4   2842757.174 3
  21632757.259   -12733207.854 8  -9921956.669 9
  26077568.374     -961665.312 5   -749348.432 1
  22750666.545     2839708.468 8   2212763.075 9
 91  5  2 23 51  0.0040000  0  5  6 15 13 12  2
  21839561.884   -11336104.144 7  -8833317.771 9
  25707234.147     3728847.832 4   2905620.674 2
  21630264.478   -12746319.861 8  -9932173.773 8
  26061430.255    -1046486.746 5   -815443.016 2
  22760178.659     2889682.498 8   2251703.856 9
 91  5  2 23 51 30.0040000  0  5  6 15 13 12  2
  21847145.138   -11296235.990 7  -8802251.687 9
  25722670.766     3809967.292 4   2968830.635 2
  21627873.641   -12758870.487 8  -9941953.445 9
  26045283.133    -1131335.040 5   -881558.486 2
  22769726.755     2939851.451 8   2290796.515 9
 91  5  2 23 52  0.0040000  0  5  6 15 13 12  2
  21854836.618   -11255834.850 7  -8770770.300 9
  25738194.323     3891526.635 5   3032383.339 3
  21625592.811   -12770862.664 8  -9951297.965 8
  26029131.508    -1216210.875 5   -947695.516 2
  22779306.907     2990212.863 8   2330039.150 9
 91  5  2 23 52 30.0040000  0  5  6 15 13 12  2
  21862625.226   -11214896.438 7  -8738870.247 9
  25753788.029     3973527.251 5   3096279.870 2
  21623418.426   -12782292.681 8  -9960204.440 9
  26012982.884    -1301108.464 5  -1013849.395 3
  22788929.951     3040770.984 8   2369435.060 7
 91  5  2 23 53  0.0040000  0  5  6 15 13 12  2
  21870519.355   -11173423.355 7  -8706553.571 9
  25769479.754     4055963.914 5   3160516.178 3
  21621348.656   -12793164.192 8  -9968675.718 9
  25996815.083    -1386029.458 5  -1080021.571 1
  22798588.368     3091522.765 8   2408981.871 8
 91  5  2 23 53 30.0040000  0  5  6 15 13 12  2
  21878511.817   -11131416.059 7  -8673820.621 9
  25785252.744     4138833.025 4   3225089.508 2
  21619384.407   -12803478.829 8  -9976713.056 9
  25980657.473    -1470972.649 5  -1146210.970 2
  22808278.561     3142467.923 8   2448679.374 9
 91  5  2 23 54  0.0040000  0  5  6 15 13 12  2
  21886606.223   -11088869.012 7  -8640667.091 9
  25801100.665     4222138.342 5   3290002.644 3
  21617529.903   -12813231.763 8  -9984312.717 9
  25964487.857    -1555931.093 5  -1212412.333 2
  22818012.816     3193611.805 8   2488531.722 9
 91  5  2 23 54 30.0040000  0  5  6 15 13 12  2
  21894805.836   -11045783.796 7  -8607094.201 9
  25817042.730     4305875.622 5   3355252.447 3
  21615778.808   -12822425.012 8  -9991476.245 9
  25948322.149    -1640904.892 5  -1278625.590 3
  22827782.460     3244952.651 8   2528537.546 8
 91  5  2 23 55  0.0040000  0  5  6 15 13 12  2
  21903111.284   -11002156.726 7  -8573099.100 9
  25833063.042     4390045.781 4   3420839.566 3
  21614139.535   -12831056.238 8  -9998201.851 9
  25932147.141    -1725888.840 5  -1344846.814 3
  22837586.568     3296494.266 8   2568699.831 8
 91  5  2 23 55 30.0040000  0  5  6 15 13 12  2
  21911512.377   -10957990.479 7  -8538683.864 9
  25849161.898     4474643.161 5   3486759.517 2
  21612604.300   -12839129.093 8 -10004492.353 9
  25915969.149    -1810884.519 5  -1411077.172 2
  22847435.052     3348233.690 8   2609016.248 8
 91  5  2 23 56  0.0040000  0  5  6 15 13 12  2
  21920018.695   -10913281.066 7  -8503845.384 9
  25865332.997     4559669.472 5   3553013.713 2
  21611173.399   -12846640.113 8 -10010345.070 9
  25899797.736    -1895886.183 6  -1477312.192 2
  22857324.003     3400174.915 8   2649489.900 7
 91  5  2 23 56 30.0040000  0  5  6 15 13 12  2
  21928630.221   -10868035.188 7  -8468588.884 9
  25881592.848     4645115.299 4   3619594.832 3
  21609849.818   -12853597.006 8 -10015765.999 9
  25883617.353    -1980899.105 5  -1543555.987 3
  22867242.934     3452311.396 8   2690115.696 8
 91  5  2 23 57  0.0040000  0  5  6 15 13 12  2
  21937341.003   -10822251.799 7  -8432913.536 9
  25897938.729     4730979.868 5   3686502.252 3
  21608633.555   -12859999.830 8 -10020755.182 9
  25867442.641    -2065920.556 6  -1609806.372 3
  22877200.552     3504643.868 8   2730894.226 8
 91  5  2 23 57 30.0040000  0  5  6 15 13 12  2
  21946157.586   -10775928.094 7  -8396817.173 9
  25914352.962     4817262.990 5   3753735.801 4
  21607517.125   -12865847.165 8 -10025311.521 9
  25851258.943    -2150946.281 5  -1676060.090 3
  22887197.415     3557175.180 8   2771827.682 7
 91  5  2 23 58  0.0040000  0  5  6 15 13 12  2
  21955077.317   -10729064.386 7  -8360300.019 9
  25930849.351     4903961.728 5   3821293.203 2
  21606509.828   -12871139.388 8 -10029435.300 9
  25835082.748    -2235974.608 5  -1742315.862 3
  22897230.278     3609905.209 8   2812915.986 8
 91  5  2 23 58 30.0040000  0  5  6 15 13 12  2
  21964096.863   -10681661.384 7  -8323362.643 9
  25947425.470     4991072.394 5   3889171.617 2
  21605607.443   -12875878.339 8 -10033127.970 9
  25818900.254    -2321004.956 5  -1808573.194 4
  22907298.513     3662833.133 7   2854158.490 8
 91  5  2 23 59  0.0040000  0  5  6 15 13 12  2
  21973222.560   -10633715.405 7  -8286002.161 9
  25964081.633     5078596.626 5   3957372.271 2
  21604814.505   -12880060.852 8 -10036387.037 9
  25802724.338    -2406031.670 5  -1874827.654 3
  22917412.903     3715963.078 7   2895558.425 8
 91  5  2 23 59 30.0040000  0  5  6 15 13 12  2
  21982446.570   -10585227.766 7  -8248219.606 9
  25980818.748     5166530.512 5   4025892.135 3
  21604119.585   -12883689.586 8 -10039214.602 9
  25786537.359    -2491054.509 5  -1941079.154 3
  22927562.072     3769293.611 7   2937114.646 8
 91  5  3  0  0  0.0040000  0  5  6 15 13 12  2
  21991774.305   -10536201.782 7  -8210017.574 9
  25997626.623     5254867.694 5   4094726.320 3
  21603535.875   -12886768.699 8 -10041613.884 9
  25770359.646    -2576074.910 5  -2007328.722 4
  22937748.427     3822821.269 7   2978824.475 8
 91  5  3  0  0 30.0040000  0  5  6 15 13 12  2
  22001207.282   -10486640.152 7  -8171398.141 9
  26014515.118     5343603.675 4   4163871.112 2
  21603053.220   -12889302.104 8 -10043587.944 9
  25754180.747    -2661093.658 5  -2073576.964 3
  22947968.950     3876544.055 7   3020686.349 7
 91  5  3  0  1  0.0040000  0  5  6 15 13 12  2
  22010741.889   -10436535.484 7  -8132355.566 9
  26031476.782     5432743.649 4   4233330.826 3
  21602676.382   -12891282.929 8 -10045131.411 9
  25737999.753    -2746101.713 5  -2139816.955 3
  22958232.941     3930469.234 7   3062705.930 7
 91  5  3  0  1 30.0040000  0  5  6 15 13 12  2
  22020380.499   -10385888.829 7  -8092890.664 9
  26048511.597     5522284.051 4   4303102.507 2
  21602403.862   -12892713.235 8 -10046245.915 9
  25721827.153    -2831098.131 5  -2206047.824 3
  22968533.508     3984596.327 7   3104882.855 8
 91  5  3  0  2  0.0040000  0  5  6 15 13 12  2
  22030123.165   -10334698.024 7  -8053001.748 9
  26065633.943     5612223.746 4   4373185.363 3
  21602232.693   -12893591.685 8 -10046930.395 9
  25705652.441    -2916078.733 5  -2272266.408 3
  22978870.965     4038927.539 7   3147218.831 8
 91  5  3  0  2 30.0040000  0  5  6 15 13 12  2
  22039968.054   -10282965.377 8  -8012690.620 9
  26082818.638     5702558.688 4   4443576.169 3
  21602175.718   -12893922.123 8 -10047187.857 9
  25689490.643    -3001044.257 5  -2338473.188 2
  22989249.778     4093460.533 7   3189712.037 7
 91  5  3  0  3  0.0040000  0  5  6 15 13 12  2
  22049910.665   -10230691.755 7  -7971957.944 9
  26100084.582     5793285.688 4   4514272.482 3
  21602217.389   -12893705.784 8 -10047019.256 9
  25673331.829    -3085993.327 5  -2404667.183 2
  22999664.557     4148194.935 7   3232362.190 7
 91  5  3  0  3 30.0040000  0  5  6 15 13 12  2
  22059964.800   -10177872.961 7  -7930800.473 9
  26117429.086     5884405.807 3   4585275.084 2
  21602360.690   -12892939.225 8 -10046421.909 9
  25657170.309    -3170919.705 5  -2470843.488 4
  23010119.227     4203135.032 7   3275172.613 7
 91  5  3  0  4  0.0040000  0  5  6 15 13 12  2
  22070120.268   -10124510.306 7  -7889219.205 9
  26134853.914     5975915.762 4   4656581.497 4
  21602611.328   -12891624.718 8 -10045397.604 9
  25641010.291    -3255822.365 5  -2537001.354 2
  23020612.566     4258280.200 7   3318142.833 6
 91  5  3  0  4 30.0040000  0  5  6 15 13 12  2
  22080376.180   -10070610.293 7  -7847219.224 9
  26152299.734     6067807.238 3   4728185.199 3
  21602964.171   -12889769.425 8 -10043951.894 9
  25624856.590    -3340706.020 5  -2603144.343 3
  23031147.577     4313624.111 7   3361267.914 6
 91  5  3  0  5  0.0040000  0  5  6 15 13 12  2
  22090736.095   -10016164.898 8  -7804794.269 9
  26169888.559     6160085.064 4   4800089.918 2
  21603422.868   -12887366.556 8 -10042079.514 9
  25608705.261    -3425560.550 5  -2669264.708 2
  23041716.144     4369175.145 7   3404554.419 6
 91  5  3  0  5 30.0040000  0  5  6 15 13 12  2
  22101202.456    -9961178.717 8  -7761947.922 9
  26187518.461     6252742.347 4   4872290.345 2
  21603982.269   -12884421.776 8 -10039784.863 9
  25592572.238    -3510388.595 5  -2735364.401 1
  23052324.009     4424929.166 7   3447999.089 7
 91  5  3  0  6  0.0040000  0  5  6 15 13 12  2
  22111766.836    -9905651.215 7  -7718679.758 9
  26205224.796     6345777.627 4   4944785.329 1
  21604644.208   -12880935.085 8 -10037067.935 9
  25576430.804    -3595187.128 5  -2801441.131 2
  23062973.842     4480887.129 7   3491602.654 6
 91  5  3  0  6 30.0040000  0  5  6 15 13 12  2
  22122440.349    -9849580.352 7  -7674988.207 9
  26223002.799     6439190.563 4   5017574.602 2
  21605411.093   -12876905.588 8 -10033928.049 9
  25560298.968    -3679952.058 5  -2867491.630 3
  23073661.437     4537051.535 7   3535367.106 7
 91  5  3  0  7  0.0040000  0  5  6 15 13 12  2
  22133209.803    -9792967.722 7  -7630874.500 9
  26240840.149     6532976.915 4   5090654.866 3
  21606280.480   -12872335.665 8 -10030367.046 9
  25544174.932    -3764682.627 5  -2933515.377 3
  23084385.608     4593421.119 7   3579291.407 7
 91  5  3  0  7 30.0040000  0  5  6 15 13 12  2
  22144084.761    -9735811.951 7  -7586337.556 9
  26258761.732     6627135.942 4   5164025.426 2
  21607253.906   -12867225.053 8 -10026384.738 9
  25528065.292    -3849374.959 6  -2999509.383 3
  23095157.750     4649997.850 7   3623377.137 7
 91  5  3  0  8  0.0040000  0  5  6 15 13 12  2
  22155068.260    -9678111.036 7  -7541375.827 9
  26276740.290     6721667.752 3   5237686.542 1
  21608331.666   -12861572.472 8 -10021980.113 9
  25511949.353    -3934024.916 5  -3065470.253 2
  23105955.980     4706784.410 7   3667626.373 7
 91  5  3  0  8 30.0040000  0  5  6 15 13 12  2
  22166150.701    -9619864.555 7  -7495988.988 9
  26294814.179     6816570.075 4   5311636.432 2
  21609509.556   -12855378.369 8 -10017153.518 9
  25495846.589    -4018629.966 5  -3131396.252 3
  23116808.462     4763781.472 7   3712039.622 7
 91  5  3  0  9  0.0040000  0  5  6 15 13 12  2
  22177337.146    -9561077.179 7  -7450180.673 9
  26312938.132     6911836.444 3   5385869.884 1
  21610788.761   -12848648.243 8 -10011909.245 9
  25479752.532    -4103192.126 5  -3197288.706 2
  23127691.831     4820985.019 7   3756613.774 7
 91  5  3  0  9 30.0040000  0  5  6 15 13 12  2
  22188629.129    -9501745.945 7  -7403948.563 9
  26331134.329     7007467.317 4   5460387.413 2
  21612176.193   -12841380.463 8 -10006246.019 9
  25463671.371    -4187706.131 5  -3263143.683 2
  23138617.761     4878398.673 7   3801351.641 7
 91  5  3  0 10  0.0040000  0  5  6 15 13 12  2
  22200020.649    -9441870.676 7  -7357292.539 9
  26349403.992     7103460.345 4   5535187.134 2
  21613659.881   -12833575.265 8 -10000164.024 9
  25447597.400    -4272169.340 5  -3328959.118 3
  23149584.473     4936023.229 7   3846253.849 6
 91  5  3  0 10 30.0040000  0  5  6 15 13 12  2
  22211516.486    -9381454.690 7  -7310215.162 9
  26367733.002     7199810.164 4   5610264.873 3
  21615243.680   -12825236.995 8  -9993666.649 9
  25431533.916    -4356582.577 5  -3394735.547 3
  23160587.463     4993855.594 7   3891318.001 6
 91  5  3  0 11  0.0040000  0  5  6 15 13 12  2
  22223119.362    -9320498.084 7  -7262716.542 9
  26386140.260     7296514.029 4   5685618.473 2
  21616932.111   -12816366.492 8  -9986754.548 9
  25415487.516    -4440943.313 5  -3460471.071 2
  23171634.516     5051896.534 7   3936544.664 6
 91  5  3  0 11 30.0040000  0  5  6 15 13 12  2
  22234821.147    -9259001.876 7  -7214797.444 9
  26404608.663     7393568.848 4   5761245.554 1
  21618723.061   -12806965.343 8  -9979428.963 9
  25399443.524    -4525249.846 6  -3526164.414 2
  23182714.549     5110145.919 7   3981933.749 7
 91  5  3  0 12  0.0040000  0  5  6 15 13 12  2
  22246625.783    -9196960.579 7  -7166453.600 9
  26423149.031     7490978.620 4   5837149.248 3
  21620613.566   -12797029.277 8  -9971686.575 9
  25383415.429    -4609494.357 6  -3591809.388 3
  23193843.443     5168609.601 7   4027489.819 6
 91  5  3  0 12 30.0040000  0  5  6 15 13 12  2
  22258534.440    -9134383.326 7  -7117692.125 9
  26441740.056     7588732.090 4   5913320.714 2
  21622605.682   -12786568.358 8  -9963535.158 9
  25367389.725    -4693683.188 6  -3657410.964 2
  23205008.598     5227279.585 7   4073206.646 6
 91  5  3  0 13  0.0040000  0  5  6 15 13 12  2
  22270544.727    -9071267.523 7  -7068511.015 9
  26460410.533     7686829.512 4   5989760.221 1
  21624696.131   -12775580.626 8  -9954973.273 9
  25351381.105    -4777811.249 6  -3722965.224 2
  23216210.643     5286159.100 7   4119086.748 6
 91  5  3  0 13 30.0040000  0  4  6 13 12  2
  22282659.034    -9007610.098 7  -7018907.860 9
  21626885.226   -12764064.199 8  -9945999.410 9
  25335379.988    -4861872.597 6  -3788467.453 4
  23227459.769     5345252.112 7   4165133.200 6
 91  5  3  0 14  0.0040000  0  4  6 13 12  2
  22294877.973    -8943410.736 7  -6968882.417 9
  21629176.527   -12752019.996 8  -9936614.303 9
  25319400.736    -4945864.134 6  -3853915.276 1
  23238743.952     5404558.814 7   4211346.179 6
 91  5  3  0 14 30.0040000  0  4  6 13 12  2
  22307194.058    -8878671.243 7  -6918436.090 9
  21631569.772   -12739450.382 8  -9926819.775 9
  25303427.208    -5029785.002 6  -3919308.084 3
  23250067.416     5464078.820 7   4257725.373 6
 91  5  3  0 15  0.0040000  0  4  6 13 12  2
  22319616.850    -8813395.917 7  -6867572.240 9
  21634062.553   -12726360.362 8  -9916619.743 9
  25287477.640    -5113636.757 6  -3984647.044 3
  23261437.350     5523808.581 7   4304268.001 6
 91  5  3  0 15 30.0040000  0  4  6 13 12  2
  22332140.976    -8747584.012 7  -6816290.280 9
  21636649.757   -12712749.887 8  -9906014.158 9
  25271536.482    -5197415.476 6  -4049929.070 3
  23272844.452     5583749.839 7   4350975.444 7
 91  5  3  0 16  0.0040000  0  4  6 13 12  2
  22344767.640    -8681232.500 7  -6764587.845 9
  21639335.293   -12698616.653 8  -9895001.225 9
  25255604.608    -5281115.699 6  -4115149.952 2
  23284289.021     5643906.319 7   4397850.588 6
 91  5  3  0 16 30.0040000  0  4  6 13 12  2
  22357497.434    -8614341.995 7  -6712465.409 9
  21642127.573   -12683962.791 8  -9883582.616 9
  25239696.727    -5364735.076 6  -4180307.764 2
  23295777.965     5704278.188 7   4444893.570 6
 91  5  3  0 17  0.0040000  0  4  6 13 12  2
  22370325.543    -8546916.206 7  -6659925.881 8
  21645016.369   -12668792.308 8  -9871761.438 9
  25223795.129    -5448274.240 6  -4245403.186 2
  23307310.692     5764863.043 7   4492102.498 6
 91  5  3  0 17 30.0040000  0  4  6 13 12  2
  22383260.691    -8478953.188 7  -6606967.715 9
  21648001.700   -12653103.912 8  -9859536.699 9
  25207918.415    -5531728.292 6  -4310432.244 3
  23318873.974     5825663.669 7   4539479.576 6
 91  5  3  0 18  0.0040000  0  4  6 13 12  2
  22396293.561    -8410454.581 7  -6553592.211 9
  21651086.270   -12636899.738 8  -9846910.048 9
  25192048.908    -5615095.938 6  -4375393.954 3
  23330484.947     5886679.454 7   4587024.306 6
 91  5  3  0 18 30.0040000  0  4  6 13 12  2
  22409429.579    -8341422.894 7  -6499801.326 8
  21654264.670   -12620183.663 8  -9833884.519 9
  25176204.285    -5698376.722 6  -4440288.009 3
  23342139.668     5947908.652 7   4634735.333 6
 91  5  3  0 19  0.0040000  0  4  6 13 12  2
  22422670.211    -8271855.729 7  -6445593.183 9
  21657543.200   -12602954.697 8  -9820459.336 9
  25160368.945    -5781565.426 6  -4505110.290 3
  23353834.874     6009354.215 7   4682614.950 7
 91  5  3  0 19 30.0040000  0  4  6 13 12  2
  22436010.379    -8201755.461 7  -6390969.640 8
  21660918.560   -12585215.232 8  -9806636.365 9
  25144562.974    -5864661.142 6  -4569860.129 2
  23365566.359     6071015.456 7   4730662.633 5
 91  5  3  0 20  0.0040000  0  4  6 13 12  2
  22449447.674    -8131120.853 7  -6335929.715 8
  21664389.548   -12566965.211 8  -9792415.549 9
  25128763.617    -5947659.586 6  -4634534.197 4
  23377347.594     6132894.341 7   4778879.901 6
 91  5  3  0 20 30.0040000  0  4  6 13 12  2
  22462994.697    -8059951.859 7  -6280473.397 8
  21667961.276   -12548204.891 8  -9777797.119 9
  25112991.237    -6030557.311 6  -4699129.773 3
  23389162.718     6194992.368 7   4827267.935 6
 91  5  3  0 21  0.0040000  0  4  6 13 12  2
  22476637.051    -7988252.295 7  -6224603.637 8
  21671628.649   -12528939.443 8  -9762785.060 9
  25097231.754    -6113355.118 6  -4763647.472 4
  23401016.511     6257306.307 7   4875824.205 6
 91  5  3  0 21 30.0040000  0  4  6 13 12  2
  22490382.238    -7916022.410 7  -6168320.649 8
  21675391.631   -12509169.572 8  -9747379.948 9
  25081499.841    -6196049.669 6  -4828084.716 3
  23412915.570     6319837.467 7   4924549.730 6
 91  5  3  0 22  0.0040000  0  4  6 13 12  2
  22504226.351    -7843263.453 7  -6111625.392 8
  21679247.274   -12488898.084 8  -9731583.976 9
  25065785.013    -6278639.732 6  -4892440.541 3
  23424856.004     6382584.956 7   4973443.836 6
 91  5  3  0 22 30.0040000  0  4  6 13 12  2
  22518173.891    -7769977.932 7  -6054519.824 8
  21683199.435   -12468126.794 8  -9715398.546 9
  25050086.989    -6361123.931 6  -4956713.861 3
  23436838.109     6445548.873 7   5022506.593 6
 91  5  3  0 23  0.0040000  0  4  6 13 12  2
  22532220.967    -7696164.265 7  -5997002.724 8
  21687249.037   -12446855.704 8  -9698823.660 9
  25034413.832    -6443497.720 6  -5020901.178 2
  23448863.089     6508730.553 7   5071739.033 6
 91  5  3  0 23 30.0040000  0  4  6 13 12  2
  22546363.985    -7621823.373 7  -5939074.792 7
  21691390.357   -12425086.317 8  -9681860.487 9
  25018758.072    -6525758.469 6  -5085000.368 4
  23460926.442     6572130.961 7   5121141.917 5
 91  5  3  0 24  0.0040000  0  4  6 13 12  2
  22560610.116    -7546956.571 7  -5880737.066 8
  21695627.933   -12402821.573 8  -9664511.327 9
  25003125.399    -6607903.962 6  -5149009.789 5
  23473033.263     6635749.414 7   5170714.681 6
 91  5  3  0 24 30.0040000  0  4  6 13 12  2
  22574959.378    -7471564.038 7  -5821989.683 7
  21699961.137   -12380061.438 9  -9646776.140 9
  24987514.906    -6689931.029 6  -5212926.906 4
  23485177.550     6699587.403 7   5220458.526 6
 91  5  3  0 25  0.0040000  0  4  6 13 12  2
  22589406.081    -7395644.514 7  -5762831.657 8
  21704383.667   -12356806.187 8  -9628655.158 9
  24971928.999    -6771834.862 6  -5276747.995 3
  23497373.106     6763647.211 7   5270375.226 6
 91  5  3  0 25 30.0050000  0  4  6 13 12  2
  22603951.417    -7319205.234 7  -5703268.616 7
  21708901.846   -12333064.838 9  -9610155.388 9
  24956363.775    -6853624.713 6  -5340480.235 3
  23509599.849     6827922.656 7   5320459.935 6
 91  5  3  0 26  0.0050000  0  4  6 13 12  2
  22618598.065    -7242242.955 7  -5643298.063 7
  21713513.555   -12308831.569 9  -9591272.315 9
  24940826.729    -6935283.584 6  -5404110.423 2
  23521876.949     6892418.584 7   5370716.467 6
 91  5  3  0 26 30.0050000  0  4  6 13 12  2
  22633340.062    -7164758.593 7  -5582920.664 7
  21718219.390   -12284109.240 8  -9572008.153 9
  24925315.161    -7016813.690 6  -5467640.333 4
  23534190.922     6957135.405 7   5421145.132 7
 91  5  3  0 27  0.0050000  0  4  6 13 12  2
  22648186.393    -7086754.467 7  -5522138.268 7
  21723012.773   -12258901.438 8  -9552365.707 9
  24909821.584    -7098214.079 6  -5531069.116 4
  23546546.270     7022072.154 7   5471745.152 6
 91  5  3  0 27 30.0050000  0  4  6 13 12  2
  22663129.834    -7008225.206 7  -5460946.685 8
  21727902.987   -12233203.969 8  -9532341.687 9
  24894355.892    -7179475.590 6  -5594389.668 4
  23558949.570     7087235.171 7   5522521.485 5
 91  5  3  0 28  0.0050000  0  4  6 13 12  2
  22678174.923    -6929181.387 7  -5399354.146 8
  21732883.733   -12207027.775 8  -9511944.645 9
  24878917.492    -7260605.388 6  -5657607.644 3
  23571386.463     7152615.516 7   5573467.165 6
 91  5  3  0 28 30.0050000  0  4  6 13 12  2
  22693309.654    -6849623.850 7  -5337361.294 8
  21737958.919   -12180374.100 9  -9491175.542 9
  24863513.539    -7341600.481 6  -5720720.621 4
  23583868.935     7218214.108 7   5624582.901 6
 91  5  3  0 29  0.0050000  0  4  6 13 12  2
  22708548.703    -6769549.538 7  -5274965.782 7
  21743120.746   -12153240.325 9  -9470032.337 9
  24848119.498    -7422453.851 6  -5783723.173 3
  23596399.046     7284035.390 7   5675872.166 6
 91  5  3  0 29 30.0050000  0  4  6 13 12  2
  22723883.989    -6688959.837 7  -5212168.668 8
  21748375.216   -12125629.509 9  -9448517.402 9
  24832762.644    -7503163.784 6  -5846613.942 3
  23608969.642     7350078.647 7   5727334.407 6
 91  5  3  0 30  0.0050000  0  4  6 13 12  2
  22739319.998    -6607858.921 7  -5148973.192 7
  21753718.717   -12097545.438 9  -9426633.706 9
  24817428.858    -7583730.349 6  -5909393.037 5
  23621569.031     7416341.646 7   5778967.863 6
 91  5  3  0 30 30.0050000  0  4  6 13 12  2
  22754851.041    -6526245.379 7  -5085378.273 7
  21759153.954   -12068988.225 9  -9404381.319 9
  24802131.037    -7664148.748 6  -5972056.645 4
  23634224.767     7482827.041 7   5830774.631 6
 91  5  3  0 31  0.0050000  0  4  6 13 12  2
  22770474.727    -6444123.160 7  -5021386.982 7
  21764674.923   -12039962.050 9  -9381763.516 9
  24786853.319    -7744418.814 6  -6034604.678 3
  23646919.783     7549532.479 7   5882752.839 6
 91  5  3  0 31 30.0050000  0  4  6 13 12  2
  22786200.950    -6361487.688 7  -4956995.759 7
  21770291.241   -12010463.156 9  -9358777.355 9
  24771609.472    -7824532.319 6  -6097030.739 4
  23659658.267     7616463.975 7   5934907.222 6
 91  5  3  0 32  0.0050000  0  4  6 13 12  2
  22802024.581    -6278344.953 7  -4892209.248 7
  21775992.995   -11980498.156 9  -9335427.989 9
  24756389.305    -7904491.392 6  -6159336.420 4
  23672437.812     7683617.112 7   5987234.301 6
 91  5  3  0 32 30.0050000  0  4  6 13 12  2
  22817937.574    -6194698.678 7  -4827030.397 7
  21781783.483   -11950071.419 8  -9311718.838 9
  24741201.822    -7984295.715 6  -6221521.542 4
  23685258.138     7750989.740 7   6039732.411 5
 91  5  3  0 33  0.0050000  0  4  6 13 12  2
  22833953.087    -6110548.988 7  -4761459.267 7
  21787659.425   -11919183.884 9  -9287650.613 9
  24726051.212    -8063941.564 6  -6283583.172 5
  23698116.540     7818583.349 6   6092402.726 6
 91  5  3  0 33 30.0050000  0  4  6 13 12  2
  22850060.633    -6025893.057 7  -4695493.680 7
  21793626.178   -11887833.072 9  -9263221.403 9
  24710926.078    -8143422.181 6  -6345516.058 4
  23711022.599     7886401.914 6   6145248.323 6
 91  5  3  0 34  0.0050000  0  4  6 13 12  2
  22866264.416    -5940731.788 7  -4629134.325 7
  21799680.200   -11856020.662 8  -9238432.497 9
  24695832.129    -8222734.911 6  -6407318.118 4
  23723974.831     7954445.831 6   6198269.506 6
 91  5  3  0 34 30.0050000  0  4  6 13 12  2
  22882564.734    -5855067.888 7  -4562383.330 7
  21805821.751   -11823749.777 9  -9213286.345 9
  24680771.753    -8301877.979 6  -6468987.976 4
  23736962.435     8022714.412 7   6251465.752 6
 91  5  3  0 35  0.0050000  0  4  6 13 12  2
  22898964.868    -5768902.438 7  -4495241.517 7
  21812046.628   -11791022.332 8  -9187784.420 9
  24665749.157    -8380848.475 7  -6530523.373 3
  23749996.212     8091208.372 6   6304837.611 6
 91  5  3  0 35 30.0050000  0  4  6 13 12  2
  22915458.255    -5682234.200 7  -4427707.935 7
  21818364.165   -11757837.321 8  -9161925.970 9
  24650750.835    -8459641.122 7  -6591920.152 3
  23763073.475     8159930.607 6   6358387.345 6
 91  5  3  0 36  0.0050000  0  4  6 13 12  2
  22932043.972    -5595066.690 7  -4359785.296 7
  21824764.731   -11724199.149 9  -9135714.406 9
  24635793.887    -8538255.499 7  -6653178.036 5
  23776195.376     8228878.931 6   6412113.242 6
 91  5  3  0 36 30.0050000  0  4  6 13 12  2
  22948728.020    -5507402.522 7  -4291475.666 7
  21831253.437   -11690110.473 9  -9109151.792 9
  24620865.435    -8616689.948 6  -6714295.730 4
  23789358.965     8298052.415 6   6466014.580 6
 91  5  3  0 37  0.0050000  0  4  6 13 12  2
  22965502.007    -5419240.819 7  -4222778.337 6
  21837821.594   -11655571.943 8  -9082238.638 9
  24605976.228    -8694939.612 6  -6775269.417 5
  23802565.429     8367454.047 6   6520093.722 6
 91  5  3  0 37 30.0050000  0  4  6 13 12  2
  22982370.731    -5330583.267 7  -4153694.632 7
  21844483.878   -11620585.586 9  -9054976.532 9
  24591123.022    -8773002.298 7  -6836097.403 5
  23815818.049     8437083.212 7   6574350.157 6
 91  5  3  0 38  0.0050000  0  4  6 13 12  2
  22999337.787    -5241433.075 7  -4084227.023 6
  21851224.112   -11585154.927 9  -9027368.214 9
  24576303.686    -8850876.512 7  -6896778.544 5
  23829113.841     8506938.952 6   6628783.129 6
 91  5  3  0 38 30.0050000  0  4  6 13 12  2
  23016399.284    -5151789.260 7  -4014374.778 7
  21858051.579   -11549279.621 9  -8999413.417 9
  24561516.424    -8928557.449 7  -6957309.072 5
  23842445.319     8577023.279 7   6683394.240 6
 91  5  3  0 39  0.0050000  0  4  6 13 12  2
  23033550.108    -5061655.243 7  -3944140.571 7
  21864961.499   -11512963.263 9  -8971114.963 9
  24546772.630    -9006044.028 7  -7017688.159 6
  23855825.954     8647334.924 7   6738182.446 6
 91  5  3  0 39 30.0050000  0  4  6 13 12  2
  23050795.670    -4971032.399 7  -3873525.450 6
  21871958.949   -11476207.828 9  -8942474.352 9
  24532064.208    -9083333.321 7  -7077913.488 5
  23869249.168     8717874.184 6   6793148.032 6
 91  5  3  0 40  0.0050000  0  4  6 13 12  2
  23068135.969    -4879920.130 7  -3802528.966 7
  21879036.164   -11439013.257 9  -8913491.570 9
  24517398.365    -9160420.558 7  -7137981.412 5
  23882718.834     8788643.597 6   6848292.941 5
 91  5  3  0 40 30.0050000  0  4  6 13 12  2
  23085562.297    -4788324.020 7  -3731155.451 7
  21886193.406   -11401385.458 9  -8884171.192 9
  24502765.485    -9237307.202 7  -7197893.000 5
  23896221.795     8859639.393 6   6903614.258 6
 91  5  3  0 41  0.0050000  0  4  6 13 12  2
  23103088.162    -4696240.926 7  -3659402.471 7
  21893436.695   -11363322.914 9  -8854512.065 9
  24488176.981    -9313985.512 7  -7257642.265 5
  23909780.195     8930866.630 6   6959115.923 5
 91  5  3  0 41 30.0050000  0  4  6 13 12  2
  23120700.980    -4603679.835 7  -3587277.016 7
  21900760.324   -11324833.962 9  -8824520.676 9
  24473619.974    -9390460.112 7  -7317232.781 5
  23923374.299     9002318.310 6   7014792.492 6
 91  5  3  0 42  0.0050000  0  4  6 13 12  2
  23138405.814    -4510635.718 7  -3514775.173 6
  21908164.888   -11285914.021 9  -8794193.429 9
  24459105.511    -9466721.438 7  -7376657.127 5
  23937019.654     9074000.791 6   7070648.894 5
 91  5  3  0 42 30.0050000  0  4  6 13 12  2
  23156205.089    -4417114.559 7  -3441901.621 6
  21915655.202   -11246570.167 9  -8763535.878 9
  24444631.236    -9542771.922 7  -7435917.141 6
  23950706.069     9145909.382 6   7126681.485 4
 91  5  3  0 43  0.0050000  0  4  6 13 12  2
  23174090.707    -4323117.590 7  -3368657.316 7
  21923221.965   -11206803.808 9  -8732549.095 9
  24430206.712    -9618608.043 7  -7495010.178 5
  23964426.372     9218045.368 6   7182891.269 5
 91  5  3  0 43 30.0050000  0  4  6 13 12  2
  23192067.171    -4228641.888 7  -3295039.951 6
  21930870.867   -11166612.317 9  -8701231.051 9
  24415816.390    -9694222.141 7  -7553930.171 5
  23978198.834     9290413.757 6   7239282.163 5
 91  5  3  0 44  0.0050000  0  4  6 13 12  2
  23210134.760    -4133693.519 7  -3221054.270 7
  21938598.329   -11126002.494 9  -8669587.017 9
  24401472.817    -9769615.704 7  -7612678.331 5
  23992013.578     9363010.180 6   7295850.720 5
 91  5  3  0 44 30.0050000  0  4  6 13 12  2
  23228295.882    -4038277.225 7  -3146703.985 6
  21946403.428   -11084979.192 9  -8637620.811 9
  24387164.615    -9844788.955 7  -7671254.839 4
  24005873.885     9435831.649 6   7352594.641 4
 91  5  3  0 45  0.0050000  0  4  6 13 12  2
  23246535.251    -3942394.387 7  -3071990.162 6
  21954287.070   -11043544.556 9  -8605334.064 9
  24372901.086    -9919738.893 7  -7729657.312 5
  24019771.064     9508878.748 6   7409514.389 6
 91  5  3  0 45 30.0050000  0  4  6 13 12  2
  23264875.063    -3846046.164 7  -2996913.695 6
  21962251.942   -11001699.988 9  -8572727.896 9
  24358681.934    -9994461.899 7  -7787882.976 5
  24033715.306     9582152.470 6   7466610.716 5
 91  5  3  0 46  0.0050000  0  4  6 13 12  2
  23283300.312    -3749231.031 7  -2921473.406 6
  21970293.875   -10959444.411 9  -8539801.459 9
  24344510.455   -10068952.308 7  -7845927.392 5
  24047699.422     9655655.982 6   7523886.132 5
 91  5  3  0 46 30.0050000  0  4  6 13 12  2
  23301810.090    -3651952.946 7  -2845672.395 6
  21978412.868   -10916781.951 9  -8506557.969 9
  24330380.333   -10143209.141 7  -7903789.796 5
  24061731.212     9729387.776 6   7581339.396 5
 91  5  3  0 47  0.0050000  0  4  6 13 12  2
  23320410.120    -3554208.577 7  -2769508.034 7
  21986607.682   -10873709.720 9  -8472995.179 9
  24316296.384   -10217224.555 7  -7961464.085 4
  24075805.860     9803352.486 6   7638974.164 5
 91  5  3  0 47 30.0050000  0  4  6 13 12  2
  23339098.273    -3455999.201 7  -2692981.331 6
  21994881.965   -10830229.544 9  -8439114.504 9
  24302250.198   -10290995.127 7  -8018947.595 5
  24089935.388     9877551.322 6   7696791.353 5
 91  5  3  0 48  0.0050000  0  4  6 13 12  2
  23357873.975    -3357332.523 7  -2616098.284 6
  22003230.585   -10786349.470 9  -8404922.239 9
  24288260.079   -10364524.267 7  -8076242.983 5
  24104092.785     9951978.284 6   7754786.319 5
 91  5  3  0 48 30.0050000  0  4  6 13 12  2
  23376738.428    -3258210.420 7  -2538860.359 7
  22011657.749   -10742071.456 9  -8370419.884 9
  24274316.134   -10437809.082 7  -8133347.985 4
  24118301.153    10026633.437 6   7812959.087 5
 91  5  3  0 49  0.0050000  0  4  6 13 12  2
  23395683.204    -3158635.474 7  -2461269.577 6
  22020157.157   -10697398.279 9  -8335609.607 9
  24260418.362   -10510847.374 7  -8190260.902 6
  24132552.083    10101516.502 6   7871309.460 5
 91  5  3  0 49 30.0050000  0  4  6 13 12  2
  23414722.125    -3058604.016 7  -2383323.062 7
  22028735.422   -10652326.849 9  -8300489.004 9
  24246567.949   -10583630.772 7  -8246975.201 5
  24146843.794    10176633.104 6   7929841.818 5
 91  5  3  0 50  0.0050000  0  4  6 13 12  2
  23433844.684    -2958120.034 7  -2305023.940 6
  22037388.340   -10606861.633 9  -8265061.563 9
  24232766.712   -10656158.483 7  -8303490.262 6
  24161177.769    10251981.084 6   7988554.449 5
 91  5  3  0 50 30.0050000  0  4  6 13 12  2
  23453044.897    -2857184.583 7  -2226373.016 6
  22046114.094   -10561004.402 9  -8229328.639 9
  24219015.818   -10728427.055 7  -8359803.385 4
  24175561.809    10327561.400 6   8047448.137 5
 91  5  3  0 51  0.0050000  0  4  6 13 12  2
  23472340.737    -2755800.676 7  -2147372.661 6
  22054915.094   -10514758.100 9  -8193292.555 9
  24205305.112   -10800434.415 7  -8415912.967 6
  24189987.224    10403373.150 6   8106522.164 5
 91  5  3  0 51 30.0050000  0  4  6 13 12  2
  23491721.420    -2653967.509 7  -2068022.218 6
  22063787.762   -10468122.026 9  -8156952.762 9
  24191658.571   -10872174.752 7  -8471814.495 5
  24204459.701    10479419.327 6   8165778.868 5
 91  5  3  0 52  0.0050000  0  4  6 13 12  2
  23511182.147    -2551693.933 7  -1988328.608 6
  22072735.064   -10421105.288 9  -8120316.333 9
  24178056.684   -10943652.299 7  -8527511.243 5
  24218973.257    10555693.030 6   8225212.848 4
 91  5  3  0 52 30.0050000  0  4  6 13 12  2
  23530728.310    -2448977.962 7  -1908290.279 6
  22081756.426   -10373705.938 9  -8083381.776 9
  24164506.363   -11014859.849 7  -8582997.606 5
  24233533.875    10632198.535 6   8284827.423 5
 91  5  3  0 53  0.0050000  0  4  6 13 12  2
  23550354.535    -2345821.692 7  -1827908.859 6
  22090848.216   -10325926.706 9  -8046151.190 9
  24151010.295   -11085795.172 7  -8638271.823 5
  24248138.870    10708935.692 6   8344622.554 5
 91  5  3  0 53 30.0050000  0  4  6 13 12  2
  23570071.275    -2242228.506 7  -1747186.991 6
  22100010.488   -10277771.299 9  -8008627.504 9
  24137562.215   -11156456.445 7  -8693332.525 5
  24262782.517    10785903.669 6   8404597.514 4
 91  5  3  0 54  0.0050000  0  4  6 13 12  2
  23589870.170    -2138196.540 7  -1666123.228 6
  22109246.190   -10229237.969 9  -7970809.324 9
  24124169.278   -11226837.102 7  -8748174.563 5
  24277475.356    10863106.135 6   8464755.220 5
 91  5  3  0 54 30.0050000  0  4  6 13 12  2
  23609749.405    -2033729.368 7  -1584720.332 6
  22118554.450   -10180330.035 9  -7932699.245 9
  24110829.720   -11296935.601 7  -8802796.727 5
  24292209.849    10940541.632 6   8525094.498 5
 91  5  3  0 55  0.0050000  0  4  6 13 12  2
  23629709.296    -1928826.142 7  -1502977.648 5
  22127930.749   -10131047.268 9  -7894297.091 9
  24097543.526   -11366746.655 7  -8857194.895 5
  24306989.328    11018213.009 6   8585617.576 5
 91  5  3  0 55 30.0050000  0  4  6 13 12  2
  23649752.215    -1823494.898 7  -1420901.451 6
  22137379.012   -10081398.266 9  -7855609.564 9
  24084314.568   -11436273.453 7  -8911371.567 6
  24321812.852    11096114.635 6   8646320.068 4
 91  5  3  0 56  0.0050000  0  4  6 13 12  2
  23669878.476    -1717736.002 6  -1338492.011 5
  22146896.815   -10031383.336 9  -7816636.906 9
  24071136.897   -11505511.018 7  -8965322.864 6
  24336681.659    11174248.480 6   8707203.526 4
 91  5  3  0 56 30.0050000  0  4  6 13 12  2
  23690086.299    -1611547.661 6  -1255747.944 5
  22156482.690    -9981000.513 9  -7777377.563 9
  24058015.886   -11574452.433 7  -9019043.393 6
  24351598.733    11252617.826 6   8768270.444 4
 91  5  3  0 57  0.0050000  0  4  6 13 12  2
  23710375.353    -1504935.667 6  -1172673.759 6
  22166142.607    -9930255.884 9  -7737836.307 9
  24044956.614   -11643098.619 7  -9072533.869 5
  24366555.088    11331219.382 6   8829518.341 5
 91  5  3  0 57 30.0050000  0  4  6 13 12  2
  23730741.746    -1397902.316 6  -1089271.262 5
  22175865.467    -9879151.961 9  -7698015.079 9
  24031949.536   -11711446.839 7  -9125792.166 6
  24381550.706    11410052.993 6   8890947.052 5
 91  5  3  0 58  0.0050000  0  4  6 13 12  2
  23751191.796    -1290451.743 6  -1005543.640 5
  22185659.385    -9827693.184 9  -7657917.338 9
  24019000.899   -11779496.330 7  -9178817.687 6
  24396597.296    11489116.812 6   8952555.163 4
 91  5  3  0 58 30.0050000  0  4  6 13 12  2
  23771718.575    -1182583.650 6   -921490.684 6
  22195515.966    -9775879.119 9  -7617542.747 9
  24006108.311   -11847241.581 7  -9231606.143 6
  24411688.541    11568413.371 6   9014344.598 5
 91  5  3  0 59  0.0050000  0  4  6 13 12  2
  23792321.820    -1074297.927 7   -837112.304 6
  22205445.698    -9723710.039 9  -7576891.521 9
  23993277.201   -11914677.519 7  -9284153.569 6
  24426824.161    11647945.303 6   9076317.459 5
 91  5  3  0 59 30.0050000  0  4  6 13 12  2
  23813007.797     -965598.224 6   -752411.357 6
  22215441.078    -9671189.808 9  -7535966.664 9
  23980503.345   -11981802.877 7  -9336458.982 6
  24442004.455    11727711.087 6   9138472.525 5
 91  5  3  1  0  0.0050000  0  4  6 13 12  2
  23833769.926     -856486.192 6   -667389.087 6
  22225501.198    -9618320.007 9  -7494769.431 9
  23967790.338   -12048613.963 7  -9388519.524 6
  24457233.016    11807711.062 6   9200810.098 4
 91  5  3  1  0 30.0050000  0  4  6 13 12  2
  23854608.505     -746968.307 6   -582050.580 6
  22235625.797    -9565106.597 9  -7453304.436 9
  23955137.011   -12115112.231 7  -9440336.310 6
  24472496.040    11887941.109 6   9263326.921 4
 91  5  3  1  1  0.0050000  0  4  6 13 12  2
  23875527.425     -637046.474 6   -496397.300 5
  22245814.840    -9511552.353 9  -7411573.863 9
  23942541.217   -12181294.711 7  -9491907.016 7
  24487806.443    11968401.343 6   9326023.126 5
 91  5  3  1  1 30.0050000  0  4  6 13 12  2
  23896519.478     -526718.345 6   -410427.442 5
  22256075.847    -9457654.945 9  -7369575.884 9
  23930003.305   -12247153.500 7  -9543225.526 6
  24503163.018    12049096.243 6   9388902.157 4
 91  5  3  1  2  0.0050000  0  4  6 13 12  2
  23917598.783     -415988.061 6   -324144.216 5
  22266395.295    -9403418.217 9  -7327313.500 9
  23917533.432   -12312687.842 8  -9594291.201 6
  24518563.045    12130024.498 6   9451963.047 5
 91  5  3  1  2 30.0050000  0  4  6 13 12  2
  23938744.660     -304863.083 6   -237553.436 5
  22276779.815    -9348849.552 9  -7284792.455 9
  23905131.318   -12377900.188 8  -9645105.979 7
  24534008.355    12211180.619 6   9515201.494 5
 91  5  3  1  3  0.0050000  0  4  6 13 12  2
  23959965.468     -193342.881 6   -150654.678 5
  22287225.184    -9293949.053 9  -7242012.851 9
  23892780.769   -12442784.736 8  -9695665.329 7
  24549489.943    12292567.716 6   9578619.913 5
 91  5  3  1  3 30.0050000  0  4  6 13 12  2
  23981261.819      -81427.903 6    -63448.322 6
  22297736.200    -9238716.692 9  -7198974.643 9
  23880496.182   -12507336.949 8  -9745965.720 7
  24565024.581    12374187.140 6   9642219.376 5
 91  5  3  1  4  0.0050000  0  4  6 13 12  2
  24002630.431       30881.816 6     24065.644 5
  22308308.676    -9183152.464 9  -7155677.848 9
  23868279.930   -12571551.365 8  -9796002.889 6
  24580591.309    12456041.065 6   9706001.566 5
 91  5  3  1  4 30.0050000  0  4  6 13 12  2
  24024075.474      143579.717 6    111882.077 5
  22318945.910    -9127263.228 9  -7112127.799 9
  23856117.652   -12635429.492 8  -9845777.995 7
  24596220.998    12538125.567 6   9769963.391 5
 91  5  3  1  5  0.0050000  0  4  6 13 12  2
  24045594.873      256667.283 6    200002.148 6
  22329641.602    -9071047.207 9  -7068323.099 9
  23844029.118   -12698964.391 7  -9895285.671 7
  24611880.353    12620444.454 6   9834107.896 4
 91  5  3  1  5 30.0050000  0  4  6 13 12  2
  24067191.926      370139.735 6    288422.119 5
  22340403.553    -9014509.461 9  -7024267.711 8
  23832005.953   -12762155.804 8  -9944525.693 7
  24627595.164    12702995.072 6   9898432.958 4
 91  5  3  1  6  0.0050000  0  4  6 13 12  2
  24088855.534      483994.600 6    377140.083 5
  22351219.477    -8957652.196 9  -6979963.353 9
  23820046.621   -12825000.901 8  -9993495.869 6
  24643348.365    12785777.506 6   9962938.622 3
 91  5  3  1  6 30.0050000  0  4  6 13 12  2
  24110593.183      598234.428 6    466158.008 5
  22362101.642    -8900472.727 9  -6935407.932 9
  23808156.863   -12887491.907 8 -10042190.116 6
  24659150.724    12868796.715 6  10027628.834 3
 91  5  3  1  7  0.0050000  0  4  6 13 12  2
  24132408.485      712852.014 6    555470.295 5
  22373042.266    -8842978.579 9  -6890607.297 9
  23796332.142   -12949631.013 8 -10090610.154 7
  24674991.752    12952047.401 6  10092499.396 3
 91  5  3  1  7 30.0050000  0  4  6 13 12  2
  24154289.732      827843.973 6    645074.305 5
  22384044.349    -8785172.891 9  -6845563.903 9
  23784572.475   -13011416.377 8 -10138754.547 7
  24690872.672    13035528.557 6  10157549.556 2
 91  5  3  1  8  0.0050000  0  4  6 13 12  2
  24176239.331      943212.588 6    734971.793 5
  22395104.000    -8727053.073 9  -6800275.738 9
  23772885.680   -13072840.070 8 -10186617.107 7
  24706806.640    13119245.211 6  10222783.196 4
 91  5  3  1  8 30.0050000  0  4  6 13 12  2
  24198271.383     1058951.595 6    825157.923 5
  22406220.295    -8668625.212 9  -6754747.546 9
  23761266.016   -13133903.217 8 -10234198.744 6
  24722780.168    13203193.138 6  10288197.075 3
 91  5  3  1  9  0.0050000  0  4  6 13 12  2
  24220362.800     1175059.074 6    915631.163 5
  22417398.067    -8609891.257 9  -6708980.832 9
  23749718.317   -13194602.466 8 -10281496.807 7
  24738798.980    13287372.641 6  10353791.375 3
 91  5  3  1  9 30.0050000  0  4  6 13 12  2
  24242525.851     1291531.054 6   1006388.404 5
  22428632.482    -8550855.300 9  -6662978.796 9
  23738233.561   -13254936.560 8 -10328510.335 7
  24754860.963    13371782.184 6  10419564.925 3
 91  5  3  1 10  0.0050000  0  4  6 13 12  2
  24264758.161     1408366.225 6   1097428.666 4
  22439922.668    -8491518.470 9  -6616742.303 9
  23726824.068   -13314901.373 8 -10375236.100 6
  24770969.416    13456423.308 6  10485518.961 5
 91  5  3  1 10 30.0050000  0  4  6 13 12  2
  24287064.216     1525563.863 6   1188751.374 5
  22451273.703    -8431881.401 9  -6570271.868 9
  23715480.816   -13374492.338 8 -10421670.567 7
  24787116.242    13541297.270 6  10551654.415 3
 91  5  3  1 11  0.0050000  0  4  6 13 12  2
  24309433.231     1643119.948 6   1280353.373 5
  22462677.211    -8371947.602 9  -6523570.211 9
  23704211.308   -13433708.072 8 -10467812.639 7
  24803315.523    13626402.341 6  10617969.956 3
 91  5  3  1 11 30.0050000  0  4  6 13 12  2
  24331871.803     1761032.658 6   1372233.260 5
  22474140.085    -8311718.837 9  -6476638.726 9
  23693014.969   -13492545.083 8 -10513659.612 7
  24819551.974    13711738.969 6  10684465.914 4
 91  5  3  1 12  0.0050000  0  4  6 13 12  2
  24354376.913     1879298.491 6   1464388.336 5
  22485654.210    -8251198.544 9  -6429480.077 9
  23681898.657   -13551001.781 8 -10559210.237 7
  24835832.817    13797306.110 6  10751141.477 4
 91  5  3  1 12 30.0050000  0  4  6 13 12  2
  24376948.891     1997916.189 6   1556817.564 3
  22497227.997    -8190387.606 9  -6382094.949 9
  23670840.820   -13609074.201 8 -10604461.417 8
  24852165.209    13883104.702 6  10817997.398 4
 91  5  3  1 13  0.0050000  0  4  6 13 12  2
  24399584.720     2116885.664 6   1649520.912 4
  22508854.850    -8129285.895 9  -6334483.244 9
  23659867.513   -13666756.691 8 -10649408.757 7
  24868529.378    13969137.424 6  10885035.784 3
 91  5  3  1 13 30.0050000  0  4  6 13 12  2
  24422290.700     2236201.785 6   1742494.353 5
  22520535.659    -8067898.276 9  -6286648.741 8
  23648962.872   -13724049.274 8 -10694052.288 7
  24884952.912    14055401.400 6  10952254.391 2
 91  5  3  1 14  0.0050000  0  4  6 13 12  2
  24445064.141     2355864.176 6   1835737.642 4
  22532270.739    -8006225.440 9  -6238592.004 9
  23638138.850   -13780946.992 8 -10738388.127 7
  24901409.409    14141898.555 6  11019654.637 3
 91  5  3  1 14 30.0050000  0  4  6 13 12  2
  24467903.230     2475869.147 6   1929247.860 4
  22544060.664    -7944270.319 9  -6190315.300 8
  23627386.201   -13837447.989 8 -10782414.820 7
  24917909.986    14228627.802 6  11087235.750 3
 91  5  3  1 15  0.0050000  0  4  6 13 12  2
  24490800.167     2596212.014 6   2023021.381 4
  22555904.581    -7882037.565 9  -6141822.262 9
  23616712.984   -13893551.825 8 -10826132.058 8
  24934459.441    14315586.421 6  11154995.583 4
 91  5  3  1 15 30.0050000  0  4  6 13 12  2
  24513768.179     2716891.911 6   2117057.515 4
  22567797.044    -7819527.415 9  -6093113.053 8
  23606107.824   -13949253.683 8 -10869536.063 8
  24951055.349    14402776.259 6  11222935.617 3
 91  5  3  1 16  0.0050000  0  4  6 13 12  2
  24536797.022     2837902.199 6   2211351.102 4
  22579746.168    -7756746.453 9  -6044192.852 9
  23595586.023   -14004555.076 8 -10912628.011 8
  24967686.034    14490193.010 6  11291052.429 3
 91  5  3  1 16 30.0050000  0  4  6 13 12  2
  24559885.841     2959243.495 6   2305902.599 4
  22591747.153    -7693693.808 9  -5995060.921 8
  23585142.138   -14059449.979 8 -10955403.214 7
  24984366.488    14577839.659 6  11359348.408 4
 91  5  3  1 17  0.0050000  0  4  6 13 12  2
  24583038.511     3080915.215 6   2400711.583 5
  22603794.923    -7630369.831 9  -5945717.571 7
  23574770.234   -14113933.777 8 -10997858.079 8
  25001089.503    14665718.079 6  11427824.981 4
 91  5  3  1 17 30.0050000  0  4  6 13 12  2
  24606252.343     3202912.854 6   2495774.525 4
  22615895.445    -7566778.927 9  -5896166.212 9
  23564481.045   -14168005.361 8 -11039991.749 8
  25017855.707    14753826.178 6  11496480.522 3
 91  5  3  1 18  0.0050000  0  4  6 13 12  2
  24629530.323     3325238.389 6   2591092.959 5
  22628048.126    -7502918.630 9  -5846404.953 9
  23554273.715   -14221657.488 8 -11081798.559 7
  25034665.362    14842168.172 5  11565318.326 3
 91  5  3  1 18 30.0050000  0  4  6 13 12  2
  24652870.076     3447881.896 6   2686659.179 5
  22640251.185    -7438798.505 9  -5796441.227 9
  23544141.630   -14274894.785 8 -11123282.132 8
  25051526.897    14930736.629 5  11634332.560 3
 91  5  3  1 19  0.0050000  0  4  6 13 12  2
  24676268.567     3570842.442 6   2782472.412 5
  22652500.697    -7374418.710 9  -5746275.147 8
  23534087.791   -14327712.765 8 -11164438.971 8
  25068417.800    15019533.194 5  11703524.557 4
 91  5  3  1 19 30.0050000  0  4  6 13 12  2
  24699725.831     3694117.299 6   2878530.587 4
  22664799.977    -7309782.097 9  -5695908.951 9
  23524119.389   -14380108.620 8 -11205266.867 9
  25085359.065    15108557.318 5  11772893.871 4
 91  5  3  1 20  0.0050000  0  4  6 13 12  2
  24723246.054     3817703.127 6   2974831.051 6
  22677150.840    -7244891.373 9  -5645344.760 8
  23514228.344   -14432080.122 8 -11245764.105 8
  25102345.316    15197807.924 5  11842439.660 4
 91  5  3  1 20 30.0050000  0  4  6 13 12  2
  24746819.641     3941595.065 6   3071370.044 5
  22689546.061    -7179751.158 9  -5594586.148 8
  23504421.531   -14483626.877 8 -11285930.372 8
  25119375.612    15287282.767 5  11912160.234 2
 91  5  3  1 21  0.0050000  0  4  6 13 12  2
  24770450.481     4065791.038 6   3168145.950 5
  22701986.548    -7114362.748 9  -5543634.139 8
  23494694.169   -14534745.462 8 -11325763.006 9
  25136441.908    15376982.212 5  11982055.755 2
 91  5  3  1 21 30.0060000  0  4  6 13 12  2
  24794143.971     4190292.975 6   3265160.272 5
  22714477.400    -7048726.214 9  -5492488.793 8
  23485049.245   -14585434.660 8 -11365261.049 9
  25153554.955    15466909.370 5  12052128.745 3
 91  5  3  1 22  0.0060000  0  4  6 13 12  2
  24817898.028     4315091.391 6   3362405.622 5
  22727015.015    -6982846.678 9  -5441154.092 7
  23475484.065   -14635686.825 8 -11404418.551 8
  25170708.781    15557059.821 5  12122375.728 2
 91  5  3  1 22 30.0060000  0  4  6 13 12  2
  24841700.945     4440189.797 6   3459884.710 4
  22739596.098    -6916722.216 9  -5389628.546 8
  23466007.917   -14685498.750 8 -11443233.011 8
  25187907.576    15647437.813 5  12192800.000 3
 91  5  3  1 23  0.0060000  0  4  6 13 12  2
  24865562.931     4565581.016 6   3557591.999 3
  22752226.967    -6850358.980 9  -5337916.920 8
  23456607.031   -14734872.252 8 -11481705.847 9
  25205144.744    15738038.463 5  12263397.771 3
 91  5  3  1 23 30.0060000  0  4  6 13 12  2
  24889478.873     4691266.941 6   3655528.895 4
  22764900.694    -6783755.294 9  -5286017.955 8
  23447299.067   -14783800.170 8 -11519831.465 9
  25222429.272    15828866.278 5  12334172.536 3
 91  5  3  1 24  0.0060000  0  4  6 13 12  2
  24913450.883     4817243.655 6   3753692.372 4
  22777621.484    -6716914.139 9  -5233933.939 8
  23438077.150   -14832281.073 8 -11557608.755 8
  25239753.988    15919920.113 5  12405123.416 4
 91  5  3  1 24 30.0060000  0  4  6 13 12  2
  24937473.551     4943508.270 6   3852080.215 3
  22790386.039    -6649838.163 9  -5181666.947 8
  23428931.090   -14880312.441 8 -11595035.764 9
  25257129.955    16011199.036 5  12476249.723 3
 91  5  3  1 25  0.0060000  0  4  6 13 12  2
  24961561.570     5070056.426 6   3950688.968 4
  22803191.672    -6582531.386 9  -5129220.120 8
  23419877.062   -14927893.063 8 -11632111.549 9
  25274542.794    16102701.447 5  12547550.161 3
 91  5  3  1 25 30.0060000  0  4  6 13 12  2
  24985692.464     5196889.770 6   4049519.948 2
  22816042.885    -6514991.702 9  -5076591.813 7
  23410914.456   -14975016.238 8 -11668830.873 9
  25291997.008    16194431.407 5  12619027.892 4
 91  5  3  1 26  0.0060000  0  4  6 13 12  2
  25009887.208     5324005.701 6   4148571.139 4
  22828939.346    -6447220.926 9  -5023783.420 8
  23402032.504   -15021679.066 8 -11705191.500 9
  25309492.003    16286388.530 5  12690682.669 4
 91  5  3  1 26 30.0060000  0  4  6 13 12  2
  25034128.440     5451398.806 6   4247838.278 2
  22841879.590    -6379223.817 9  -4970798.666 8
  23393240.788   -15067881.510 8 -11741193.392 9
  25327037.953    16378569.549 5  12762511.892 2
 91  5  3  1 27  0.0060000  0  4  6 13 12  2
  25058424.221     5579068.971 6   4347321.345 3
  22854863.302    -6311000.532 9  -4917637.677 7
  23384535.118   -15113618.427 8 -11776832.517 9
  25344621.385    16470976.941 5  12834517.510 3
 91  5  3  1 27 30.0060000  0  4  6 13 12  2
  25082767.362     5707010.640 6   4447015.958 4
  22867887.499    -6242555.434 9  -4864303.842 7
  23375924.780   -15158890.027 8 -11812109.065 9
  25362245.285    16563607.622 5  12906697.110 2
 91  5  3  1 28  0.0060000  0  4  6 13 12  2
  25107167.164     5835223.333 6   4546921.745 4
  22880953.350    -6173888.753 9  -4810797.346 8
  23367396.282   -15203691.386 8 -11847019.200 9
  25379915.952    16656463.547 5  12979052.229 4
 91  5  3  1 28 30.0060000  0  4  6 13 12  2
  25131617.641     5963703.235 6   4647035.745 4
  22894061.779    -6105003.403 9  -4757120.451 8
  23358961.022   -15248021.020 8 -11881561.740 9
  25397633.978    16749543.363 5  13051581.812 3
 91  5  3  1 29  0.0060000  0  4  6 13 12  2
  25156113.681     6092447.811 6   4747355.994 2
  22907211.565    -6035901.690 9  -4703274.989 8
  23350616.310   -15291876.161 8 -11915734.569 9
  25415380.500    16842846.956 5  13124285.777 2
 91  5  3  1 29 30.0060000  0  4  6 13 12  2
  25180664.287     6221447.807 6   4847875.257 4
  22920399.445    -5966592.779 9  -4649268.048 8
  23342358.815   -15335260.847 8 -11949540.803 9
  25433183.666    16936366.775 5  13197158.196 3
 91  5  3  1 30  0.0060000  0  4  6 13 12  2
  25205262.865     6350705.959 6   4948595.676 4
  22933629.572    -5897072.155 9  -4595096.153 7
  23334195.481   -15378166.984 9 -11982974.134 9
  25451021.628    17030108.692 5  13270203.679 2
 91  5  3  1 30 30.0060000  0  4  6 13 12  2
  25229908.505     6480219.877 6   5049515.408 3
  22946898.386    -5827342.117 9  -4540761.072 7
  23326122.364   -15420591.707 9 -12016032.348 9
  25468905.448    17124072.615 5  13343422.131 4
 91  5  3  1 31  0.0060000  0  4  6 13 12  2
  25254605.100     6609986.553 5   5150632.095 3
  22960209.778    -5757405.360 9  -4486264.919 8
  23318141.594   -15462532.630 9 -12048713.570 9
  25486822.233    17218257.623 5  13416812.905 3
 91  5  3  1 31 30.0060000  0  4  6 13 12  2
  25279341.273     6740004.148 5   5251944.282 4
  22973555.931    -5687262.962 9  -4431608.508 7
  23310250.152   -15503986.121 9 -12081014.969 9
  25504783.114    17312664.380 5  13490376.445 3
 91  5  3  1 32  0.0060000  0  4  6 13 12  2
  25304127.510     6870268.436 5   5353448.699 2
  22986943.477    -5616918.411 9  -4376794.599 7
  23302459.747   -15544951.036 9 -12112935.667 9
  25522803.325    17407291.021 5  13564111.362 2
 91  5  3  1 32 30.0060000  0  4  6 13 12  2
  25328962.328     7000776.697 5   5455143.250 2
  23000368.174    -5546373.617 9  -4321824.634 7
  23294755.668   -15585425.154 8 -12144473.909 9
  25540851.143    17502137.109 5  13638017.230 2
 91  5  3  1 33  0.0060000  0  4  6 13 12  2
  25353835.205     7131522.280 5   5557022.705 2
  23013829.149    -5475634.846 9  -4266703.529 7
  23287146.937   -15625409.803 8 -12175630.762 9
  25558933.111    17597198.287 5  13712090.727 2
 91  5  3  1 33 30.0060000  0  4  6 13 12  2
  25378770.135     7262502.069 5   5659084.644 2
  23027325.811    -5404704.132 9  -4211432.855 7
  23279630.552   -15664902.583 8 -12206404.329 9
  25577058.268    17692474.320 5  13786331.643 2
 91  5  3  1 34  0.0060000  0  4  6 13 12  2
  25403746.458     7393718.699 6   5761331.159 2
  23040859.938    -5333577.938 9  -4156009.859 7
  23272210.684   -15703895.663 8 -12236788.519 9
  25595232.583    17787969.973 5  13860743.689 3
 91  5  3  1 34 30.0060000  0  4  6 13 12  2
  25428755.446     7525168.266 6   5863759.152 2
  23054431.845    -5262259.637 9  -4100437.169 8
  23264883.757   -15742387.667 8 -12266782.267 9
  25613453.367    17883683.354 5  13935325.363 2
 91  5  3  1 35  0.0060000  0  4  6 13 12  2
  25453815.687     7656849.451 5   5966367.632 2
  23068039.734    -5190749.804 9  -4044715.230 7
  23257657.866   -15780374.338 8 -12296382.241 9
  25631709.541    17979616.097 5  14010077.972 3
 91  5  3  1 35 30.0060000  0  4  6 13 12  2
  25478915.522     7788757.831 5   6069153.182 3
  23081681.180    -5119052.637 9  -3988847.325 7
  23250525.194   -15817855.132 8 -12325588.023 9
  25650007.071    18075765.701 5  14084999.562 2
 91  5  3  1 36  0.0060000  0  4  6 13 12  2
  25504065.107     7920890.502 5   6172113.458 2
  23095360.423    -5047170.164 9  -3932835.015 7
  23243487.574   -15854827.953 8 -12354397.979 9
  25668339.973    18172131.623 5  14160089.721 4
 91  5  3  1 36 30.0060000  0  4  6 13 12  2
  25529247.062     8053244.200 5   6275245.964 2
  23109076.224    -4975104.893 9  -3876680.276 7
  23236551.566   -15891290.544 8 -12382810.348 9
  25686717.548    18268712.970 5  14235347.713 3
 91  5  3  1 37  0.0060000  0  4  6 13 12  2
  25554479.693     8185820.486 5   6378551.871 2
  23122824.099    -4902854.905 9  -3820381.599 6
  23229710.609   -15927236.310 8 -12410820.006 9
  25705144.297    18365513.733 5  14310776.715 3
 91  5  3  1 37 30.0060000  0  4  6 13 12  2
  25579739.023     8318609.833 5   6482023.868 2
  23136603.768    -4830428.175 9  -3763945.208 7
  23222971.876   -15962669.597 8 -12438430.313 9
  25723605.825    18462526.748 5  14386371.099 3
 91  5  3  1 38  0.0060000  0  4  6 13 12  2
  25605052.292     8451609.996 5   6585660.125 3
  23150421.497    -4757826.177 9  -3707372.225 7
  23216324.268   -15997587.420 8 -12465638.977 9
  25742106.005    18559751.998 5  14462130.831 3
 91  5  3  1 38 30.0060000  0  4  6 13 12  2
  25630406.044     8584820.182 5   6689459.969 4
  23164269.204    -4685048.847 9  -3650662.639 7
  23209777.697   -16031985.653 8 -12492442.757 9
  25760648.781    18657191.206 5  14538057.289 2
 91  5  3  1 39  0.0060000  0  4  6 13 12  2
  25655792.761     8718234.343 5   6793418.795 2
  23178152.597    -4612101.856 9  -3593820.835 8
  23203331.272   -16065865.548 9 -12518842.647 9
  25779225.410    18754840.525 5  14614147.501 3
 91  5  3  1 39 30.0060000  0  4  6 13 12  2
  25681219.054     8851855.435 5   6897538.830 4
  23192064.766    -4538981.249 8  -3536843.763 7
  23196984.070   -16099218.613 9 -12544832.018 9
  25797849.713    18852705.103 4  14690405.401 4
 91  5  3  1 40  0.0060000  0  4  6 13 12  2
  25706681.627     8985676.791 5   7001814.912 2
  23206012.306    -4465692.975 8  -3479736.019 7
  23190736.682   -16132046.447 9 -12570412.118 9
  25816516.595    18950780.394 4  14766827.520 2
 91  5  3  1 40 30.0060000  0  4  6 13 12  2
  25732188.872     9119696.283 5   7106245.423 3
  23219987.732    -4392237.929 8  -3422498.346 7
  23184588.848   -16164345.810 8 -12595580.431 9
  25835217.959    19049066.702 4  14843414.101 4
 91  5  3  1 41  0.0060000  0  4  6 13 12  2
  25757720.407     9253908.489 5   7210826.084 4
  23234001.234    -4318620.692 9  -3365134.283 7
  23178544.721   -16196117.077 9 -12620337.232 9
  25853967.572    19147561.061 4  14920162.740 1
 91  5  3  1 41 30.0060000  0  4  6 13 12  2
  25783310.681     9388312.116 5   7315555.889 3
  23248038.119    -4244842.198 8  -3307644.568 7
  23172596.239   -16227356.492 8 -12644679.605 9
  25872750.166    19246264.506 4  14997074.309 2
 91  5  3  1 42  0.0060000  0  4  6 13 12  2
  25808919.259     9522908.513 5   7420435.895 4
  23262107.986    -4170900.164 8  -3250027.413 8
  23166759.594   -16258057.563 8 -12668602.500 9
  25891566.335    19345181.064 4  15074152.036 2
 91  5  3  1 42 30.0060000  0  4  6 13 12  2
  25834561.098     9657691.884 5   7525461.604 4
  23276213.206    -4096799.416 8  -3192286.604 7
  23161019.467   -16288221.182 9 -12692106.590 9
  25910418.189    19444306.481 4  15151392.424 2
 91  5  3  1 43  0.0060000  0  4  6 13 12  2
  25860253.018     9792654.960 5   7630627.339 4
  23290341.530    -4022546.192 8  -3134426.964 7
  23155377.358   -16317849.487 8 -12715193.567 9
  25929330.595    19543635.997 4  15228791.873 2
 91  5  3  1 43 30.0060000  0  4  6 13 12  2
  25885967.118     9927795.375 5   7735931.259 1
  23304501.021    -3948141.691 9  -3076449.448 7
  23149844.994   -16346939.420 9 -12737861.024 9
  25948265.792    19643169.859 4  15306350.493 3
 91  5  3  1 44  0.0060000  0  4  6 13 12  2
  25911718.998    10063116.105 5   7841375.686 3
  23318689.601    -3873582.310 8  -3018351.243 8
  23144412.462   -16375483.365 8 -12760103.046 9
  25967252.239    19742913.141 4  15384072.342 1
 91  5  3  1 44 30.0060000  0  4  6 13 12  2
  25937496.948    10198613.426 5   7946957.682 2
  23332904.566    -3798870.865 9  -2960134.556 8
  23139083.950   -16403480.283 9 -12781918.816 9
  25986272.279    19842864.088 4  15461955.996 2
 91  5  3  1 45  0.0060000  0  4  6 13 12  2
  25963312.678    10334278.497 5   8052670.470 1
  23347148.306    -3724015.078 9  -2901805.392 7
  23133858.256   -16430933.998 8 -12803311.303 9
  26005333.675    19943016.230 4  15539996.477 2
 91  5  3  1 45 30.0060000  0  4  6 13 12  2
  25989163.169    10470114.417 5   8158516.287 2
  23361421.433    -3649011.262 8  -2843360.879 7
  23128740.805   -16457836.374 8 -12824274.187 9
  26024433.462    20043374.998 4  15618197.901 2
 91  5  3  1 46  0.0060000  0  4  6 13 12  2
  26015046.955    10606111.571 5   8264487.817 2
  23375724.224    -3573867.851 9  -2784807.583 8
  23123724.984   -16484192.073 8 -12844811.098 9
  26043563.211    20143933.252 4  15696554.759 3
 91  5  3  1 46 30.0060000  0  4  6 13 12  2
  26040957.125    10742274.340 5   8370588.317 2
  23390048.602    -3498579.950 8  -2726141.701 7
  23118816.482   -16509991.602 8 -12864914.615 9
  26062749.934    20244697.579 4  15775072.240 2
 91  5  3  1 47  0.0060000  0  4  6 13 12  2
  26066894.867    10878597.498 5   8476813.958 2
  23404402.977    -3423150.964 8  -2667365.884 6
  23114012.298   -16535235.452 8 -12884585.139 9
  26081949.240    20345664.717 4  15853747.706 3
 91  5  3  1 47 30.0060000  0  4  6 13 12  2
  26092864.683    11015078.376 5   8583162.253 1
  23418783.718    -3347582.518 9  -2608481.384 6
  23109316.357   -16559921.459 8 -12903820.984 9
  26101196.219    20446834.124 3  15932580.813 3
 91  5  3  1 48  0.0060000  0  3  6 13 12
  26118872.888    11151715.423 5   8689632.377 2
  23433189.938    -3271875.932 8  -2549489.250 6
  23104722.936   -16584046.124 8 -12922619.416 9
 91  5  3  1 48 30.0060000  0  3  6 13 12
  26144894.863    11288503.989 5   8796220.507 2
  23447621.652    -3196034.770 8  -2490392.242 6
  23100240.429   -16607609.347 8 -12940980.371 9
 91  5  3  1 49  0.0060000  0  3  6 13 12
  26170953.133    11425441.278 5   8902924.902 3
  23462077.936    -3120060.179 8  -2431191.277 6
  23095862.571   -16630609.220 8 -12958902.345 9
 91  5  3  1 49 30.0060000  0  4  6 13 12  2
  26197044.664    11562523.902 5   9009742.326 2
  23476561.808    -3043954.862 8  -2371888.453 7
  23091594.422   -16653044.516 8 -12976384.389 9
  26178603.239          -3.70814       -19.779 3
 91  5  3  1 50  0.0060000  0  3  6 13 12
  26223152.685    11699749.795 5   9116671.224 2
  23491068.471    -2967719.805 8  -2312484.530 7
  23087429.997   -16674912.392 8 -12993424.293 9
 91  5  3  1 50 30.0060000  0  3  6 13 12
  26249305.082    11837110.347 5   9223705.025 2
  23505595.812    -2891362.437 8  -2252985.299 6
  23083378.615   -16696216.432 9 -13010024.835 9
 91  5  3  1 51  0.0060000  0  3  6 13 12
  26275466.466    11974607.092 5   9330844.947 1
  23520155.837    -2814880.366 8  -2193388.895 6
  23079434.238   -16716950.653 9 -13026181.368 9
 91  5  3  1 51 30.0060000  0  3  6 13 12
  26301654.845    12112237.961 4   9438089.843 2
  23534732.039    -2738275.161 8  -2133696.528 6
  23075596.603   -16737112.319 8 -13041891.747 9
 91  5  3  1 52  0.0060000  0  4  6 13 20 12
  26327869.888    12249998.099 4   9545435.033 2
  23549333.439    -2661550.086 8  -2073910.778 6
  27050355.024     -221247.118 5   -172400.347 2
  23071866.584   -16756701.414 8 -13057155.964 9
 91  5  3  1 52 30.0060000  0  4  6 13 20 12
  26354106.535    12387884.601 4   9652879.137 1
  23563954.313    -2584706.787 8  -2014032.897 6
  27034930.113     -302314.300 4   -235569.498 2
  23068250.184   -16775716.141 8 -13071972.625 9
 91  5  3  1 53  0.0060000  0  4  6 13 20 12
  26380376.442    12525895.354 4   9760419.566 2
  23578601.573    -2507746.577 8  -1954063.923 6
  27019491.400     -383445.472 5   -298788.556 2
  23064740.212   -16794153.940 8 -13086339.732 9
 91  5  3  1 53 30.0060000  0  4  6 13 20 12
  26406655.056    12664030.626 4   9868056.995 3
  23593265.322    -2430667.710 8  -1894002.476 7
  27004033.491     -464636.824 5   -362054.517 1
  23061346.267   -16812010.141 8 -13100253.643 9
 91  5  3  1 54  0.0060000  0  4  6 13 20 12
  26432967.245    12802289.497 4   9975790.758 3
  23607957.847    -2353469.377 8  -1833847.963 6
  26988574.098     -545885.027 5   -425364.728 2
  23058056.342   -16829280.820 8 -13113711.305 9
 91  5  3  1 54 30.0060000  0  4  6 13 20 12
  26459304.597    12940666.917 4  10083617.314 1
  23622669.567    -2276156.266 8  -1773604.005 6
  26973099.420     -627191.229 4   -488720.153 2
  23054879.443   -16845966.326 8 -13126712.998 9
 91  5  3  1 55  0.0060000  0  4  6 13 20 12
  26485651.564    13079156.576 4  10191531.391 2
  23637403.763    -2198733.585 8  -1713274.661 6
  26957611.828     -708557.674 4   -552122.554 2
  23051818.849   -16862068.644 8 -13139260.241 9
 91  5  3  1 55 30.0060000  0  5  6 13 20 12  2
  26512033.902    13217756.387 4  10299530.806 3
  23652154.450    -2121201.837 8  -1652860.319 6
  26942119.752     -789982.447 4   -615570.372 3
  23048862.311   -16877585.328 8 -13151351.154 9
  26414354.616       17390.385 4     13534.189 2
 91  5  3  1 56  0.0060000  0  5  6 13 20 12  2
  26538427.636    13356462.911 4  10407613.820 3
  23666932.725    -2043563.994 8  -1592363.347 6
  26926615.983     -871465.210 4   -679063.365 2
  23046023.562   -16892515.322 8 -13162984.902 9
  26434237.150      121878.886 4     94953.612 3
 91  5  3  1 56 30.0060000  0  5  6 13 20 12  2
  26564841.751    13495273.384 4  10515777.380 4
  23681725.379    -1965821.509 8  -1531784.797 6
  26911102.635     -953004.621 5   -742600.542 2
  23043293.353   -16906856.632 8 -13174159.929 9
  26454153.868      226554.910 4    176519.124 2
 91  5  3  1 57  0.0060000  0  5  6 13 20 12  2
  26591270.542    13634186.144 4  10624021.096 3
  23696539.620    -1887974.908 8  -1471125.137 6
  26895574.576    -1034598.299 5   -806179.925 2
  23040677.374   -16920606.634 8 -13184874.206 9
  26474106.552      331418.355 4    258230.676 2
 91  5  3  1 57 30.0060000  0  5  6 13 20 12  2
  26617723.031    13773199.832 4  10732343.544 2
  23711368.256    -1810023.986 8  -1410384.172 7
  26880038.735    -1116243.561 5   -869799.534 2
  23038172.011   -16933762.366 8 -13195125.412 9
  26494105.706      436470.361 4    340089.175 3
 91  5  3  1 58  0.0060000  0  5  6 13 20 12  2
  26644202.201    13912311.836 5  10840742.516 2
  23726221.777    -1731970.084 8  -1349562.984 6
  26864489.108    -1197938.940 4   -933458.187 1
  23035783.251   -16946321.936 8 -13204912.072 9
  26514134.542      541710.647 4    422094.457 2
 91  5  3  1 58 30.0060000  0  5  6 13 20 12  2
  26670683.464    14051514.517 5  10949212.137 3
  23741093.882    -1653819.928 8  -1288666.768 6
  26848934.664    -1279688.484 5   -997159.124 2
  23033504.828   -16958289.019 8 -13214237.062 9
  26534189.763      647133.319 4    504241.723 3
 91  5  3  1 59  0.0060000  0  5  6 13 20 12  2
  26697195.318    14190806.756 5  11057751.538 2
  23755981.570    -1575573.445 8  -1227695.501 6
  26833364.341    -1361488.891 5  -1060899.584 1
  23031343.026   -16969659.975 8 -13223097.529 9
  26554287.249      752739.327 4    586531.920 2
 91  5  3  1 59 30.0060000  0  5  6 13 20 12  2
  26723718.550    14330184.553 5  11166358.095 2
  23770892.659    -1497233.113 8  -1166651.094 6
  26817793.128    -1443339.802 5  -1124679.420 2
  23029292.747   -16980434.325 8 -13231493.118 9
  26574412.323      858526.910 4    668963.616 2
 91  5  3  2  0  0.0060000  0  5  6 13 20 12  2
  26750256.789    14469646.278 5  11275029.597 2
  23785816.626    -1418799.670 8  -1105534.150 6
  26802201.829    -1525239.345 5  -1188497.188 2
  23027356.994   -16990609.411 8 -13239421.742 9
  26594577.551      964496.257 4    751536.856 2
 91  5  3  2  0 30.0060000  0  5  6 13 20 12  2
  26776820.191    14609187.999 5  11383763.389 2
  23800762.476    -1340275.459 8  -1044346.477 6
  26786622.205    -1607187.038 5  -1252352.440 4
  23025533.656   -17000184.660 8 -13246882.964 9
  26614780.278     1070645.384 4    834250.298 5
 91  5  3  2  1  0.0060000  0  5  6 13 20 12  2
  26803380.609    14748810.179 4  11492560.358 4
  23815720.925    -1261658.475 8   -983086.497 6
  26771009.321    -1689178.367 5  -1316241.696 2
  23023829.939   -17009155.567 9 -13253873.266 9
  26635012.672     1176976.638 4    917105.619 1
 91  5  3  2  1 30.0060000  0  5  6 13 20 12  2
  26829963.799    14888502.102 5  11601411.624 1
  23830697.347    -1182958.434 8   -921761.800 6
  26755402.422    -1771219.843 5  -1380170.067 2
  23022234.134   -17017528.669 8 -13260397.745 9
  26655280.733     1283481.515 4   1000096.182 1
 91  5  3  2  2  0.0060000  0  5  6 13 20 12  2
  26856563.184    15028268.856 5  11710321.271 2
  23845693.262    -1104169.560 8   -860367.887 6
  26739785.035    -1853302.162 5  -1444130.196 3
  23020755.263   -17025294.358 8 -13266448.922 9
  26675579.385     1390166.726 4   1083227.355 3
 91  5  3  2  2 30.0060000  0  5  6 13 20 12  2
  26883172.759    15168108.928 5  11819288.016 2
  23860700.274    -1025291.977 8   -798904.855 5
  26724152.956    -1935422.846 4  -1508120.183 2
  23019394.198   -17032450.282 8 -13272024.958 9
  26695917.003     1497033.219 4   1166499.678 3
 91  5  3  2  3  0.0060000  0  5  6 13 20 12  2
  26909797.341    15308016.176 4  11928307.075 2
  23875726.482     -946330.209 8   -737376.207 6
  26708520.876    -2017584.118 5  -1572141.792 2
  23018147.066   -17038998.044 8 -13277127.099 9
  26716286.991     1604076.942 4   1249910.175 3
 91  5  3  2  3 30.0060000  0  5  6 13 20 12  2
  26936431.190    15447987.916 5  12037375.931 2
  23890767.959     -867285.761 8   -675783.155 6
  26692872.306    -2099784.785 4  -1636194.179 2
  23017016.850   -17044936.322 8 -13281754.324 9
  26736693.572     1711296.918 3   1333457.955 1
 91  5  3  2  4  0.0060000  0  5  6 13 20 12  2
  26963081.843    15588018.626 4  12146491.175 2
  23905828.335     -788162.509 8   -614128.690 5
  26677229.146    -2182026.059 4  -1700278.192 2
  23016004.459   -17050266.752 8 -13285907.895 9
  26757128.318     1818689.723 4   1417140.477 2
 91  5  3  2  4 30.0060000  0  5  6 13 20 12  2
  26989739.686    15728110.685 4  12255653.780 2
  23920898.011     -708957.054 8   -552410.155 5
  26661564.085    -2264301.595 4  -1764388.866 2
  23015108.966   -17054982.789 8 -13289582.722 9
  26777590.653     1926259.460 4   1500960.757 2
 91  5  3  2  5  0.0060000  0  5  6 13 20 12  2
  27016403.234    15868258.338 4  12364860.126 3
  23935985.365     -629673.691 8   -490630.909 5
  26645911.624    -2346612.671 5  -1828527.301 3
  23014326.812   -17059086.034 8 -13292780.052 9
  26798094.362     2034002.508 4   1584916.170 2
 91  5  3  2  5 30.0060000  0  5  6 13 20 12  2
  27043087.462    16008462.123 4  12474110.238 2
  23951086.207     -550310.706 8   -428789.641 6
  26630236.076    -2428954.875 5  -1892689.997 4
  23013662.465   -17062572.242 8 -13295496.561 9
  26818636.741     2141920.821 4   1669008.115 2
 91  5  3  2  6  0.0060000  0  5  6 13 20 12  2
  27069776.785    16148714.097 4  12583397.926 1
  23966202.947     -470874.637 8   -366891.417 6
  26614554.228    -2511331.710 5  -1956879.631 2
  23013112.661   -17065445.163 8 -13297735.197 9
  26839203.410     2250008.687 4   1753232.172 3
 91  5  3  2  6 30.0060000  0  5  6 13 20 12  2
  27096480.800    16289013.858 4  12692722.838 2
  23981334.363     -391364.331 8   -304935.342 6
  26598872.991    -2593739.529 4  -2021093.464 4
  23012689.039   -17067701.022 8 -13299493.001 9
  26859804.248     2358267.619 4   1837589.580 3
 91  5  3  2  7  0.0060000  0  5  6 13 20 12  2
  27123182.408    16429360.474 4  12802084.181 1
  23996476.580     -311779.814 8   -242921.444 6
  26583194.739    -2676174.731 5  -2085328.642 3
  23012372.458   -17069336.842 8 -13300767.657 9
  26880438.956     2466698.465 4   1922080.995 2
 91  5  3  2  7 30.0060000  0  5  6 13 20 12  2
  27149904.712    16569747.629 4  12911476.815 3
  24011634.397     -232125.535 7   -180853.215 6
  26567505.091    -2758639.434 5  -2149586.790 2
  23012180.907   -17070354.988 8 -13301561.016 9
  26901106.051     2575296.955 4   2006702.915 2
 91  5  3  2  8  0.0060000  0  5  6 13 20 12  2
  27176626.719    16710176.775 4  13020902.491 2
  24026802.091     -152399.081 7   -118728.720 5
  26551805.863    -2841128.699 5  -2213864.126 2
  23012106.254   -17070750.280 8 -13301869.024 9
  26921800.125     2684066.545 4   2091458.278 2
 91  5  3  2  8 30.0060000  0  5  6 13 20 12  2
  27203364.309    16850639.693 4  13130354.536 1
  24041991.075      -72607.220 7    -56553.266 6
  26536100.335    -2923646.257 5  -2278163.510 2
  23012150.316   -17070526.986 8 -13301695.023 9
  26942536.166     2793000.609 4   2176341.684 2
 91  5  3  2  9  0.0060000  0  5  6 13 20 12  2
  27230089.597    16991133.740 4  13239829.969 2
  24057185.765        7249.027 7      5672.350 5
  26520399.607    -3006190.317 5  -2342483.532 2
  23012306.217   -17069684.072 8 -13301038.210 9
  26963300.390     2902098.344 4   2261352.798 2
 91  5  3  2  9 30.0060000  0  5  6 13 20 12  2
  27256826.000    17131655.090 4  13349327.548 2
  24072396.020       87166.912 7     67946.004 6
  26504680.887    -3088760.528 5  -2406823.966 3
  23012588.613   -17068221.738 8 -13299898.722 9
  26984090.701     3011357.836 4   2346489.776 3
 91  5  3  2 10  0.0060000  0  5  6 13 20 12  2
  27283567.482    17272204.666 3  13458846.694 1
  24087614.687      167148.925 8    130269.629 6
  26488957.682    -3171351.973 5  -2471180.941 2
  23012983.442   -17066135.137 8 -13298272.804 9
  27004910.085     3120782.348 4   2431755.371 4
 91  5  3  2 10 30.0060000  0  5  6 13 20 12  2
  27310332.050    17412775.112 3  13568382.064 1
  24102844.748      247189.091 7    192638.567 6
  26473248.560    -3253967.792 5  -2535556.940 3
  23013498.485   -17063427.859 8 -13296163.236 9
  27025763.950     3230365.779 4   2517144.812 3
 91  5  3  2 11  0.0060000  0  5  6 13 20 12  2
  27337080.441    17553363.930 4  13677931.829 2
  24118088.299      327286.479 8    255052.075 6
  26457509.755    -3336605.769 5  -2599950.188 4
  23014134.650   -17060098.863 8 -13293569.206 9
  27046648.388     3340107.501 3   2602657.598 3
 91  5  3  2 11 30.0060000  0  4 13 20 12  2
  24133345.931      407440.072 8    317509.371 5
  26441790.424    -3419263.862 5  -2664359.112 3
  23014887.418   -17056146.141 8 -13290489.164 9
  27067556.524     3450007.422 3   2688293.657 3
 91  5  3  2 12  0.0060000  0  3 13 20 12
  24148601.174      487648.085 7    380009.104 6
  26426051.933    -3501941.745 5  -2728783.435 3
  23015758.620   -17051570.050 8 -13286923.380 9
 91  5  3  2 12 30.0060000  0  3 13 20 12
  24163880.392      567917.910 8    442556.995 5
  26410314.018    -3584629.224 5  -2793215.238 3
  23016747.332   -17046361.293 8 -13282864.613 9
 91  5  3  2 13  0.0060000  0  3 13 20 12
  24179167.115      648253.571 8    505156.182 6
  26394583.606    -3667319.184 5  -2857648.960 3
  23017861.668   -17040513.438 8 -13278307.842 9
 91  5  3  2 13 30.0060000  0  3 13 20 12
  24194461.620      728644.248 7    567798.233 6
  26378847.506    -3750019.515 5  -2922090.748 3
  23019091.123   -17034035.110 8 -13273259.800 9
 91  5  3  2 14  0.0060000  0  3 13 20 12
  24209771.725      809082.417 7    630477.306 5
  26363106.293    -3832735.122 5  -2986544.434 3
  23020443.777   -17026931.769 8 -13267724.728 9
 91  5  3  2 14 30.0060000  0  3 13 20 12
  24225085.722      889572.873 7    693197.101 5
  26347355.814    -3915458.002 5  -3051003.757 4
  23021917.866   -17019196.214 8 -13261697.028 9
 91  5  3  2 15  0.0060000  0  3 13 20 12
  24240411.708      970110.264 7    755953.463 4
  26331622.697    -3998191.082 5  -3115471.056 3
  23023505.260   -17010832.243 8 -13255179.654 9
 91  5  3  2 15 30.0060000  0  3 13 20 12
  24255748.791     1050693.699 7    818745.715 5
  26315868.903    -4080932.235 5  -3179944.599 3
  23025220.669   -17001838.626 8 -13248171.644 9
 91  5  3  2 16  0.0060000  0  3 13 20 12
  24271089.766     1131323.225 7    881573.877 4
  26300131.598    -4163678.909 5  -3244422.451 4
  23027049.103   -16992213.607 8 -13240671.629 9
 91  5  3  2 16 30.0070000  0  3 13 20 12
  24286440.953     1211998.988 7    944438.108 5
  26284384.996    -4246433.335 5  -3308906.334 2
  23029003.146   -16981957.475 8 -13232679.836 9
 91  5  3  2 17  0.0070000  0  3 13 20 12
  24301800.216     1292716.736 7   1007335.025 5
  26268640.502    -4329186.509 5  -3373389.232 3
  23031076.215   -16971068.087 8 -13224194.595 9
 91  5  3  2 17 30.0070000  0  3 13 20 12
  24317171.467     1373474.591 7   1070263.182 5
  26252886.097    -4411942.731 5  -3437874.486 3
  23033270.405   -16959547.818 8 -13215217.764 9
 91  5  3  2 18  0.0070000  0  3 13 20 12
  24332543.032     1454274.249 7   1133223.947 5
  26237134.710    -4494697.778 5  -3502358.839 3
  23035581.495   -16947393.618 8 -13205746.958 9
 91  5  3  2 18 30.0070000  0  3 13 20 12
  24347929.884     1535110.493 7   1196213.225 4
  26221388.419    -4577454.078 5  -3566844.140 2
  23038012.816   -16934608.794 8 -13195784.760 9
 91  5  3  2 19  0.0070000  0  3 13 20 12
  24363317.625     1615987.468 7   1259234.259 5
  26205643.611    -4660203.966 5  -3631324.493 5
  23040565.556   -16921187.139 8 -13185326.323 9
 91  5  3  2 19 30.0070000  0  3 13 20 12
  24378716.762     1696901.864 7   1322284.433 6
  26189896.412    -4742948.191 5  -3695800.392 2
  23043242.699   -16907130.598 8 -13174373.171 9
 91  5  3  2 20  0.0070000  0  3 13 20 12
  24394121.308     1777849.767 7   1385360.707 5
  26174149.213    -4825688.456 5  -3760273.222 3
  23046038.852   -16892442.140 8 -13162927.628 9
 91  5  3  2 20 30.0070000  0  3 13 20 12
  24409533.340     1858834.112 7   1448465.398 5
  26158402.608    -4908418.373 5  -3824737.990 3
  23048954.940   -16877116.532 8 -13150985.585 9
 91  5  3  2 21  0.0070000  0  3 13 20 12
  24424944.465     1939846.961 7   1511592.285 6
  26142665.618    -4991143.322 5  -3889198.903 3
  23051988.835   -16861160.393 8 -13138552.235 9
 91  5  3  2 21 30.0070000  0  3 13 20 12
  24440370.877     2020891.892 7   1574744.157 5
  26126925.609    -5073857.139 5  -3953651.134 3
  23055146.260   -16844569.396 8 -13125624.185 9
 91  5  3  2 22  0.0070000  0  3 13 20 12
  24455800.900     2101967.164 7   1637919.699 4
  26111192.196    -5156558.663 5  -4018093.784 4
  23058424.789   -16827343.113 8 -13112201.112 9
 91  5  3  2 22 30.0070000  0  3 13 20 12
  24471229.719     2183068.531 7   1701115.562 5
  26095449.203    -5239248.598 5  -4082527.451 5
  23061823.533   -16809484.565 8 -13098285.360 9
 91  5  3  2 23  0.0070000  0  3 13 20 12
  24486672.325     2264196.331 7   1764331.998 6
  26079720.885    -5321924.570 6  -4146950.185 2
  23065343.696   -16790992.176 8 -13083875.707 9
 91  5  3  2 23 30.0070000  0  3 13 20 12
  24502113.743     2345351.116 7   1827569.451 5
  26063990.770    -5404583.535 5  -4211359.662 3
  23068981.683   -16771864.153 8 -13068970.751 9
 91  5  3  2 24  0.0070000  0  3 13 20 12
  24517563.241     2426534.269 7   1890829.021 4
  26048263.360    -5487221.353 5  -4275752.705 4
  23072744.665   -16752097.763 8 -13053568.384 9
 91  5  3  2 24 30.0070000  0  3 13 20 12
  24533015.147     2507744.950 7   1954110.045 5
  26032542.546    -5569835.862 5  -4340127.527 3
  23076626.675   -16731692.975 8 -13037668.540 9
 91  5  3  2 25  0.0070000  0  3 13 20 12
  24548473.649     2588982.672 7   2017412.122 5
  26016827.421    -5652424.551 5  -4404482.279 2
  23080631.605   -16710648.937 8 -13021270.595 9
 91  5  3  2 25 30.0070000  0  3 13 20 12
  24563935.450     2670242.152 7   2080731.167 4
  26001112.907    -5734989.769 5  -4468818.680 3
  23084757.360   -16688969.493 8 -13004377.525 9
 91  5  3  2 26  0.0070000  0  3 13 20 12
  24579407.127     2751525.904 7   2144069.138 4
  25985414.865    -5817525.979 5  -4533132.505 2
  23089002.719   -16666651.141 8 -12986986.605 9
 91  5  3  2 26 30.0070000  0  3 13 20 12
  24594878.821     2832833.078 7   2207425.366 4
  25969709.652    -5900032.207 5  -4597422.961 3
  23093373.091   -16643694.389 8 -12969098.227 9
 91  5  3  2 27  0.0070000  0  3 13 20 12
  24610355.297     2914158.336 7   2270795.672 6
  25954017.299    -5982510.017 6  -4661691.264 3
  23097860.990   -16620102.606 8 -12950715.025 9
 91  5  3  2 27 30.0070000  0  3 13 20 12
  24625832.384     2995503.407 7   2334181.399 3
  25938326.465    -6064955.022 6  -4725934.021 4
  23102472.088   -16595873.415 8 -12931835.145 9
 91  5  3  2 28  0.0070000  0  3 13 20 12
  24641318.475     3076867.271 7   2397581.790 4
  25922642.820    -6147365.868 5  -4790150.164 3
  23107204.622   -16571007.225 8 -12912458.898 9
 91  5  3  2 28 30.0070000  0  3 13 20 12
  24656804.252     3158249.627 7   2460996.574 5
  25906969.977    -6229739.977 5  -4854337.664 4
  23112058.854   -16545503.400 8 -12892585.794 9
 91  5  3  2 29  0.0070000  0  3 13 20 12
  24672296.032     3239649.350 7   2524424.923 5
  25891304.620    -6312076.448 6  -4918495.864 4
  23117033.003   -16519362.530 8 -12872216.291 9
 91  5  3  2 29 30.0070000  0  3 13 20 12
  24687786.607     3321058.354 7   2587860.472 5
  25875637.465    -6394379.720 6  -4982628.224 3
  23122126.792   -16492591.195 8 -12851355.519 9
 91  5  3  2 30  0.0070000  0  3 13 20 12
  24703277.183     3402483.401 7   2651308.564 4
  25859983.503    -6476640.910 6  -5046727.755 4
  23127344.965   -16465182.787 8 -12829998.312 9
 91  5  3  2 30 30.0070000  0  4 16 13 20 12
  26953660.264      -28183.57315    -21978.026 3
  24718774.652     3483921.626 7   2714766.910 3
  25844336.730    -6558859.229 6  -5110793.919 4
  23132675.885   -16437139.016 8 -12808146.028 9
 91  5  3  2 31  0.0070000  0  4 16 13 20 12
  26939024.400     -105118.764 5    -81927.969 1
  24734276.623     3565370.751 7   2778233.750 5
  25828699.869    -6641035.008 6  -5174826.952 2
  23138136.895   -16408461.459 8 -12785799.887 9
 91  5  3  2 31 30.0070000  0  4 16 13 20 12
  26924361.855     -182160.687 5   -141960.595 2
  24749781.577     3646834.670 7   2841712.114 4
  25813070.477    -6723161.489 6  -5238821.555 3
  23143712.449   -16379145.809 8 -12762956.535 9
 91  5  3  2 32  0.0070000  0  4 16 13 20 12
  26909680.114     -259314.525 5   -202080.480 2
  24765279.046     3728304.026 7   2905194.718 4
  25797452.201    -6805245.259 6  -5302782.910 3
  23149412.092   -16349200.615 8 -12739622.623 9
 91  5  3  2 32 30.0070000  0  4 16 13 20 12
  26894971.692     -336574.539 5   -262283.075 2
  24780781.331     3809780.678 7   2968683.033 3
  25781840.206    -6887281.090 6  -5366706.910 2
  23155233.170   -16318623.379 8 -12715796.216 9
 91  5  3  2 33  0.0070000  0  4 16 13 20 12
  26880253.096     -413942.509 5   -322569.818 2
  24796292.882     3891260.108 7   3032173.479 4
  25766235.402    -6969270.906 6  -5430595.051 4
  23161170.258   -16287417.974 8 -12691480.317 9
 91  5  3  2 33 30.0070000  0  4 16 13 20 12
  26865515.899     -491415.792 5   -382938.613 3
  24811786.459     3972741.329 7   3095665.363 4
  25750645.307    -7051213.448 6  -5494446.388 3
  23167227.560   -16255585.498 8 -12666675.805 9
 91  5  3  2 34  0.0070000  0  4 16 13 20 12
  26850758.913     -568981.442 5   -443378.889 2
  24827299.824     4054233.908 7   3159166.075 4
  25735063.886    -7133096.214 6  -5558251.159 3
  23173405.391   -16223115.704 8 -12641374.667 9
 91  5  3  2 34 30.0070000  0  4 16 13 20 12
  26835976.746     -646639.072 5   -503891.368 3
  24842810.782     4135734.163 6   3222672.756 3
  25719494.173    -7214920.127 6  -5622010.088 4
  23179705.216   -16190012.121 8 -12615579.685 9
 91  5  3  2 35  0.0070000  0  4 16 13 20 12
  26821176.292     -724391.542 5   -564477.235 1
  24858322.036     4217236.634 7   3286181.143 4
  25703934.337    -7296687.732 6  -5685725.096 3
  23186124.383   -16156279.253 8 -12589294.335 9
 91  5  3  2 35 30.0070000  0  4 16 13 20 12
  26806359.347     -802233.798 5   -625133.560 1
  24873826.712     4298742.822 6   3349692.429 3
  25688391.900    -7378395.391 6  -5749393.421 5
  23192665.249   -16121916.341 8 -12562518.053 9
 91  5  3  2 36  0.0070000  0  4 16 13 20 12
  26791535.212     -880148.608 5   -685845.940 3
  24889349.064     4380265.478 7   3413216.583 3
  25672850.055    -7460026.614 6  -5813002.167 2
  23199325.142   -16086909.597 8 -12535240.072 9
 91  5  3  2 36 30.0070000  0  4 16 13 20 12
  26776691.586     -958153.344 5   -746628.909 4
  24904857.335     4461784.652 7   3476737.995 4
  25657331.297    -7541598.752 6  -5876564.835 4
  23206107.343   -16051278.632 8 -12507475.696 9
 91  5  3  2 37  0.0070000  0  4 16 13 20 12
  26761836.268    -1036239.937 5   -807475.167 2
  24920372.480     4543304.773 7   3540260.121 5
  25641820.043    -7623105.415 6  -5940076.486 5
  23213005.571   -16015019.434 8 -12479221.778 9
 91  5  3  2 37 30.0070000  0  4 16 13 20 12
  26746954.862    -1114410.126 5   -868386.572 3
  24935882.548     4624820.214 7   3603778.614 4
  25626315.071    -7704549.045 6  -6003539.025 2
  23220024.904   -15978137.266 8 -12450482.433 9
 91  5  3  2 38  0.0070000  0  4 16 13 20 12
  26732058.780    -1192659.716 5   -929359.822 3
  24951392.319     4706332.174 7   3667294.438 4
  25610838.578    -7785926.105 6  -6066949.648 4
  23227158.780   -15940630.991 8 -12421256.782 9
 91  5  3  2 38 30.0070000  0  4 16 13 20 12
  26717164.496    -1270982.249 5   -990390.425 2
  24966902.980     4787843.206 7   3730809.514 5
  25595364.492    -7867230.878 6  -6130303.976 3
  23234417.948   -15902497.734 8 -12391542.561 9
 91  5  3  2 39  0.0070000  0  4 16 13 20 12
  26702249.812    -1349376.676 4  -1051476.627 3
  24982418.125     4869351.269 7   3794322.243 3
  25579911.696    -7948462.912 6  -6193601.525 4
  23241795.534   -15863740.097 8 -12361341.809 9
 91  5  3  2 39 30.0070000  0  4 16 13 20 12
  26687316.561    -1427838.555 4  -1112615.383 3
  24997925.802     4950857.148 7   3857833.322 4
  25564464.589    -8029618.586 6  -6256839.621 4
  23249287.645   -15824356.852 8 -12330653.577 9
 91  5  3  2 40  0.0070000  0  4 16 13 20 12
  26672363.208    -1506368.417 4  -1173807.086 1
  25013435.853     5032356.825 7   3921339.548 4
  25549040.272    -8110698.769 6  -6320018.858 3
  23256902.379   -15784352.140 8 -12299481.073 9
 91  5  3  2 40 30.0070000  0  4 16 13 20 12
  26657416.748    -1584960.365 4  -1235047.146 2
  25028948.014     5113852.424 7   3984842.595 4
  25533620.736    -8191699.041 6  -6383135.850 4
  23264635.234   -15743723.818 8 -12267822.659 9
 91  5  3  2 41  0.0070000  0  4 16 13 20 12
  26642445.124    -1663609.852 4  -1296332.062 2
  25044449.095     5195345.583 7   4048343.717 3
  25518224.601    -8272614.830 6  -6446186.972 4
  23272481.393   -15702470.232 8 -12235677.009 9
 91  5  3  2 41 30.0070000  0  4 16 13 20 12
  26627466.590    -1742321.192 4  -1357665.718 2
  25059958.552     5276828.609 7   4111837.000 3
  25502841.047    -8353450.995 6  -6509176.070 4
  23280450.174   -15660599.285 8 -12203050.312 9
 91  5  3  2 42  0.0070000  0  4 16 13 20 12
  26612479.366    -1821085.430 4  -1419040.110 1
  25075461.116     5358306.670 7   4175326.355 4
  25487474.595    -8434199.821 6  -6572097.113 4
  23288535.576   -15618106.770 8 -12169939.271 9
 91  5  3  2 42 30.0070000  0  4 16 13 20 12
  26597478.949    -1899904.154 5  -1480456.932 1
  25090964.587     5439774.619 7   4238807.861 4
  25472127.320    -8514863.785 6  -6634952.018 5
  23296740.598   -15574997.503 8 -12136347.638 9
 91  5  3  2 43  0.0070000  0  4 16 13 20 12
  26582462.635    -1978772.413 5  -1541912.363 2
  25106468.652     5521234.192 7   4302282.830 4
  25456787.532    -8595438.367 6  -6697737.290 4
  23305062.834   -15531269.966 8 -12102274.241 9
 91  5  3  2 43 30.0070000  0  4 16 13 20 12
  26567449.637    -2057688.211 5  -1603404.823 2
  25121964.934     5602683.530 7   4365749.856 3
  25441472.942    -8675922.940 6  -6760452.416 3
  23313499.299   -15486926.528 8 -12067720.920 9
 91  5  3  2 44  0.0070000  0  4 16 13 20 12
  26552432.730    -2136644.940 5  -1664929.187 3
  25137458.808     5684126.171 7   4429211.657 4
  25426174.528    -8756310.899 6  -6823092.278 3
  23322057.182   -15441963.924 8 -12032685.129 9
 91  5  3  2 44 30.0070000  0  4 16 13 20 12
  26537394.237    -2215643.800 5  -1726486.403 3
  25152957.463     5765557.527 7   4492664.641 3
  25410897.403    -8836604.633 6  -6885658.706 4
  23330727.166   -15396387.650 8 -11997171.165 9
 91  5  3  2 45  0.0070000  0  4 16 13 20 12
  26522352.150    -2294681.456 5  -1788073.869 3
  25168449.243     5846977.558 7   4556108.859 4
  25395634.675    -8916800.846 6  -6948149.177 4
  23339518.882   -15350197.779 8 -11961179.067 9
 91  5  3  2 45 30.0070000  0  4 16 13 20 12
  26507304.076    -2373753.606 5  -1849688.657 2
  25183944.024     5928386.708 7   4619544.551 4
  25380392.328    -8996896.316 6  -7010561.146 3
  23348426.328   -15303394.200 8 -11924708.755 9
 91  5  3  2 46  0.0070000  0  4 16 13 20 12
  26492256.300    -2452863.475 5  -1911332.427 2
  25199429.190     6009778.530 7   4682966.696 3
  25365173.662    -9076895.201 6  -7072897.839 5
  23357446.171   -15255984.210 8 -11887765.914 9
 91  5  3  2 46 30.0070000  0  4 16 13 20 12
  26477195.017    -2532004.650 5  -1973000.537 2
  25214920.080     6091155.962 7   4746377.678 4
  25349969.985    -9156792.205 6  -7135155.198 5
  23366581.744   -15207965.756 8 -11850348.951 9
 91  5  3  2 47  0.0070000  0  4 16 13 20 12
  26462126.859    -2611174.872 5  -2034691.308 2
  25230397.464     6172518.772 6   4809777.285 2
  25334778.297    -9236584.801 6  -7197331.178 4
  23375837.253   -15159339.715 8 -11812458.540 9
 91  5  3  2 47 30.0070000  0  4 16 13 20 12
  26447062.278    -2690368.281 5  -2096400.183 3
  25245876.644     6253868.714 6   4873166.821 2
  25319620.793    -9316268.224 6  -7259422.116 5
  23385206.362   -15110104.583 8 -11774093.517 9
 91  5  3  2 48  0.0070000  0  4 16 13 20 12
  26431979.130    -2769587.861 5  -2158129.436 3
  25261359.123     6335199.185 6   4936541.190 2
  25304473.481    -9395846.211 6  -7321430.896 4
  23394687.903   -15060267.681 8 -11735259.593 8
 91  5  3  2 48 30.0070000  0  4 16 13 20 12
  26416904.951    -2848825.688 5  -2219872.883 3
  25276829.020     6416515.342 6   4999904.437 3
  25289352.850    -9475311.525 6  -7383351.883 4
  23404287.547   -15009825.016 8 -11695953.624 8
 91  5  3  2 49  0.0070000  0  4 16 13 20 12
  26401825.991    -2928081.280 5  -2281630.206 2
  25292307.608     6497814.181 6   5063254.172 3
  25274257.399    -9554663.957 6  -7445184.892 2
  23413998.122   -14958779.975 8 -11656178.278 9
 91  5  3  2 49 30.0070000  0  4 16 13 20 12
  26386735.043    -3007350.781 5  -2343398.353 2
  25307769.094     6579095.612 6   5126590.329 4
  25259179.626    -9633901.238 6  -7506928.186 4
  23423831.023   -14907133.715 8 -11615934.454 9
 91  5  3  2 50  0.0070000  0  4 16 13 20 12
  26371652.785    -3086629.025 5  -2405173.368 2
  25323229.987     6660361.419 6   5189914.352 2
  25244115.970    -9713018.391 6  -7568577.899 3
  23433771.836   -14854885.152 8 -11575221.301 8
 91  5  3  2 50 30.0070000  0  4 16 13 20 12
  26356563.337    -3165915.590 5  -2466954.797 2
  25338693.288     6741608.493 6   5253223.757 2
  25229084.963    -9792015.711 6  -7630134.255 4
  23443829.583   -14802038.188 8 -11534041.852 9
 91  5  3  2 51  0.0070000  0  4 16 13 20 12
  26341470.871    -3245202.634 5  -2528736.638 4
  25354150.883     6822841.618 6   5316522.270 3
  25214077.950    -9870886.134 6  -7691591.702 5
  23453997.633   -14748588.946 8 -11492393.120 8
 91  5  3  2 51 30.0070000  0  4 16 13 20 12
  26326378.125    -3324494.171 5  -2590521.987 3
  25369605.180     6904054.078 6   5379804.677 3
  25199092.837    -9949633.738 6  -7752953.454 4
  23464284.117   -14694545.639 8 -11450281.468 8
 91  5  3  2 52  0.0070000  0  4 16 13 20 12
  26311293.773    -3403790.155 5  -2652310.787 3
  25385055.899     6985242.154 6   5443068.122 2
  25184133.795   -10028259.969 6  -7814220.632 4
  23474681.812   -14639912.822 8 -11407710.457 8
 91  5  3  2 52 30.0070000  0  4 16 13 20 12
  26296205.808    -3483081.887 5  -2714096.291 4
  25400504.804     7066410.938 6   5506316.519 3
  25169192.134   -10106756.967 6  -7875387.120 5
  23485189.234   -14584686.272 8 -11364676.794 8
 91  5  3  2 53  0.0070000  0  4 16 13 20 12
  26281111.859    -3562366.019 5  -2775875.852 3
  25415942.017     7147560.959 6   5569550.285 3
  25154278.061   -10185121.192 6  -7936450.119 4
  23495810.292   -14528866.482 8 -11321180.872 8
 91  5  3  2 53 30.0070000  0  4 16 13 20 12
  26266028.711    -3641643.410 5  -2837650.171 4
  25431380.416     7228686.754 6   5632765.181 3
  25139393.967   -10263354.843 6  -7997411.369 5
  23506547.655   -14472459.580 8 -11277227.462 8
 91  5  3  2 54  0.0070000  0  4 16 13 20 12
  26250949.140    -3720908.735 5  -2899415.094 4
  25446813.144     7309791.388 6   5695963.558 4
  25124533.240   -10341452.657 6  -8058266.768 4
  23517390.854   -14415464.036 8 -11232815.368 9
 91  5  3  2 54 30.0070000  0  4 16 13 20 12
  26235868.993    -3800160.565 5  -2961169.491 4
  25462243.761     7390872.640 6   5759143.758 2
  25109700.415   -10419414.553 7  -8119016.243 5
  23528348.264   -14357883.461 8 -11187947.405 9
 91  5  3  2 55  0.0070000  0  4 16 13 20 12
  26220789.126    -3879392.969 5  -3022908.773 5
  25477673.471     7471932.824 6   5822307.509 3
  25094894.865   -10497234.763 7  -8179655.316 5
  23539415.995   -14299716.172 7 -11142622.275 9
 91  5  3  2 55 30.0070000  0  4 16 13 20 12
  26205716.762    -3958605.232 5  -3084632.365 2
  25493092.099     7552969.383 6   5885452.829 2
  25080107.010   -10574913.516 6  -8240184.137 5
  23550596.158   -14240966.312 8 -11096843.180 9
 91  5  3  2 56  0.0070000  0  4 16 13 20 12
  26190644.102    -4037794.953 5  -3146338.369 4
  25508508.023     7633981.015 6   5948578.797 2
  25065353.618   -10652449.561 6  -8300601.776 5
  23561888.141   -14181636.695 8 -11050612.336 9
 91  5  3  2 56 30.0070000  0  4 16 13 20 12
  26175576.833    -4116959.360 5  -3208024.666 4
  25523922.463     7714968.225 6   6011685.751 2
  25050624.814   -10729839.975 6  -8360905.908 6
  23573287.461   -14121727.933 8 -11003930.198 8
 91  5  3  2 57  0.0070000  0  4 16 13 20 12
  26160522.443    -4196094.743 5  -3269688.377 5
  25539323.694     7795931.322 6   6074773.817 2
  25035928.381   -10807081.736 6  -8421094.233 4
  23584799.492   -14061241.425 8 -10956797.875 8
 91  5  3  2 57 30.0070000  0  4 16 13 20 12
  26145470.165    -4275197.357 5  -3331326.528 3
  25554724.331     7876869.831 6   6137842.764 2
  25021256.237   -10884172.279 6  -8481164.688 5
  23596418.248   -14000178.703 8 -10909216.553 8
 91  5  3  2 58  0.0070000  0  4 16 13 20 12
  26130428.984    -4354264.523 5  -3392937.072 4
  25570119.280     7957783.869 6   6200892.678 2
  25006614.685   -10961109.535 6  -8541115.720 4
  23608143.730   -13938541.614 8 -10861187.672 8
 91  5  3  2 58 30.0070000  0  4 16 13 20 12
  26115380.894    -4433296.256 5  -3454520.011 2
  25585522.604     8038670.026 6   6263920.833 3
  24992006.392   -11037893.586 7  -8600947.347 5
  23619984.017   -13876334.474 8 -10812714.592 9
 91  5  3  2 59  0.0070000  0  4 16 13 20 12
  26100352.609    -4512287.732 5  -3516071.579 3
  25600907.955     8119529.589 6   6326928.247 3
  24977424.484   -11114520.261 7  -8660656.351 6
  23631933.455   -13813557.173 8 -10763797.238 9
 91  5  3  2 59 30.0070000  0  4 16 13 20 12
  26085328.495    -4591233.734 5  -3577587.727 4
  25616287.617     8200364.713 6   6389916.649 2
  24962873.463   -11190985.360 7  -8720239.428 5
  23643983.319   -13750209.810 8 -10714435.684 8
 91  5  3  3  0  0.0070000  0  4 16 13 20 12
  26070315.794    -4670133.382 5  -3639067.765 4
  25631664.575     8281171.959 6   6452883.330 2
  24948352.107   -11267289.448 7  -8779697.088 6
  23656148.284   -13686296.844 8 -10664633.384 8
 91  5  3  3  0 30.0070000  0  4 16 13 20 12
  26055311.782    -4748984.585 5  -3700510.025 3
  25647039.421     8361951.772 6   6515828.600 4
  24933861.952   -11343429.996 7  -8839027.285 6
  23668417.602   -13621819.982 8 -10614391.699 9
 91  5  3  3  1  0.0070000  0  4 16 13 20 12
  26040314.070    -4827781.042 5  -3761909.674 3
  25662400.795     8442706.534 6   6578754.369 2
  24919407.745   -11419401.616 7  -8898225.847 6
  23680790.033   -13556778.550 8 -10563710.088 8
 91  5  3  3  1 30.0070000  0  4 16 13 20 12
  26025334.943    -4906519.730 5  -3823264.272 3
  25677767.858     8523435.580 6   6641660.071 2
  24904982.645   -11495202.305 7  -8957291.227 6
  23693276.990   -13491174.625 8 -10512590.175 8
 91  5  3  3  2  0.0070000  0  4 16 13 20 12
  26010359.707    -4985202.211 5  -3884575.099 3
  25693113.632     8604134.530 6   6704542.388 2
  24890589.897   -11570834.007 7  -9016224.949 6
  23705866.764   -13425014.528 7 -10461036.881 7
 91  5  3  3  2 30.0070000  0  4 16 13 20 12
  25995400.351    -5063825.607 6  -3945839.874 3
  25708474.989     8684802.927 6   6767400.828 2
  24876232.242   -11646293.997 7  -9075024.855 6
  23718564.782   -13358299.853 8 -10409051.451 8
 91  5  3  3  3  0.0070000  0  4 16 13 20 12
  25980445.218    -5142384.121 6  -4007054.072 4
  25723817.779     8765442.856 6   6830237.132 2
  24861904.566   -11721577.590 7  -9133687.316 7
  23731365.319   -13291030.332 8 -10356633.653 8
 91  5  3  3  3 30.0070000  0  4 16 13 20 12
  25965513.747    -5220877.043 6  -4068217.191 3
  25739161.755     8846051.516 6   6893049.012 2
  24847609.557   -11796684.943 7  -9192212.462 6
  23744269.580   -13223210.623 8 -10303787.165 8
 91  5  3  3  4  0.0070000  0  4 16 13 20 12
  25950592.781    -5299297.678 6  -4129323.966 3
  25754488.037     8926633.579 6   6955840.257 2
  24833352.031   -11871609.328 7  -9250595.036 6
  23757282.068   -13154838.624 8 -10250510.306 7
 91  5  3  3  4 30.0070000  0  4 16 13 20 12
  25935679.302    -5377646.869 6  -4190375.061 3
  25769823.917     9007185.047 6   7018607.605 3
  24819129.266   -11946352.767 7  -9308836.623 6
  23770396.500   -13085920.076 8 -10196807.564 8
 91  5  3  3  5  0.0070000  0  4 16 13 20 12
  25920780.812    -5455923.500 6  -4251369.650 4
  25785139.711     9087703.409 6   7081349.150 2
  24804942.204   -12020914.443 7  -9366936.565 6
  23783612.248   -13016459.072 8 -10142682.127 7
 91  5  3  3  5 30.0070000  0  4 16 13 20 12
  25905907.520    -5534116.552 6  -4312299.059 3
  25800457.024     9168196.023 6   7144070.657 2
  24790788.699   -12095284.114 7  -9424886.921 6
  23796933.832   -12946450.130 8 -10088129.739 7
 91  5  3  3  6  0.0070000  0  4 16 13 20 12
  25891036.008    -5612224.544 6  -4373162.221 4
  25815778.507     9248660.843 6   7206770.597 3
  24776673.567   -12169461.553 7  -9482687.471 7
  23810359.436   -12875897.442 7 -10033153.652 7
 91  5  3  3  6 30.0070000  0  4 16 13 20 12
  25876192.382    -5690245.741 6  -4433957.758 2
  25831075.123     9329097.454 6   7269448.418 2
  24762593.806   -12243444.710 7  -9540336.644 6
  23823889.968   -12804803.442 7  -9977755.743 7
 91  5  3  3  7  0.0070000  0  4 16 13 20 12
  25861362.245    -5768174.228 6  -4494681.071 3
  25846379.523     9409508.106 6   7332106.059 2
  24748558.736   -12317228.566 7  -9597830.507 7
  23837523.928   -12733167.838 8  -9921935.836 6
 91  5  3  3  7 30.0070000  0  4 16 13 20 12
  25846551.006    -5846012.980 6  -4555334.443 2
  25861676.139     9489886.296 6   7394738.468 2
  24734551.830   -12390816.838 7  -9655171.988 6
  23851256.516   -12660999.562 8  -9865700.839 7
 91  5  3  3  8  0.0070000  0  4 16 13 20 12
  25831754.146    -5923757.098 6  -4615914.078 3
  25876967.049     9570234.613 6   7457347.523 2
  24720587.485   -12464204.754 7  -9712357.344 7
  23865089.548   -12588298.013 8  -9809050.320 7
 91  5  3  3  8 30.0070000  0  4 16 13 20 12
  25816974.073    -6001406.914 6  -4676420.244 3
  25892248.362     9650549.064 6   7519930.128 2
  24706655.842   -12537393.743 7  -9769387.701 6
  23879025.397   -12515069.232 8  -9751988.957 8
 91  5  3  3  9  0.0070000  0  4 16 13 20 12
  25802220.700    -6078955.743 6  -4736847.722 1
  25907531.490     9730833.359 6   7582489.385 3
  24692767.947   -12610377.350 7  -9826258.003 7
  23893060.485   -12441311.549 8  -9694515.480 7
 91  5  3  3  9 30.0070000  0  4 16 13 20 12
  25787482.891    -6156395.052 6  -4797189.834 3
  25922800.518     9811091.964 6   7645028.526 2
  24678922.333   -12683148.149 7  -9882962.481 7
  23907196.296   -12367022.374 7  -9636627.839 7
 91  5  3  3 10  0.0070000  0  4 16 13 20 12
  25772772.986    -6233722.490 6  -4857444.807 4
  25938061.448     9891324.674 6   7707547.507 3
  24665119.298   -12755704.060 7  -9939499.517 6
  23921434.330   -12292204.643 7  -9578328.342 7
 91  5  3  3 10 30.0070000  0  4 16 13 20 12
  25758078.646    -6310940.049 6  -4917614.198 2
  25953327.492     9971526.595 6   7770042.455 2
  24651345.632   -12828047.433 7  -9995870.940 7
  23935772.807   -12216865.244 7  -9519622.348 7
 91  5  3  3 11  0.0080000  0  4 16 13 20 12
  25743401.114    -6388042.494 6  -4977693.875 2
  25968583.017    10051704.424 6   7832518.729 2
  24637626.518   -12900174.188 7 -10052073.561 7
  23950209.009   -12140999.544 8  -9460506.239 7
 91  5  3  3 11 30.0080000  0  4 16 13 20 12
  25728756.246    -6465029.075 6  -5037683.232 3
  25983832.867    10131845.698 6   7894966.420 3
  24623938.009   -12972083.949 7 -10108107.113 7
  23964741.149   -12064622.281 8  -9400991.525 6
 91  5  3  3 12  0.0080000  0  4 16 13 20 12
  25714124.587    -6541897.108 6  -5097580.229 4
  25999080.309    10211954.709 6   7957388.977 2
  24610297.750   -13043774.791 7 -10163970.067 7
  23979374.622   -11987731.697 8  -9341076.811 7
 91  5  3  3 12 30.0080000  0  4 16 13 20 12
  25699521.983    -6618646.044 6  -5157384.439 3
  26014319.968    10292028.697 6   8019784.295 2
  24596698.568   -13115246.979 7 -10219662.627 6
  23994102.833   -11910332.757 8  -9280765.981 7
 91  5  3  3 13  0.0080000  0  4 16 13 20 12
  25684942.780    -6695271.781 6  -5217092.638 2
  26029553.920    10372069.616 6   8082153.828 2
  24583139.540   -13186495.985 7 -10275181.295 7
  24008929.061   -11832426.280 8  -9220059.674 7
 91  5  3  3 13 30.0080000  0  4 16 13 20 12
  25670386.367    -6771772.726 6  -5276703.589 5
  26044775.274    10452075.663 6   8144496.173 1
  24569619.809   -13257521.507 7 -10330525.819 6
  24023845.839   -11754016.545 7  -9158961.209 6
 91  5  3  3 14  0.0080000  0  4 16 13 20 12
  25655851.819    -6848141.586 6  -5336211.636 4
  26059988.252    10532050.001 6   8206813.808 3
  24556150.439   -13328316.863 7 -10385690.990 7
  24038866.044   -11675102.066 7  -9097469.434 7
 91  5  3  3 14 30.0080000  0  4 16 13 20 12
  25641345.470    -6924373.831 6  -5395613.241 4
  26075205.714    10611995.189 6   8269108.756 2
  24542726.022   -13398877.727 7 -10440673.437 6
  24053978.875   -11595683.784 7  -9035585.104 6
 91  5  3  3 15  0.0080000  0  4 16 13 20 12
  25626862.487    -7000466.145 6  -5454905.787 5
  26090408.780    10691911.222 6   8331380.937 2
  24529339.698   -13469201.779 7 -10495471.351 6
  24069186.146   -11515763.762 7  -8973309.801 6
 91  5  3  3 15 30.0080000  0  4 16 13 20 12
  25612409.205    -7076416.205 6  -5514087.492 5
  26105613.364    10771797.135 6   8393629.698 2
  24516003.422   -13539287.127 7 -10550083.273 8
  24084487.562   -11435345.034 7  -8910645.897 7
 91  5  3  3 16  0.0080000  0  4 16 13 20 12
  25597982.587    -7152224.667 6  -5573158.875 5
  26120806.850    10851649.400 6   8455852.152 3
  24502715.430   -13609134.459 7 -10604509.720 7
  24099886.088   -11354433.820 7  -8847598.232 7
 91  5  3  3 16 30.0080000  0  4 16 13 20 12
  25583581.759    -7227888.774 6  -5632117.755 5
  26135992.222    10931467.245 6   8518047.849 3
  24489466.998   -13678742.532 7 -10658749.736 7
  24115375.180   -11273033.843 7  -8784169.717 7
 91  5  3  3 17  0.0080000  0  4 16 13 20 12
  25569218.695    -7303401.041 6  -5690958.329 5
  26151177.925    11011254.763 6   8580219.986 3
  24476262.645   -13748104.368 7 -10712797.884 8
  24130960.179   -11191143.507 7  -8720359.106 7
 91  5  3  3 17 30.0080000  0  4 16 13 20 12
  25554874.232    -7378761.590 6  -5749680.696 5
  26166358.200    11091009.257 6   8642366.316 3
  24463112.544   -13817220.602 7 -10766654.633 7
  24146639.636   -11108767.927 7  -8656170.381 7
 91  5  3  3 18  0.0080000  0  4 16 13 20 12
  25540565.437    -7453964.870 6  -5808280.523 5
  26181527.099    11170734.094 6   8704489.502 2
  24450007.710   -13886085.645 8 -10820315.654 8
  24162404.215   -11025906.438 7  -8591603.032 6
 91  5  3  3 18 30.0080000  0  4 16 13 20 12
  25526288.716    -7529009.789 6  -5866756.923 5
  26196692.106    11250426.296 6   8766587.314 4
  24436952.347   -13954699.188 8 -10873780.723 8
  24178265.329   -10942564.653 7  -8526661.413 7
 91  5  3  3 19  0.0080000  0  4 16 13 20 12
  25512033.284    -7603895.099 6  -5925108.974 4
  26211849.906    11330084.142 5   8828658.287 2
  24423944.047   -14023060.655 8 -10927049.355 8
  24194214.287   -10858747.343 7  -8461349.287 7
 91  5  3  3 19 30.0080000  0  4 16 13 20 12
  25497812.334    -7678616.691 6  -5983333.450 5
  26227006.223    11409709.229 5   8890703.827 3
  24410987.331   -14091166.302 8 -10980118.649 8
  24210250.496   -10774455.892 7  -8395667.686 7
 91  5  3  3 20  0.0080000  0  4 16 13 20 12
  25483625.254    -7753169.674 6  -6041426.555 5
  26242151.441    11489303.203 5   8952725.092 3
  24398073.471   -14159011.947 8 -11032985.335 8
  24226384.723   -10689691.240 7  -8329617.346 6
 91  5  3  3 20 30.0080000  0  4 16 13 20 12
  25469473.547    -7827548.279 6  -6099383.777 3
  26257296.049    11568868.967 6   9014724.354 2
  24385216.273   -14226592.321 8 -11085645.329 8
  24242605.294   -10604453.247 7  -8263198.187 6
 91  5  3  3 21  0.0080000  0  4 16 13 20 12
  25455358.118    -7901751.611 6  -6157204.428 5
  26272431.373    11648403.939 6   9076699.642 2
  24372402.229   -14293907.400 8 -11138098.591 8
  24258913.412   -10518747.400 7  -8196414.436 6
 91  5  3  3 21 30.0080000  0  4 16 13 20 12
  25441263.978    -7975780.813 6  -6214889.392 4
  26287553.802    11727904.205 5   9138647.896 3
  24359643.363   -14360958.720 8 -11190346.324 8
  24275310.247   -10432580.280 7  -8129271.270 6
 91  5  3  3 22  0.0080000  0  4 16 13 20 12
  25427213.011    -8049632.493 6  -6272436.022 4
  26302677.731    11807369.887 6   9200569.189 3
  24346936.969   -14427742.986 8 -11242385.970 8
  24291794.334   -10345954.458 7  -8061770.672 7
 91  5  3  3 22 30.0080000  0  4 16 13 20 12
  25413193.209    -8123302.764 6  -6329841.295 5
  26317792.673    11886802.160 5   9262464.340 3
  24334281.234   -14494257.054 8 -11294215.081 8
  24308364.467   -10258871.685 7  -7993914.022 6
 91  5  3  3 23  0.0080000  0  4 16 13 20 12
  25399211.484    -8196787.479 6  -6387101.975 5
  26332903.410    11966202.140 5   9324334.434 2
  24321674.952   -14560497.281 8 -11345830.799 8
  24325023.038   -10171333.844 7  -7925702.752 6
 91  5  3  3 23 30.0080000  0  4 16 13 20 12
  25385262.146    -8270086.020 6  -6444217.592 5
  26347998.861    12045567.264 5   9386177.348 2
  24309118.439   -14626464.395 8 -11397233.699 8
  24341764.952   -10083346.602 7  -7857141.294 7
 91  5  3  3 24  0.0080000  0  5  3 16 13 20 12
  27180735.972     -108722.623 4    -84718.980 3
  25371348.180    -8343192.451 6  -6501183.500 6
  26363107.207    12124900.378 5   9447995.394 2
  24296620.698   -14692152.025 8 -11448418.821 8
  24358598.287    -9994909.576 7  -7788229.391 6
 91  5  3  3 24 30.0080000  0  5  3 16 13 20 12
  27171198.364     -158796.426 4   -123737.398 2
  25357475.885    -8416102.189 6  -6557996.138 5
  26378190.058    12204204.203 5   9509790.520 1
  24284173.021   -14757555.688 8 -11499382.671 8
  24375510.183    -9906023.581 7  -7718967.623 6
 91  5  3  3 25  0.0080000  0  5  3 16 13 20 12
  27161690.456     -208807.306 4   -162706.781 2
  25343636.257    -8488815.037 6  -6614655.370 5
  26393276.818    12283474.799 5   9571559.732 1
  24271779.894   -14822677.067 8 -11550126.551 8
  24392509.609    -9816695.655 7  -7649361.486 6
 91  5  3  3 25 30.0080000  0  5  3 16 13 20 12
  27152178.045     -258757.312 4   -201628.666 4
  25329835.927    -8561329.757 6  -6671160.199 5
  26408355.168    12362711.195 5   9633302.466 1
  24259449.727   -14887514.993 8 -11600649.578 8
  24409592.098    -9726929.792 7  -7579414.092 6
 91  5  3  3 26  0.0080000  0  5  3 16 13 20 12
  27142693.206     -308649.099 4   -240505.252 2
  25316076.936    -8633645.361 6  -6727509.888 6
  26423419.749    12441910.424 5   9695016.079 3
  24247162.435   -14952068.688 8 -11650951.117 7
  24426755.208    -9636731.289 7  -7509129.573 6
 91  5  3  3 26 30.0080000  0  5  3 16 13 20 12
  27133201.771     -358477.492 4   -279332.399 3
  25302355.743    -8705753.633 6  -6783698.033 5
  26438487.017    12521078.947 5   9756705.797 2
  24234930.601   -15016330.510 8 -11701025.215 8
  24444001.973    -9546097.249 7  -7438505.695 6
 91  5  3  3 27  0.0080000  0  5  3 16 13 20 12
  27123738.221     -408243.127 4   -318110.741 3
  25288674.720    -8777651.095 6  -6839721.894 5
  26453555.489    12600217.340 5   9818372.016 3
  24222758.725   -15080297.456 8 -11750869.555 8
  24461331.471    -9455030.300 7  -7367544.478 6
 91  5  3  3 27 30.0080000  0  5  3 16 13 20 12
  27114279.767     -457942.672 4   -356837.513 2
  25275037.462    -8849330.824 6  -6895576.109 5
  26468602.969    12679328.469 5   9880016.961 2
  24210640.822   -15143963.467 8 -11800479.386 8
  24478741.012    -9363529.980 7  -7296245.558 6
 91  5  3  3 28  0.0080000  0  5  3 16 13 20 12
  27104831.207     -507577.810 4   -395514.157 2
  25261431.074    -8920790.484 6  -6951258.848 4
  26483653.154    12758412.431 5   9941640.881 1
  24198586.160   -15207326.461 8 -11849853.121 8
  24496235.710    -9271599.823 7  -7224611.720 7
 91  5  3  3 28 30.0080000  0  5  3 16 13 20 12
  27095397.951     -557159.207 4   -434148.910 2
  25247876.565    -8992037.800 6  -7006776.124 5
  26498702.431    12837458.789 5  10003235.364 1
  24186584.877   -15270394.655 8 -11898997.124 8
  24513811.639    -9179253.604 7  -7152653.697 7
 91  5  3  3 29  0.0080000  0  5  3 16 13 20 12
  27085976.369     -606678.026 4   -472734.810 1
  25234364.617    -9063059.827 6  -7062117.834 5
  26513730.419    12916476.921 5  10064807.872 3
  24174640.849   -15333156.027 8 -11947902.052 8
  24531465.518    -9086484.739 7  -7080366.322 6
 91  5  3  3 29 30.0080000  0  5  3 16 13 20 12
  27076555.695     -656137.184 4   -511274.391 2
  25220889.244    -9133856.299 6  -7117283.797 4
  26528767.708    12995464.510 5  10126356.616 2
  24162756.779   -15395610.405 8 -11996567.756 8
  24549196.440    -8993298.414 7  -7007753.650 6
 91  5  3  3 30  0.0080000  0  5  3 16 13 20 12
  27067153.604     -705533.713 4   -549765.005 3
  25207465.141    -9204420.251 6  -7172268.602 5
  26543792.118    13074426.322 5  10187885.219 2
  24150930.261   -15457751.148 8 -12044989.069 8
  24567013.113    -8899693.984 7  -6934815.171 5
 91  5  3  3 30 30.0080000  0  5  3 16 13 20 12
  27057775.788     -754869.219 4   -588208.152 3
  25194076.706    -9274750.000 6  -7227070.894 6
  26558811.416    13153360.460 5  10249392.427 1
  24139166.109   -15519577.812 8 -12093165.650 9
  24584899.621    -8805676.064 7  -6861554.507 6
 91  5  3  3 31  0.0080000  0  5  3 16 13 20 12
  27048390.485     -804147.337 4   -626606.626 1
  25180738.632    -9344844.823 6  -7281690.119 6
  26573827.730    13232265.248 6  10310876.574 2
  24127462.510   -15581089.437 8 -12141096.743 9
  24602870.379    -8711250.093 7  -6787975.873 6
 91  5  3  3 31 30.0080000  0  5  3 16 13 20 12
  27039029.769     -853375.239 4   -664965.813 2
  25167446.434    -9414708.772 6  -7336129.453 5
  26588833.242    13311133.401 5  10372332.200 1
  24115816.461   -15642291.405 8 -12188786.557 9
  24620912.804    -8616426.207 7  -6714087.159 6
 91  5  3  3 32  0.0080000  0  5  3 16 13 20 12
  27029674.149     -902549.124 4   -703283.083 3
  25154189.923    -9484334.521 6  -7390383.167 5
  26603837.253    13389969.415 5  10433762.759 2
  24104230.389   -15703176.318 8 -12236229.308 9
  24639034.646    -8521202.879 7  -6639887.196 6
 91  5  3  3 32 30.0080000  0  5  3 16 13 20 12
  27020326.626     -951670.035 4   -741559.031 3
  25140993.056    -9553718.988 6  -7444448.881 6
  26618831.370    13468773.481 5  10495168.430 1
  24092703.369   -15763741.709 8 -12283423.077 9
  24657232.658    -8425583.132 7  -6565378.338 5
 91  5  3  3 33  0.0080000  0  5  3 16 13 20 12
  27010986.589    -1000734.874 4   -779791.254 3
  25127836.063    -9622856.274 6  -7498321.979 6
  26633821.282    13547549.057 5  10556552.110 2
  24081239.012   -15823981.788 8 -12330363.374 9
  24675501.413    -8329567.357 7  -6490560.901 6
 91  5  3  3 33 30.0080000  0  5  3 16 13 20 12
  27001654.352    -1049743.383 4   -817979.594 3
  25114727.931    -9691742.704 6  -7551999.603 6
  26648803.411    13626297.368 5  10617914.380 1
  24069840.599   -15883893.201 8 -12377047.548 9
  24693849.602    -8233157.322 7  -6415436.244 6
 91  5  3  3 34  0.0080000  0  5  3 16 13 20 12
  26992343.683    -1098698.027 5   -856125.997 1
  25101666.286    -9760377.060 6  -7605480.817 6
  26663787.040    13705016.517 5  10679253.911 1
  24058500.645   -15943475.195 8 -12423475.041 9
  24712266.160    -8136358.314 7  -6340008.502 6
 91  5  3  3 34 30.0080000  0  5  3 16 13 20 12
  26983038.425    -1147597.081 4   -894229.067 1
  25088657.986    -9828752.795 7  -7658760.519 7
  26678765.277    13783710.373 5  10740573.850 1
  24047225.152   -16002722.082 8 -12469641.419 8
  24730762.152    -8039170.438 7  -6264277.751 6
 91  5  3  3 35  0.0080000  0  5  3 16 13 20 12
  26973748.766    -1196442.244 4   -932290.161 2
  25075693.765    -9896868.706 7  -7711837.741 5
  26693733.917    13862376.835 5  10801872.377 1
  24036017.715   -16061634.041 8 -12515546.804 9
  24749330.388    -7941599.035 7  -6188248.148 7
 91  5  3  3 35 30.0080000  0  5  3 16 13 20 12
  26964460.591    -1245232.765 5   -970308.674 3
  25062778.091    -9964720.868 7  -7764709.471 6
  26708701.353    13941017.970 6  10863151.066 3
  24024869.923   -16120206.047 8 -12561187.293 9
  24767965.196    -7843645.238 7  -6111920.574 7
 91  5  3  3 36  0.0080000  0  5  3 16 13 20 12
  26955183.811    -1293969.024 4  -1008284.991 2
  25049922.097   -10032305.508 7  -7817372.743 5
  26723660.395    14019633.730 5  10924410.047 2
  24013790.500   -16178435.884 8 -12606561.158 9
  24786680.345    -7745312.454 7  -6035297.666 6
 91  5  3  3 36 30.0080000  0  5  3 16 13 20 12
  26945920.520    -1342656.869 5  -1046223.425 2
  25037109.572   -10099625.579 7  -7869829.853 5
  26738610.153    14098219.811 5  10985645.869 2
  24002774.021   -16236326.525 8 -12651670.717 9
  24805464.440    -7646608.977 7  -5958385.916 6
 91  5  3  3 37  0.0080000  0  5  3 16 13 20 12
  26936665.640    -1391293.791 5  -1084122.264 3
  25024351.002   -10166674.338 7  -7922075.561 5
  26753561.099    14176778.734 5  11046860.635 1
  23991820.816   -16293871.884 8 -12696511.230 8
  24824317.184    -7547534.671 7  -5881185.189 4
 91  5  3  3 37 30.0080000  0  5  3 16 13 20 12
  26927417.339    -1439875.076 5  -1121977.792 2
  25011646.406   -10233443.372 7  -7974103.299 4
  26768503.947    14255316.636 5  11108058.981 2
  23980938.650   -16351064.050 8 -12741076.527 9
  24843242.190    -7448087.096 7  -5803693.609 5
 91  5  3  3 38  0.0080000  0  5  3 16 13 20 12
  26918185.825    -1488408.336 5  -1159795.815 2
  24998989.466   -10299937.006 7  -8025916.438 5
  26783443.811    14333826.452 5  11169235.410 1
  23970121.836   -16407907.814 8 -12785370.351 8
  24862237.031    -7348276.910 6  -5725919.491 6
 91  5  3  3 38 30.0080000  0  5  3 16 13 20 12
  26908949.529    -1536895.290 5  -1197577.751 3
  24986387.390   -10366153.549 7  -8077513.672 6
  26798379.470    14412307.590 5  11230389.498 2
  23959371.874   -16464401.658 8 -12829391.505 9
  24881300.539    -7248108.579 6  -5647866.296 6
 91  5  3  3 39  0.0080000  0  5  3 16 13 20 12
  26899740.805    -1585332.949 5  -1235321.287 3
  24973841.364   -10432086.551 7  -8128889.971 5
  26813316.630    14490763.581 5  11291524.020 2
  23948690.875   -16520539.664 8 -12873135.376 8
  24900423.098    -7147581.856 6  -5569533.810 5
 91  5  3  3 39 30.0080000  0  5  3 16 13 20 12
  26890534.768    -1633721.439 5  -1273026.612 2
  24961348.422   -10497732.350 7  -8180042.458 6
  26828235.798    14569196.363 5  11352640.479 1
  23938072.819   -16576318.367 8 -12916599.286 8
  24919628.092    -7046699.065 6  -5490923.886 5
 91  5  3  3 40  0.0080000  0  5  3 16 13 20 12
  26881335.345    -1682062.727 5  -1310695.142 2
  24948915.421   -10563089.255 7  -8230969.834 6
  26843154.076    14647603.906 5  11413737.204 1
  23927528.211   -16631736.868 8 -12959782.505 8
  24938887.967    -6945464.897 6  -5412040.176 5
 91  5  3  3 40 30.0080000  0  5  3 16 13 20 12
  26872141.000    -1730356.708 4  -1348326.717 2
  24936532.205   -10628153.443 7  -8281669.123 7
  26858069.650    14725987.247 5  11474815.003 1
  23917051.362   -16686792.177 8 -13002682.735 9
  24958220.680    -6843881.800 6  -5332884.560 6
 91  5  3  3 41  0.0080000  0  5  3 16 13 20 12
  26862961.958    -1778602.917 4  -1385921.153 2
  24924211.025   -10692921.457 7  -8332137.612 6
  26872987.614    14804347.429 5  11535874.897 2
  23906642.272   -16741480.964 8 -13045297.349 9
  24977614.555    -6741952.507 6  -5253459.204 5
 91  5  3  3 41 30.0080000  0  5  3 16 13 20 12
  26853788.012    -1826801.731 5  -1423478.595 2
  24911938.427   -10757389.854 7  -8382372.654 6
  26887887.308    14882684.988 5  11596917.062 3
  23896306.927   -16795800.537 8 -13087624.268 9
  24997076.486    -6639679.957 6  -5173766.348 5
 91  5  3  3 42  0.0080000  0  5  3 16 13 20 12
  26844621.256    -1874951.708 5  -1460997.953 2
  24899728.475   -10821553.216 7  -8432369.995 6
  26902797.176    14961003.116 5  11657944.061 2
  23886043.232   -16849745.604 8 -13129659.358 9
  25016600.767    -6537064.853 7  -5093806.592 5
 91  5  3  3 42 30.0080000  0  5  3 16 13 20 12
  26835476.679    -1923050.196 5  -1498477.211 2
  24887581.779   -10885406.349 7  -8482125.602 6
  26917697.759    15039304.368 5  11718958.026 2
  23875850.001   -16903311.476 8 -13171398.985 9
  25036196.402    -6434108.039 6  -5013580.551 5
 91  5  3  3 43  0.0080000  0  5  3 16 13 20 12
  26826326.413    -1971105.296 4  -1535922.687 3
  24875482.461   -10948953.045 7  -8531642.428 6
  26932591.154    15117582.266 5  11779953.749 1
  23865726.903   -16956502.436 8 -13212846.460 9
  25055850.791    -6330819.818 6  -4933096.267 5
 91  5  3  3 43 30.0080000  0  5  3 16 13 20 12
  26817188.152    -2019115.257 4  -1573332.928 2
  24863452.997   -11012188.616 7  -8580916.824 7
  26947477.341    15195839.115 5  11840932.997 1
  23855682.663   -17009313.773 8 -13253998.135 9
  25075567.845    -6227201.400 6  -4852354.727 5
 91  5  3  3 44  0.0080000  0  5  3 16 13 20 12
  26808067.255    -2067075.706 5  -1610704.526 2
  24851481.973   -11075105.113 7  -8629942.587 6
  26962378.239    15274080.626 5  11901900.401 4
  23845701.365   -17061738.399 8 -13294848.466 9
  25095349.359    -6123251.462 6  -4771354.818 4
 91  5  3  3 44 30.0080000  0  5  3 16 13 20 12
  26798946.375    -2114995.874 5  -1648044.780 4
  24839567.924   -11137708.285 7  -8678724.195 6
  26977249.140    15352298.442 5  11962849.692 1
  23835798.628   -17113782.179 8 -13335402.046 9
  25115193.817    -6018981.590 6  -4690105.609 6
 91  5  3  3 45  0.0080000  0  5  3 16 13 20 12
  26789828.794    -2162875.414 5  -1685353.316 2
  24827714.427   -11199993.529 7  -8727258.077 6
  26992141.627    15430493.481 5  12023780.967 1
  23825969.025   -17165441.660 8 -13375656.162 9
  25135096.436    -5914394.087 6  -4608608.920 5
 91  5  3  3 45 30.0080000  0  5  3 16 13 20 12
  26780724.387    -2210710.657 5  -1722627.392 2
  24815923.001   -11261954.570 7  -8775539.325 7
  27007010.731    15508670.421 5  12084698.013 3
  23816207.775   -17216710.471 8 -13415605.860 9
  25155052.417    -5809488.332 6  -4526864.236 5
 91  5  3  3 46  0.0080000  0  5  3 16 13 20 12
  26771636.174    -2258509.691 5  -1759873.223 4
  24804193.017   -11323595.030 7  -8823570.772 6
  27021881.335    15586822.168 5  12145595.469 2
  23806531.088   -17267593.027 8 -13455254.569 9
  25175081.847    -5704274.746 6  -4444879.676 3
 91  5  3  3 46 30.0080000  0  5  3 16 13 20 12
  26762556.372    -2306263.506 5  -1797083.888 2
  24792526.587   -11384902.922 7  -8871343.082 6
  27036755.849    15664958.850 5  12206481.094 1
  23796926.331   -17318077.956 8 -13494593.449 9
  25195160.451    -5598747.525 6  -4362650.724 4
 91  5  3  3 47  0.0080000  0  5  3 16 13 20 12
  26753470.253    -2353979.609 5  -1834265.175 3
  24780927.026   -11445882.549 7  -8918859.596 6
  27051623.155    15743074.264 5  12267350.211 2
  23787387.536   -17368168.885 8 -13533625.316 9
  25215300.219    -5492916.548 6  -4280185.060 4
 91  5  3  3 47 30.0080000  0  5  3 16 13 20 12
  26744396.140    -2401656.234 5  -1871415.657 2
  24769385.609   -11506529.321 7  -8966116.735 7
  27066472.767    15821170.081 5  12328204.009 1
  23777932.973   -17417862.281 8 -13572347.420 9
  25235498.427    -5386783.442 6  -4197484.021 4
 91  5  3  3 48  0.0080000  0  5  3 16 13 20 12
  26735333.718    -2449294.600 5  -1908536.417 3
  24757907.449   -11566840.316 7  -9013112.250 7
  27081337.682    15899247.326 5  12389043.429 2
  23768552.469   -17467155.213 8 -13610757.479 9
  25255750.312    -5280351.022 6  -4114549.695 5
 91  5  3  3 48 30.0080000  0  5  3 16 13 20 12
  26726273.094    -2496893.219 5  -1945626.155 4
  24746494.064   -11626810.876 7  -9059842.493 6
  27096192.390    15977307.269 5  12449869.292 2
  23759250.805   -17516043.865 8 -13648852.503 9
  25276059.452    -5173621.438 6  -4031383.865 6
 91  5  3  3 49  0.0080000  0  5  3 16 13 20 12
  26717228.349    -2544451.911 5  -1982684.740 3
  24735143.012   -11686436.616 7  -9106304.034 6
  27111045.317    16055352.133 5  12510683.412 3
  23750023.200   -17564524.685 8 -13686629.741 9
  25296427.346    -5066597.086 6  -3947988.323 5
 91  5  3  3 49 30.0080000  0  5  3 16 13 20 12
  26708181.511    -2591973.428 5  -2019714.421 5
  24723869.019   -11745718.236 7  -9152497.432 7
  27125888.647    16133378.970 5  12571483.538 1
  23740875.935   -17612598.332 8 -13724089.709 9
  25316850.103    -4959284.402 6  -3864368.121 5
 91  5  3  3 50  0.0080000  0  5  3 16 13 20 12
  26699147.568    -2639456.760 5  -2056714.317 9
  24712652.892   -11804650.009 7  -9198418.229 6
  27140738.258    16211390.929 5  12632271.943
  23731806.917   -17660259.532 9 -13761228.281 9
  25337323.240    -4851684.100 6  -3780523.801 5
 91  5  3  3 50 30.0080000  0  5  3 16 13 20 12
  26690118.110    -2686902.856 5  -2093685.290 3
  24701504.803   -11863229.846 7  -9244064.776 7
  27155584.572    16289387.839 5  12693048.735 1
  23722818.240   -17707506.928 9 -13798044.412 9
  25357852.130    -4743800.339 6  -3696458.606 5
 91  5  3  3 51  0.0080000  0  5  3 16 13 20 12
  26681082.370    -2734314.808 5  -2130629.593 2
  24690424.176   -11921457.949 7  -9289437.244 7
  27170425.215    16367366.636 5  12753811.383 2
  23713905.105   -17754340.942 9 -13834538.425 9
  25378438.274    -4635638.967 6  -3612177.086 6
 91  5  3  3 51 30.0080000  0  5  3 16 13 20 12
  26672074.515    -2781689.784 5  -2167545.071 3
  24679411.902   -11979327.866 7  -9334530.616 7
  27185255.631    16445331.927 5  12814563.507 2
  23705071.421   -17800755.367 8 -13870705.488 9
  25399070.591    -4527200.135 6  -3527679.381 5
 91  5  3  3 52  0.0080000  0  5  3 16 13 20 12
  26663063.938    -2829031.083 5  -2204434.324 2
  24668469.167   -12036839.906 7  -9379345.104 7
  27200092.068    16523280.674 5  12875302.649 2
  23696316.874   -17846750.836 8 -13906546.090 9
  25419756.271    -4418490.145 6  -3442970.364 5
 91  5  3  3 52 30.0080000  0  5  3 16 13 20 12
  26654062.679    -2876340.957 5  -2241299.040 2
  24657592.098   -12093992.434 7  -9423879.472 7
  27214920.705    16601212.717 5  12936029.033 2
  23687647.187   -17892326.159 8 -13942059.312 9
  25440492.609    -4309513.232 6  -3358053.375 4
 91  5  3  3 53  0.0080000  0  5  3 16 13 20 12
  26645074.892    -2923613.189 5  -2278134.466 3
  24646788.179   -12150776.773 7  -9468126.942 8
  27229753.529    16679134.237 5  12996747.011 1
  23679054.229   -17937472.856 8 -13977238.524 9
  25461280.827    -4200266.752 6  -3272926.309 4
 91  5  3  3 53 30.0080000  0  5  3 16 13 20 12
  26636080.230    -2970847.489 5  -2314940.333 1
  24636050.816   -12207188.198 7  -9512083.817 8
  27244572.272    16757047.288 5  13057458.389 2
  23670548.225   -17982187.201 9 -14012080.852 9
  25482124.501    -4090752.687 6  -3187590.731 4
 91  5  3  3 54  0.0080000  0  5  3 16 13 20 12
  26627095.444    -3018047.819 5  -2351719.716 2
  24625384.492   -12263227.868 7  -9555751.006 7
  27259402.112    16834948.058 5  13118160.178 1
  23662118.653   -18026471.322 8 -14046587.931 9
  25503011.330    -3980979.169 6  -3102052.968 2
 91  5  3  3 54 30.0080000  0  5  3 16 13 20 12
  26618119.960    -3065220.500 5  -2388477.567 3
  24614798.824   -12318898.242 7  -9599130.439 7
  27274216.649    16912832.602 5  13178849.358 1
  23653774.534   -18070327.061 9 -14080761.201 9
  25523948.834    -3870954.243 6  -3016319.302 4
 91  5  3  3 55  0.0080000  0  5  3 16 13 20 12
  26609160.058    -3112365.560 5  -2425213.944 3
  24604268.612   -12374196.884 7  -9642220.220 8
  27289033.594    16990701.140 5  13239526.117
  23645508.052   -18113752.494 9 -14114599.176 9
  25544928.916    -3760680.801 6  -2930392.042 4
 91  5  3  3 55 30.0080000  0  5  3 16 13 20 12
  26600180.386    -3159483.036 5  -2461928.841 2
  24593818.148   -12429120.003 7  -9685017.393 7
  27303846.037    17068554.093 5  13300190.748 1
  23637330.322   -18156744.322 9 -14148099.267 9
  25565962.048    -3650161.781 6  -2844273.372 3
 91  5  3  3 56  0.0080000  0  5  3 16 13 20 12
  26591225.283    -3206568.990 5  -2498619.133 4
  24583439.334   -12483661.010 7  -9727516.798 7
  27318660.591    17146396.317 4  13360846.983 2
  23629232.321   -18199296.646 9 -14181256.900 9
  25587041.666    -3539396.855 6  -2757963.095 3
 91  5  3  3 56 30.0080000  0  5  3 16 13 20 12
  26582277.370    -3253625.077 5  -2535286.162 4
  24573132.468   -12537817.729 7  -9769716.745 8
  27333464.937    17224228.148 4  13421495.088 1
  23621216.180   -18241407.350 9 -14214070.413 9
  25608162.939    -3428390.194 6  -2671464.460 4
 91  5  3  3 57  0.0080000  0  5  3 16 13 20 12
  26573324.378    -3300650.722 5  -2571929.482 2
  24562906.256   -12591587.315 7  -9811615.058 8
  27348282.179    17302050.612 4  13482135.936 2
  23613290.256   -18283073.220 9 -14246537.289 9
  25629332.775    -3317144.437 6  -2584779.542 5
 91  5  3  3 57 30.0080000  0  5  3 16 13 20 12
  26564377.058    -3347652.906 5  -2608554.543 2
  24552739.690   -12644973.207 7  -9853214.384 8
  27363082.633    17379857.266 4  13542764.500 2
  23605444.987   -18324299.349 9 -14278661.522 9
  25650553.584    -3205669.248 6  -2497915.860 4
 91  5  3  3 58  0.0080000  0  5  3 16 13 20 12
  26555442.058    -3394623.014 5  -2645154.549 3
  24542657.669   -12697962.585 7  -9894504.736 8
  27377893.576    17457658.496 4  13603388.625 1
  23597686.062   -18365073.109 9 -14310433.257 9
  25671801.981    -3093958.659 6  -2410868.739 5
 91  5  3  3 58 30.0080000  0  5  3 16 13 20 12
  26546509.728    -3441563.962 5  -2681731.877 3
  24532653.006   -12750555.500 7  -9935486.180 8
  27392696.735    17535451.994 4  13664007.028 2
  23590013.166   -18405395.226 9 -14341853.069 9
  25693102.240    -2982018.710 5  -2323642.900 3
 91  5  3  3 59  0.0080000  0  5  3 16 13 20 12
  26537581.918    -3488475.636 5  -2718286.422 2
  24522719.679   -12802749.155 7  -9976156.492 8
  27407497.783    17613238.998 4  13724620.123 2
  23582428.429   -18445262.209 9 -14372918.221 9
  25714454.955    -2869851.805 5  -2236240.180 5
 91  5  3  3 59 30.0080000  0  5  3 16 13 20 12
  26528657.684    -3535357.875 5  -2754818.003 3
  24512862.190   -12854540.816 7 -10016513.561 8
  27422293.438    17691020.455 4  13785229.096 2
  23574926.424   -18484671.888 9 -14403627.037 9
  25735836.148    -2757461.311 5  -2148663.283 4
 91  5  3  4  0  0.0080000  0  5  3 16 13 20 12
  26519740.361    -3582213.948 5  -2791329.157 3
  24503084.170   -12905929.859 7 -10056556.892 8
  27437102.286    17768794.573 4  13845832.142 2
  23567514.356   -18523624.223 9 -14433979.488 9
  25757274.002    -2644853.027 6  -2060916.643 5
 91  5  3  4  0 30.0080000  0  5  3 16 13 20 12
  26510832.932    -3629041.577 5  -2827818.166 2
  24493384.990   -12956910.964 7 -10096282.376 8
  27451898.850    17846563.986 4  13906431.653 1
  23560189.523   -18562114.639 9 -14463972.000 9
  25778749.043    -2532027.807 6  -1973000.980 4
 91  5  3  4  1  0.0080000  0  5  3 16 13 20 12
  26501924.596    -3675843.538 5  -2864287.198 2
  24483761.649   -13007483.303 7 -10135689.327 7
  27466698.100    17924326.872 4  13967026.069 2
  23552954.034   -18600142.908 9 -14493604.390 9
  25800251.655    -2418991.388 6  -1884920.763 4
 91  5  3  4  1 30.0080000  0  5  3 16 13 20 12
  26493028.563    -3722619.441 5  -2900735.932 3
  24474212.052   -13057644.485 7 -10174775.889 7
  27481494.052    18002084.734 4  14027616.520 2
  23545804.872   -18637706.137 9 -14522874.424 9
  25821795.048    -2305746.542 6  -1796678.113 4
 91  5  3  4  2  0.0080000  0  5  3 16 13 20 12
  26484121.430    -3769369.539 5  -2937164.522 3
  24464745.204   -13107391.181 7 -10213539.487 8
  27496290.022    18079839.478 4  14088204.593 1
  23538745.962   -18674801.456 9 -14551779.842 9
  25843381.299    -2192296.203 6  -1708275.350 4
 91  5  3  4  2 30.0080000  0  5  3 16 13 20 12
  26475237.071    -3816089.795 5  -2973569.901 2
  24455361.105   -13156715.933 7 -10251974.299 7
  27511089.273    18157595.253 4  14148793.366 1
  23531776.991   -18711422.702 9 -14580315.859 9
  25865021.820    -2078639.438 6  -1619711.718 5
 91  5  3  4  3  0.0080000  0  5  3 16 13 20 12
  26466353.619    -3862788.588 5  -3009958.511 3
  24446055.253   -13205625.271 7 -10290085.417 7
  27525881.037    18235344.280 4  14209376.933 2
  23524896.161   -18747575.525 9 -14608486.864 9
  25886680.018    -1964787.611 6  -1530996.083 3
 91  5  3  4  3 30.0080000  0  5  3 16 13 20 12
  26457466.869    -3909468.191 5  -3046332.236 3
  24436826.130   -13254117.202 7 -10327871.285 7
  27540673.395    18313086.064 4  14269954.851 1
  23518108.253   -18783259.327 9 -14636292.401 9
  25908381.702    -1850745.488 6  -1442132.179 3
 91  5  3  4  4  0.0080000  0  5  3 16 13 20 12
  26448595.719    -3956126.731 5  -3082689.524 2
  24427674.381   -13302187.235 7 -10365328.399 8
  27555471.441    18390822.763 4  14330528.948 1
  23511408.189   -18818469.770 9 -14663729.096 9
  25930122.056    -1736514.722 6  -1353121.271 3
 91  5  3  4  4 30.0080000  0  5  3 16 13 20 12
  26439717.659    -4002759.764 6  -3119026.921 3
  24418613.146   -13349828.252 7 -10402451.224 8
  27570262.612    18468559.897 4  14391103.214 1
  23504797.174   -18853200.015 9 -14690791.602 9
  25951889.981    -1622093.619 6  -1263962.044 3
 91  5  3  4  5  0.0080000  0  5  3 16 13 20 12
  26430842.007    -4049372.669 5  -3155348.630 3
  24409628.063   -13397041.925 7 -10439241.047 7
  27585057.064    18546293.692 4  14451674.942 2
  23498278.488   -18887452.230 9 -14717481.622 9
  25973705.284    -1507490.644 6  -1174661.108 3
 91  5  3  4  5 30.0090000  0  5  3 16 13 20 12
  26421990.335    -4095964.150 5  -3191653.713 7
  24400725.733   -13443824.707 7 -10475695.109 9
  27599844.032    18624029.910 4  14512248.539 2
  23491853.636   -18921222.592 9 -14743796.173 9
  25995543.955    -1392702.224 6  -1085215.642 3
 91  5  3  4  6  0.0090000  0  5  3 16 13 20 12
  26413117.074    -4142532.479 5  -3227940.643 4
  24391905.242   -13490172.239 8 -10511810.028 8
  27614641.485    18701763.246 4  14572819.864
  23485519.311   -18954507.657 9 -14769732.566 9
  26017421.014    -1277740.327 6   -995635.043 2
 91  5  3  4  6 30.0090000  0  5  3 16 13 20 12
  26404251.613    -4189079.340 5  -3264210.891 2
  24383170.186   -13536082.722 8 -10547584.378 9
  27629426.950    18779497.287 4  14633391.837 1
  23479278.834   -18987306.194 9 -14795289.855 9
  26039323.550    -1162604.118 5   -905918.642 3
 91  5  3  4  7  0.0090000  0  5  3 16 13 20 12
  26395401.752    -4235608.547 5  -3300467.361 3
  24374515.471   -13581557.016 8 -10583018.841 8
  27644215.713    18857228.988 4  14693961.839 2
  23473132.187   -19019618.893 9 -14820468.560 9
  26061275.854    -1047300.225 5   -816071.509 4
 91  5  3  4  7 30.0090000  0  5  3 16 13 20 12
  26386556.673    -4282119.225 6  -3336709.374 4
  24365949.508   -13626591.336 8 -10618110.470 8
  27659013.166    18934960.135 4  14754531.652 2
  23467074.274   -19051442.869 9 -14845266.443 9
  26083242.555     -931830.884 5   -726095.504 2
 91  5  3  4  8  0.0090000  0  5  3 16 13 20 12
  26377706.795    -4328608.568 5  -3372934.805 4
  24357458.773   -13671180.714 7 -10652855.394 8
  27673813.010    19012694.394 4  14815103.533 2
  23461111.116   -19082773.136 9 -14869679.625 9
  26105253.317     -816196.826 5   -635991.141 3
 91  5  3  4  8 30.0090000  0  5  3 16 13 20 12
  26368871.314    -4375080.127 5  -3409146.382 2
  24349058.291   -13715325.404 7 -10687253.822 9
  27688603.274    19090429.530 4  14875676.395 1
  23455242.381   -19113610.354 9 -14893708.608 9
  26127280.867     -700404.121 5   -545763.183 3
 91  5  3  4  9  0.0090000  0  5  3 16 13 20 12
  26360028.032    -4421531.973 5  -3445342.595 3
  24340750.748   -13759020.382 7 -10721301.811 8
  27703390.239    19168168.332 4  14936251.919 1
  23449466.568   -19143950.160 9 -14917349.993 9
  26149345.585     -584453.938 5   -455412.497 3
 91  5  3  4  9 30.0090000  0  5  3 16 13 20 12
  26351192.550    -4467961.449 5  -3481521.384 3
  24332516.357   -13802260.158 7 -10754995.092 8
  27718191.601    19245914.605 4  14996833.395 2
  23443793.607   -19173787.702 9 -14940600.012 9
  26171444.785     -468346.372 5   -364939.162 3
 91  5  3  4 10  0.0090000  0  5  3 16 13 20 12
  26342365.759    -4514377.994 5  -3517690.076 3
  24324375.185   -13845051.809 7 -10788339.185 7
  27732977.659    19323659.978 4  15057414.163 2
  23438209.066   -19203129.394 9 -14963463.652 9
  26193562.570     -352093.962 5   -274352.978 4
 91  5  3  4 10 30.0090000  0  5  3 16 13 20 12
  26333523.978    -4560779.642 5  -3553847.151 4
  24316317.058   -13887390.773 8 -10821330.531 7
  27747778.114    19401406.913 4  15117996.051 2
  23432719.873   -19231971.320 9 -14985937.868 9
  26215722.339     -235698.166 5   -183655.046 2
 91  5  3  4 11  0.0090000  0  5  3 16 13 20 12
  26324701.096    -4607168.944 5  -3589994.625 3
  24308348.573   -13929276.551 8 -10853968.761 7
  27762569.581    19479153.995 4  15178578.105 2
  23427326.901   -19260314.048 9 -15008023.091 9
  26237891.689     -119164.567 5    -92849.741 2
 91  5  3  4 11 30.0090000  0  4  3 16 20 12
  26315874.898    -4653534.756 5  -3626123.834 3
  24300461.947   -13970695.591 8 -10886243.281 7
  23422031.964   -19288143.628 9 -15029708.463 9
  26260099.412       -2484.461 5     -1930.287 4
 91  5  3  4 12  0.0090000  0  4  3 16 20 12
  26307059.501    -4699884.118 5  -3662240.165 2
  24292670.635   -14011651.374 8 -10918156.839 8
  23416831.468   -19315464.421 8 -15050997.380 9
  26282331.129      114332.119 5     89095.515 4
 91  5  3  4 12 30.0090000  0  4  3 16 20 12
  26298234.211    -4746218.337 5  -3698344.688 4
  24284964.165   -14052143.440 8 -10949709.044 8
  23411730.804   -19342276.367 8 -15071889.798 9
  26304579.913      231280.095 5    180223.672 4
 91  5  3  4 13  0.0090000  0  4  3 16 20 12
  26289424.817    -4792538.302 5  -3734438.154 4
  24277345.836   -14092169.885 8 -10980898.428 8
  23406723.970   -19368577.336 9 -15092384.045 9
  26326856.895      348356.069 5    271451.582 4
 91  5  3  4 13 30.0090000  0  4  3 16 20 12
  26280610.904    -4838845.109 5  -3770521.358 5
  24269822.855   -14131729.092 7 -11011723.726 7
  23401816.655   -19394366.404 9 -15112479.409 9
  26349165.044      465555.878 5    362776.001 4
 91  5  3  4 14  0.0090000  0  4  3 16 20 12
  26271803.308    -4885136.518 6  -3806592.542 4
  24262384.403   -14170815.940 8 -11042180.946 8
  23397005.595   -19419638.966 9 -15132172.298 9
  26371491.795      582878.447 5    454196.082 3
 91  5  3  4 14 30.0090000  0  4  3 16 20 12
  26262998.103    -4931412.348 5  -3842651.608 3
  24255034.982   -14209428.155 8 -11072268.350 8
  23392298.852   -19444392.414 9 -15151460.683 9
  26393837.724      700321.080 5    545709.718 4
 91  5  3  4 15  0.0090000  0  4  3 16 20 12
  26254190.507    -4977673.049 6  -3878698.861 3
  24247778.519   -14247563.499 8 -11101984.153 8
  23387685.643   -19468625.078 9 -15170343.259 9
  26416207.036      817880.431 5    637314.289 4
 91  5  3  4 15 30.0090000  0  4  3 16 20 12
  26245396.993    -5023918.128 6  -3914733.951 5
  24240614.367   -14285218.855 8 -11131325.940 8
  23383175.861   -19492334.544 9 -15188818.148 9
  26438598.545      935553.896 6    729007.784 4
 91  5  3  4 16  0.0090000  0  4  3 16 20 12
  26236603.183    -5070152.420 6  -3950760.673 4
  24233536.576   -14322396.611 8 -11160295.564 7
  23378761.427   -19515523.323 8 -15206887.318 9
  26461011.325     1053333.267 5    820783.803 3
 91  5  3  4 16 30.0090000  0  4  3 16 20 12
  26227798.571    -5116377.408 5  -3986780.089 4
  24226552.911   -14359095.644 8 -11188892.153 9
  23374450.996   -19538190.903 9 -15224550.355 9
  26483451.084     1171214.301 6    912639.049 3
 91  5  3  4 17  0.0090000  0  4  3 16 20 12
  26219011.653    -5162587.379 6  -4022787.852 4
  24219666.078   -14395308.046 8 -11217109.567 7
  23370237.414   -19560329.184 9 -15241800.948 9
  26505898.346     1289199.702 6   1004575.597 4
 91  5  3  4 17 30.0090000  0  4  3 16 20 12
  26210223.532    -5208786.196 6  -4058786.877 2
  24212866.775   -14431034.642 8 -11244948.420 8
  23366122.775   -19581940.173 9 -15258640.671 9
  26528367.490     1407282.280 6   1096587.901 3
 91  5  3  4 18  0.0090000  0  4  3 16 20 12
  26201427.627    -5254973.280 6  -4094776.797 4
  24206161.023   -14466272.895 8 -11272406.760 8
  23362111.249   -19603021.162 9 -15275067.398 9
  26550855.219     1525459.586 5   1188673.980 2
 91  5  3  4 18 30.0090000  0  4  3 16 20 12
  26192637.411    -5301148.755 5  -4130757.667 4
  24199548.507   -14501020.822 8 -11299483.009 8
  23358199.853   -19623570.627 9 -15291079.957 9
  26573357.048     1643728.029 5   1280831.099 3
 91  5  3  4 19  0.0090000  0  4  3 16 20 12
  26183862.186    -5347309.928 6  -4166727.376 3
  24193028.321   -14535273.352 8 -11326173.263 8
  23354390.697   -19643583.160 9 -15306674.123 9
  26595883.447     1762087.820 5   1373059.393 2
 91  5  3  4 19 30.0090000  0  4  3 16 20 12
  26175074.675    -5393459.573 6  -4202688.145 4
  24186608.857   -14569030.703 8 -11352477.649 8
  23350686.155   -19663060.044 9 -15321850.907 9
  26618424.242     1880532.553 5   1465353.878 2
 91  5  3  4 20  0.0090000  0  4  3 16 20 12
  26166301.543    -5439582.123 5  -4238627.750 5
  24180279.942   -14602274.850 8 -11378382.141 8
  23347087.449   -19681983.358 9 -15336596.337 9
  26640983.326     1999075.252 5   1557724.678 2
 91  5  3  4 20 30.0090000  0  4  3 16 20 12
  26157525.130    -5485695.932 6  -4274560.549 5
  24174047.248   -14635022.193 8 -11403899.506 8
  23343587.075   -19700369.644 9 -15350923.298 9
  26663560.400     2117694.454 5   1650155.093 3
 91  5  3  4 21  0.0090000  0  4  3 16 20 12
  26148750.498    -5531803.770 5  -4310488.714 3
  24167909.901   -14667273.215 8 -11429030.144 9
  23340190.129   -19718219.606 9 -15364832.343 9
  26686146.164     2236384.160 5   1742640.452 2
 91  5  3  4 21 30.0090000  0  4  3 16 20 12
  26139971.974    -5577897.957 5  -4346406.217 5
  24161871.184   -14699017.031 8 -11453765.552 8
  23336895.999   -19735523.895 9 -15378316.204 9
  26708740.619     2355148.950 5   1835184.276 4
 91  5  3  4 22  0.0090000  0  5  3 16 20 12 17
  26131210.534    -5623980.618 6  -4382314.760 4
  24155926.296   -14730254.521 8 -11478106.417 8
  23333708.612   -19752282.917 9 -15391375.174 9
  26731359.958     2473983.618 5   1927782.578 2
  27030590.009     -175688.461 4   -136900.354 2
 91  5  3  4 22 30.0090000  0  5  3 16 20 12 17
  26122440.106    -5670056.276 6  -4418217.854 4
  24150078.554   -14760987.887 8 -11502054.470 8
  23330619.243   -19768498.977 9 -15404011.049 9
  26753976.906     2592880.550 5   2020429.436 2
  27015206.770     -256492.153 4   -199864.176 3
 91  5  3  4 23  0.0090000  0  5  3 16 20 12 17
  26113673.274    -5716119.459 6  -4454111.196 5
  24144324.327   -14791209.460 8 -11525603.712 8
  23327642.602   -19784164.715 9 -15416218.115 9
  26776614.532     2711842.053 5   2113126.574 2
  26999857.087     -337110.987 4   -262683.962 1
 91  5  3  4 23 30.0090000  0  5  3 16 20 12 17
  26104907.942    -5762172.977 6  -4489997.043 5
  24138674.138   -14820920.425 8 -11548755.087 8
  23324762.496   -19799281.931 9 -15427997.756 9
  26799268.056     2830861.780 5   2205869.081 2
  26984562.582     -417547.590 4   -325361.753 3
 91  5  3  4 24  0.0090000  0  5  3 16 20 12 17
  26096146.520    -5808218.807 6  -4525876.877 5
  24133116.000   -14850119.847 8 -11571507.854 8
  23321989.115   -19813850.069 9 -15439349.546 9
  26821927.862     2949935.396 5   2298653.609 2
  26969292.054     -497801.938 4   -387897.470 2
 91  5  3  4 24 30.0090000  0  5  3 16 20 12 17
  26087387.784    -5854255.128 6  -4561749.290 4
  24127657.973   -14878804.419 8 -11593859.427 9
  23319322.774   -19827865.981 9 -15450271.032 9
  26844604.175     3069061.188 5   2391478.741 2
  26954049.393     -577871.074 4   -450288.894 2
 91  5  3  4 25  0.0090000  0  5  3 16 20 12 17
  26078626.937    -5900282.764 6  -4597614.953 5
  24122296.184   -14906971.971 8 -11615808.124 8
  23316762.548   -19841328.428 8 -15460761.238 9
  26867279.861     3188235.481 5   2484341.694 3
  26938847.531     -657754.036 4   -512535.307 2
 91  5  3  4 25 30.0090000  0  5  3 16 20 12 17
  26069871.203    -5946302.118 6  -4633474.161 5
  24117036.025   -14934622.546 8 -11637353.991 8
  23314306.343   -19854236.490 8 -15470819.459 9
  26889971.164     3307454.589 4   2577239.601 1
  26923683.414     -737450.630 4   -574636.482 2
 91  5  3  4 26  0.0090000  0  5  3 16 20 12 17
  26061117.563    -5992310.447 6  -4669324.772 5
  24111871.494   -14961749.781 8 -11658492.065 8
  23311957.474   -19866585.307 8 -15480441.904 9
  26912654.650     3426718.556 4   2670172.377 1
  26908560.096     -816956.739 4   -636589.212 1
 91  5  3  4 26 30.0090000  0  5  3 16 20 12 17
  26052360.329    -6038310.285 6  -4705168.788 4
  24106809.500   -14988354.526 8 -11679222.993 8
  23309712.015   -19878376.080 9 -15489629.514 9
  26935362.444     3546021.356 4   2763135.443 1
  26893466.739     -896272.958 4   -698393.955 2
 91  5  3  4 27  0.0090000  0  5  3 16 20 12 17
  26043617.176    -6084300.181 6  -4741005.042 3
  24101850.043   -15014433.795 8 -11699544.474 9
  23307576.300   -19889605.615 9 -15498379.801 9
  26958079.207     3665361.231 4   2856127.419 3
  26878411.163     -975396.785 4   -760048.810 3
 91  5  3  4 27 30.0090000  0  5  3 16 20 12 17
  26034859.645    -6130281.378 6  -4776834.498 5
  24096985.306   -15039987.304 8 -11719456.258 8
  23305548.201   -19900273.991 9 -15506692.817 9
  26980787.297     3784733.934 4   2949144.935 2
  26863384.658    -1054328.802 4   -821554.209 2
 91  5  3  4 28  0.0090000  0  5  3 16 20 12 17
  26026109.006    -6176256.049 6  -4812658.866 5
  24092221.310   -15065015.363 8 -11738958.616 8
  23303622.046   -19910381.669 9 -15514568.921 9
  27003504.357     3904134.041 4   3042183.851 1
  26848400.435    -1133069.808 4   -882910.699 2
 91  5  3  4 28 30.0090000  0  5  3 16 20 12 17
  26017363.149    -6222222.140 6  -4848476.567 5
  24087559.833   -15089513.560 8 -11758048.085 9
  23301805.600   -19919924.995 9 -15522005.282 9
  27026232.533     4023560.563 4   3135243.393 2
  26833457.290    -1211615.911 4   -944115.387 3
 91  5  3  4 29  0.0090000  0  5  3 16 20 12 17
  26008615.215    -6268177.539 6  -4884285.939 5
  24082999.393   -15113477.869 8 -11776721.530 9
  23300097.678   -19928899.826 9 -15528998.648 9
  27048968.788     4143012.651 4   3228322.725 2
  26818549.499    -1289964.241 4  -1005165.922 3
 91  5  3  4 29 30.0090000  0  5  3 16 20 12 17
  25999877.752    -6314129.045 6  -4920092.270 5
  24078537.878   -15136913.165 8 -11794982.767 8
  23298497.981   -19937312.030 9 -15535553.611 9
  27071717.032     4262480.336 3   3321414.319 1
  26803669.612    -1368120.310 4  -1066066.634 4
 91  5  3  4 30  0.0090000  0  4  3 16 20 17
  25991126.520    -6360071.407 6  -4955891.455 5
  24074183.386   -15159813.266 8 -11812826.967 9
  23297005.621   -19945154.948 9 -15541664.974 9
  26788841.272    -1446077.765 4  -1126812.632 2
 91  5  3  4 30 30.0090000  0  4  3 16 20 17
  25982392.669    -6406009.192 6  -4991687.093 5
  24069928.744   -15182180.452 8 -11830255.919 8
  23295621.173   -19952431.611 9 -15547335.091 9
  26774033.924    -1523840.355 4  -1187406.738 3
 91  5  3  4 31  0.0090000  0  4  3 16 20 17
  25973652.518    -6451936.651 6  -5027474.662 4
  24065775.714   -15204007.391 8 -11847263.895 9
  23294344.358   -19959135.084 9 -15552558.572 9
  26759276.642    -1601401.305 5  -1247843.728 2
 91  5  3  4 31 30.0090000  0  4  3 16 20 17
  25964913.257    -6497855.611 6  -5063255.625 4
  24061722.814   -15225294.087 8 -11863850.916 9
  23293177.864   -19965265.337 8 -15557335.382 9
  26744557.121    -1678760.659 4  -1308123.630 2
 91  5  3  4 32  0.0090000  0  4  3 16 20 17
  25956179.405    -6543770.422 6  -5099033.351 4
  24057773.044   -15246043.684 8 -11880019.406 9
  23292118.094   -19970826.160 8 -15561668.482 9
  26729874.490    -1755922.094 4  -1368249.287 2
 91  5  3  4 32 30.0090000  0  4  3 16 20 17
  25947443.460    -6589675.721 6  -5134803.657 4
  24053925.812   -15266248.588 8 -11895763.454 9
  23291173.758   -19975810.597 8 -15565552.461 9
  26715229.936    -1832878.932 5  -1428215.573 4
 91  5  3  4 33  0.0090000  0  4  3 16 20 17
  25938704.513    -6635573.487 6  -5170568.144 4
  24050184.712   -15285909.890 8 -11911083.921 9
  23290332.832   -19980219.863 8 -15568988.239 9
  26700620.143    -1909632.782 4  -1488023.646 2
 91  5  3  4 33 30.0090000  0  4  3 16 20 17
  25929970.958    -6681465.057 6  -5206327.751 5
  24046547.616   -15305026.694 8 -11925980.099 9
  23289600.150   -19984053.103 9 -15571975.166 9
  26686051.130    -1986183.812 5  -1547673.681 4
 91  5  3  4 34  0.0090000  0  4  3 16 20 17
  25921251.486    -6727347.327 6  -5242080.113 5
  24043016.372   -15323594.697 8 -11940448.641 9
  23288984.070   -19987306.126 9 -15574509.980 9
  26671526.791    -2062527.332 4  -1607162.037 3
 91  5  3  4 34 30.0090000  0  4  3 16 20 17
  25912520.339    -6773222.947 6  -5277827.292 6
  24039587.335   -15341614.993 8 -11954490.399 9
  23288477.124   -19989980.988 9 -15576594.274 9
  26657039.620    -2138665.126 4  -1666490.042 3
 91  5  3  4 35  0.0090000  0  4  3 16 20 17
  25903783.783    -6819094.819 6  -5313571.552 5
  24036264.743   -15359088.744 8 -11968106.277 9
  23288076.606   -19992079.044 9 -15578229.129 9
  26642601.606    -2214598.996 5  -1725659.164 3
 91  5  3  4 35 30.0090000  0  4  3 16 20 17
  25895059.232    -6864957.358 6  -5349308.535 5
  24033043.765   -15376009.525 8 -11981291.270 8
  23287789.690   -19993593.884 9 -15579409.514 9
  26628177.396    -2290322.174 4  -1784664.184 1
 91  5  3  4 36  0.0090000  0  4  3 16 20 17
  25886328.976    -6910813.769 6  -5385040.762 5
  24029927.435   -15392378.745 8 -11994046.475 9
  23287610.721   -19994527.717 8 -15580137.165 9
  26613811.347    -2365837.476 4  -1843507.113 4
 91  5  3  4 36 30.0090000  0  4  3 16 20 17
  25877605.612    -6956666.321 6  -5420769.957 5
  24026918.703   -15408197.441 8 -12006372.702 8
  23287544.165   -19994881.345 8 -15580412.722 9
  26599474.964    -2441145.948 4  -1902188.948 4
 91  5  3  4 37  0.0090000  0  4  3 16 20 17
  25868881.044    -7002510.589 6  -5456492.743 5
  24024010.119   -15423459.889 8 -12018265.488 9
  23287585.837   -19994649.749 8 -15580232.251 9
  26585180.566    -2516242.293 5  -1960705.470 2
 91  5  3  4 37 30.0090000  0  4  3 16 20 17
  25860158.884    -7048348.762 6  -5492210.752 5
  24021211.557   -15438167.045 8 -12029725.560 9
  23287740.533   -19993833.587 8 -15579596.272 9
  26570938.326    -2591127.470 5  -2019057.445 3
 91  5  3  4 38  0.0090000  0  4  3 16 20 17
  25851436.724    -7094180.001 6  -5527923.357 4
  24018520.926   -15452316.518 8 -12040751.095 9
  23288007.050   -19992431.539 8 -15578503.760 9
  26556730.551    -2665800.369 4  -2077243.978 3
 91  5  3  4 38 30.0090000  0  4  3 16 20 17
  25842713.657    -7140003.394 6  -5563629.844 5
  24015933.722   -15465906.460 8 -12051340.627 8
  23288388.390   -19990441.736 8 -15576953.253 9
  26542558.775    -2740258.927 5  -2135263.503 3
 91  5  3  4 39  0.0090000  0  4  3 16 20 17
  25833996.593    -7185818.040 6  -5599329.518 5
  24013454.430   -15478934.957 8 -12061492.673 9
  23288879.753   -19987862.815 8 -15574943.694 9
  26528429.543    -2814501.265 5  -2193114.495 4
 91  5  3  4 39 30.0090000  0  4  3 16 20 17
  25825283.734    -7231626.809 6  -5635024.627 4
  24011082.770   -15491403.246 8 -12071208.195 9
  23289480.232   -19984696.297 8 -15572476.275 9
  26514345.001    -2888529.213 5  -2250798.533 4
 91  5  3  4 40  0.0090000  0  4  3 16 20 17
  25816561.871    -7277430.948 6  -5670716.110 5
  24008819.338   -15503311.700 8 -12080487.488 9
  23290192.236   -19980942.537 8 -15569551.269 9
  26500294.924    -2962343.687 4  -2308316.208 4
 91  5  3  4 40 30.0090000  0  4  3 16 20 17
  25807853.793    -7323229.223 6  -5706403.007 4
  24006659.943   -15514658.039 8 -12089328.766 9
  23291023.564   -19976599.613 8 -15566167.163 9
  26486292.223    -3035942.252 5  -2365665.620 4
 91  5  3  4 41  0.0090000  0  4  3 16 20 17
  25799131.930    -7369020.868 6  -5742084.772 6
  24004605.756   -15525440.404 8 -12097730.584 9
  23291962.508   -19971666.164 8 -15562322.920 9
  26472330.880    -3109323.391 5  -2422845.583 2
 91  5  3  4 41 30.0090000  0  4  3 16 20 17
  25790422.369    -7414802.900 6  -5777759.042 5
  24002658.905   -15535654.461 8 -12105689.555 9
  23293011.179   -19966138.685 8 -15558015.789 9
  26458410.929    -3182483.500 5  -2479853.352 3
 91  5  3  4 42  0.0090000  0  4  3 16 20 17
  25781713.088    -7460584.306 6  -5813432.804 5
  24000825.375   -15545308.286 8 -12113211.985 9
  23294172.578   -19960025.087 8 -15553251.951 9
  26444533.224    -3255430.443 5  -2536694.984 4
 91  5  3  4 42 30.0090000  0  4  3 16 20 17
  25772999.322    -7506356.533 6  -5849099.420 5
  23999097.368   -15554392.525 8 -12120290.590 9
  23295450.301   -19953316.476 8 -15548024.458 9
  26430673.825    -3328155.469 4  -2593363.725 5
 91  5  3  4 43  0.0090000  0  4  3 16 20 17
  25764292.745    -7552118.911 6  -5884758.349 6
  23997476.993   -15562905.678 8 -12126924.189 9
  23296843.439   -19946011.434 8 -15542332.218 9
  26416889.968    -3400657.235 5  -2649858.499 2
 91  5  3  4 43 30.0090000  0  4  3 16 20 17
  25755585.872    -7597869.748 6  -5920408.340 4
  23995963.640   -15570844.760 8 -12133110.457 9
  23298345.100   -19938107.782 8 -15536173.522 9
  26403136.387    -3472932.703 5  -2706176.868 3
 91  5  3  4 44  0.0090000  0  4  3 16 20 17
  25746879.312    -7643615.912 6  -5956054.639 4
  23994563.016   -15578216.167 8 -12138854.385 9
  23299963.974   -19929611.962 8 -15529553.398 9
  26389429.275    -3544988.485 5  -2762324.174 3
 91  5  3  4 44 30.0090000  0  4  3 16 20 17
  25738177.238    -7689357.795 6  -5991697.597 6
  23993266.412   -15585020.001 8 -12144156.052 9
  23301693.168   -19920523.434 8 -15522471.432 9
  26375751.551    -3616824.090 5  -2818299.853 3
 91  5  3  4 45  0.0090000  0  4  3 16 20 17
  25729475.163    -7735092.413 6  -6027334.893 5
  23992082.520   -15591251.242 8 -12149011.544 9
  23303536.592   -19910839.420 9 -15514925.455 9
  26362126.281    -3688436.194 5  -2874101.356 2
 91  5  3  4 45 30.0090000  0  4  3 16 20 17
  25720773.979    -7780822.625 6  -6062968.790 5
  23991007.778   -15596912.190 8 -12153422.647 9
  23305491.837   -19900561.659 9 -15506916.811 9
  26348547.778    -3759827.016 5  -2929730.469 4
 91  5  3  4 46  0.0090000  0  4  3 16 20 17
  25712074.905    -7826542.069 6  -6098594.281 4
  23990036.743   -15601996.460 8 -12157384.400 9
  23307564.015   -19889683.665 8 -15498440.456 9
  26334993.862    -3830989.021 5  -2985181.283 5
 91  5  3  4 46 30.0090000  0  4  3 16 20 17
  25703373.127    -7872258.309 6  -6134217.279 4
  23989178.437   -15606510.667 8 -12160901.937 9
  23309745.606   -19878212.236 8 -15489501.676 9
  26321504.408    -3901928.977 5  -3040459.042 2
 91  5  3  4 47  0.0090000  0  4  3 16 20 17
  25694674.351    -7917962.785 6  -6169831.093 5
  23988428.357   -15610445.431 8 -12163967.963 9
  23312037.815   -19866139.142 8 -15480094.068 9
  26308047.620    -3972638.300 5  -3095557.108 3
 91  5  3  4 47 30.0090000  0  4  3 16 20 17
  25685980.670    -7963657.485 6  -6205437.288 5
  23987787.096   -15613801.544 8 -12166583.089 9
  23314453.535   -19853465.664 8 -15470218.629 9
  26294628.315    -4043118.077 5  -3150476.308 3
 91  5  3  4 48  0.0090000  0  4  3 16 20 17
  25677286.081    -8009342.813 6  -6241036.195 5
  23987263.066   -15616579.985 8 -12168748.087 9
  23316976.593   -19840192.438 8 -15459875.853 9
  26281267.155    -4113368.653 5  -3205216.903 3
 91  5  3  4 48 30.0090000  0  4  3 16 20 17
  25668592.400    -8055016.525 7  -6276626.007 5
  23986843.650   -15618777.951 8 -12170460.777 9
  23319617.456   -19826316.332 8 -15449063.309 9
  26267934.787    -4183387.223 5  -3259776.699 3
 91  5  3  4 49  0.0090000  0  4  3 16 20 17
  25659906.816    -8100683.299 7  -6312210.471 5
  23986536.963   -15620398.637 8 -12171723.618 9
  23322373.753   -19811842.219 8 -15437784.779 9
  26254660.284    -4253177.367 5  -3314158.542 2
 91  5  3  4 49 30.0090000  0  4  3 16 20 17
  25651220.028    -8146336.655 7  -6347784.476 5
  23986336.111   -15621435.505 8 -12172531.544 9
  23325244.576   -19796763.507 9 -15426035.141 9
  26241428.936    -4322732.271 5  -3368357.034 3
 91  5  3  4 50  0.0090000  0  4  3 16 20 17
  25642530.239    -8191985.206 6  -6383354.691 5
  23986250.657   -15621896.959 8 -12172891.096 9
  23328224.811   -19781088.281 8 -15413820.676 9
  26228229.678    -4392060.482 5  -3422378.911 5
 91  5  3  4 50 30.0090000  0  4  3 16 20 17
  25633850.361    -8237627.368 7  -6418919.966 5
  23986270.445   -15621780.905 8 -12172800.643 9
  23331323.760   -19764815.634 8 -15401140.693 9
  26215081.079    -4461159.917 5  -3476222.506 3
 91  5  3  4 51  0.0090000  0  4  3 16 20 17
  25625162.962    -8283260.521 6  -6454478.206 6
  23986405.964   -15621084.136 8 -12172257.689 9
  23334533.344   -19747942.335 9 -15387992.667 9
  26201977.449    -4530027.094 5  -3529885.121 5
 91  5  3  4 51 30.0090000  0  4  3 16 20 17
  25616480.379    -8328885.163 6  -6490029.791 6
  23986646.393   -15619807.308 8 -12171262.738 9
  23337857.733   -19730469.044 8 -15374377.121 9
  26188918.491    -4598661.990 5  -3583366.759 4
 91  5  3  4 52  0.0090000  0  4  3 16 20 17
  25607802.281    -8374496.925 7  -6525571.375 5
  23987004.646   -15617945.177 8 -12169811.710 9
  23341297.554   -19712391.116 8 -15360290.424 9
  26175895.498    -4667060.237 5  -3636664.003 4
 91  5  3  4 52 30.0090000  0  4  3 16 20 17
  25599119.995    -8420096.560 6  -6561103.498 4
  23987469.328   -15615498.392 8 -12167905.105 9
  23344853.996   -19693709.788 9 -15345733.551 9
  26162930.684    -4735222.418 5  -3689777.272 5
 91  5  3  4 53  0.0090000  0  4  3 16 20 17
  25590445.806    -8465689.321 6  -6596630.264 6
  23988046.424   -15612472.029 8 -12165546.878 9
  23348521.962   -19674430.024 8 -15330710.355 9
  26150000.038    -4803152.789 5  -3742709.925 4
 91  5  3  4 53 30.0090000  0  4  3 16 20 17
  25581777.009    -8511266.514 7  -6632144.925 6
  23988731.746   -15608857.073 8 -12162730.011 9
  23352308.642   -19654543.621 8 -15315214.459 9
  26137122.144    -4870842.599 5  -3795455.137 4
 91  5  3  4 54  0.0090000  0  4  3 16 20 17
  25573102.209    -8556828.164 7  -6667647.441 6
  23989530.687   -15604653.741 8 -12159454.670 9
  23356208.329   -19634050.757 8 -15299245.997 9
  26124289.830    -4938291.445 5  -3848012.558 5
 91  5  3  4 54 30.0090000  0  4  3 16 20 17
  25564434.913    -8602379.291 7  -6703141.739 4
  23990442.356   -15599866.495 8 -12155724.338 9
  23360221.059   -19612956.187 8 -15282808.672 9
  26111495.888    -5005503.946 5  -3900385.853 3
 91  5  3  4 55  0.0090000  0  4  3 16 20 17
  25555768.210    -8647920.892 7  -6738628.661 6
  23991462.548   -15594496.169 8 -12151539.652 9
  23364350.095   -19591261.459 8 -15265903.689 9
  26098750.808    -5072480.857 5  -3952575.540 4
 91  5  3  4 55 30.0090000  0  4  3 16 20 17
  25547104.508    -8693451.816 7  -6774107.243 6
  23992601.472   -15588542.664 8 -12146900.542 9
  23368591.265   -19568965.993 8 -15248530.593 9
  26086048.602    -5139220.962 5  -4004580.753 4
 91  5  3  4 56  0.0090000  0  4  3 16 20 17
  25538444.401    -8738969.016 7  -6809575.144 5
  23993838.116   -15582001.873 8 -12141803.801 9
  23372950.539   -19546066.853 8 -15230687.100 9
  26073396.165    -5205720.867 5  -4056398.741 3
 91  5  3  4 56 30.0090000  0  4  3 16 20 17
  25529783.404    -8784471.809 7  -6845031.796 6
  23995200.368   -15574872.962 8 -12136248.787 9
  23377422.856   -19522563.898 8 -15212373.106 9
  26060790.197    -5271979.254 5  -4108028.574 4
 91  5  3  4 57  0.0090000  0  4  3 16 20 17
  25521126.892    -8829960.825 7  -6880477.748 6
  23996669.048   -15567157.076 8 -12130236.391 9
  23382008.476   -19498458.234 8 -15193589.478 9
  26048218.694    -5337997.173 5  -4159470.988 2
 91  5  3  4 57 30.0090000  0  4  3 16 20 17
  25512473.975    -8875434.951 7  -6915912.106 6
  23998246.268   -15558853.091 8 -12123765.733 9
  23386711.921   -19473748.325 8 -15174334.997 9
  26035703.258    -5403772.635 5  -4210724.515 4
 91  5  3  4 58  0.0090000  0  4  3 16 20 17
  25503822.873    -8920895.303 7  -6951335.674 6
  23999941.592   -15549962.425 8 -12116837.925 9
  23391528.390   -19448436.175 8 -15154611.245 9
  26023241.779    -5469306.688 5  -4261789.877 4
 91  5  3  4 58 30.0090000  0  4  3 16 20 17
  25495174.161    -8966341.681 7  -6986748.375 5
  24001743.641   -15540484.765 8 -12109452.719 9
  23396457.571   -19422522.288 8 -15134418.598 9
  26010805.497    -5534599.489 5  -4312667.297 3
 91  5  3  4 59  0.0090000  0  4  3 16 20 17
  25486528.136    -9011773.470 7  -7022149.738 6
  24003655.120   -15530419.598 8 -12101609.713 9
  23401504.278   -19396006.244 8 -15113756.748 9
  25998428.564    -5599649.609 5  -4363355.608 5
 91  5  3  4 59 30.0090000  0  4  3 16 20 17
  25477883.630    -9057189.053 7  -7057538.458 5
  24005682.312   -15519766.210 8 -12093308.353 9
  23406664.011   -19368887.231 8 -15092625.053 9
  25986098.693    -5664455.734 5  -4413853.795 4
 91  5  3  5  0  0.0100000  0  4  3 16 20 17
  25469246.002    -9102593.681 7  -7092918.629 6
  24007825.830   -15508527.755 8 -12084551.091 9
  23411939.756   -19341168.831 8 -15071026.300 9
  25973807.514    -5729023.917 5  -4464166.585 3
 91  5  3  5  0 30.0100000  0  4  3 16 20 17
  25460608.685    -9147981.276 7  -7128285.512 6
  24010070.068   -15496702.380 8 -12075336.497 9
  23417325.818   -19312850.595 8 -15048960.137 9
  25961569.083    -5793345.966 5  -4514287.586 4
 91  5  3  5  1  0.0100000  0  4  3 16 20 17
  25451978.261    -9193347.396 7  -7163635.674 6
  24012435.131   -15484283.453 8 -12065659.396 9
  23422832.409   -19283926.500 8 -15026421.882 9
  25949378.919    -5857418.030 5  -4564213.758 3
 91  5  3  5  1 30.0100000  0  4  3 16 20 17
  25443347.837    -9238698.498 7  -7198974.139 6
  24014912.625   -15471279.573 8 -12055526.480 9
  23428450.524   -19254403.483 8 -15003416.938 9
  25937231.630    -5921247.339 5  -4613950.751 5
 91  5  3  5  2  0.0100000  0  4  3 16 20 17
  25434718.303    -9284035.304 7  -7234301.481 5
  24017496.531   -15457690.234 8 -12044937.377 9
  23434183.147   -19224282.836 8 -14979946.305 9
  25925135.000    -5984833.829 5  -4663498.599 2
 91  5  3  5  2 30.0100000  0  4  3 16 20 17
  25426098.681    -9329347.203 7  -7269609.383 6
  24020196.167   -15443505.339 8 -12033884.196 9
  23440033.001   -19193554.516 8 -14956002.168 9
  25913081.541    -6048167.154 5  -4712849.161 4
 91  5  3  5  3  0.0100000  0  4  3 16 20 17
  25417477.855    -9374635.247 7  -7304898.708 6
  24023009.718   -15428727.342 8 -12022368.858 9
  23445994.379   -19162221.020 8 -14931586.471 9
  25901079.055    -6111248.419 5  -4762003.302 4
 91  5  3  5  3 30.0100000  0  4  3 16 20 17
  25408864.218    -9419906.396 7  -7340174.872 6
  24025935.998   -15413363.392 8 -12010396.941 9
  23452068.765   -19130290.109 8 -14906705.245 9
  25889120.036    -6174084.265 5  -4810966.226 4
 91  5  3  5  4  0.0100000  0  4  3 16 20 17
  25400251.768    -9465158.971 7  -7375436.586 6
  24028968.392   -15397411.748 8 -11997967.076 9
  23458256.194   -19097760.463 8 -14881357.477 9
  25877206.284    -6236672.929 5  -4859736.543 3
 91  5  3  5  4 30.0100000  0  4  3 16 20 17
  25391644.430    -9510388.723 7  -7410680.499 6
  24032117.720   -15380869.299 8 -11985076.846 9
  23464566.227   -19064629.382 8 -14855541.055 9
  25865353.084    -6299010.938 6  -4908311.546 4
 91  5  3  5  5  0.0100000  0  4  3 16 20 17
  25383043.078    -9555597.113 7  -7445907.756 6
  24035374.960   -15363738.424 8 -11971728.108 9
  23470984.784   -19030898.762 8 -14829257.467 9
  25853530.771    -6361099.084 6  -4956691.806 4
 91  5  3  5  5 30.0100000  0  4  3 16 20 17
  25374445.635    -9600780.921 7  -7481115.882 5
  24038749.117   -15346016.094 8 -11957918.478 9
  23477513.364   -18996566.868 8 -14802505.344 9
  25841764.525    -6422934.871 6  -5004875.462 5
 91  5  3  5  6  0.0100000  0  4  3 16 20 17
  25365849.990    -9645941.043 7  -7516305.539 6
  24042233.908   -15327703.936 8 -11943649.257 9
  23484161.548   -18961635.639 8 -14775286.207 9
  25830047.734    -6484519.081 6  -5052863.085 5
 91  5  3  5  6 30.0100000  0  4  3 16 20 17
  25357260.626    -9691081.669 7  -7551480.026 6
  24045827.815   -15308807.455 8 -11928924.711 9
  23490926.073   -18926110.219 8 -14747604.071 9
  25818373.207    -6545856.002 6  -5100657.994 4
 91  5  3  5  7  0.0100000  0  4  3 16 20 17
  25348672.187    -9736201.630 7  -7586638.382 6
  24049535.951   -15289325.963 8 -11913744.314 9
  23497797.008   -18889990.345 8 -14719458.726 9
  25806750.559    -6606944.223 6  -5148259.111 6
 91  5  3  5  7 30.0100000  0  4  3 16 20 17
  25340097.220    -9781298.366 7  -7621778.658 6
  24053353.815   -15269257.632 8 -11898106.636 9
  23504783.378   -18853274.741 8 -14690849.181 9
  25795172.566    -6667781.884 6  -5195664.986 5
 91  5  3  5  8  0.0100000  0  4  3 16 20 17
  25331516.250    -9826367.816 7  -7656897.668 6
  24057284.092   -15248599.374 8 -11882009.285 9
  23511883.069   -18815960.876 8 -14661773.453 9
  25783647.361    -6728365.303 5  -5242872.735 5
 91  5  3  5  8 30.0100000  0  4  3 16 20 17
  25322942.487    -9871414.955 7  -7691999.293 6
  24061326.488   -15227356.831 8 -11865456.634 9
  23519095.767   -18778054.578 8 -14632236.081 9
  25772166.496    -6788699.180 5  -5289886.042 4
 91  5  3  5  9  0.0100000  0  4  3 16 20 17
  25314377.117    -9916436.539 7  -7727081.010 6
  24065482.519   -15205528.071 8 -11848447.200 9
  23526425.696   -18739554.268 9 -14602235.851 9
  25760728.524    -6848780.731 5  -5336702.765 4
 91  5  3  5  9 30.0100000  0  4  3 16 20 17
  25305809.950    -9961432.612 7  -7762142.858 6
  24069744.961   -15183113.922 8 -11830981.616 9
  23533863.851   -18700461.512 8 -14571773.966 9
  25749343.304    -6908609.983 5  -5383322.843 5
 91  5  3  5 10  0.0100000  0  4  3 16 20 17
  25297257.773   -10006400.044 7  -7797182.374 7
  24074123.727   -15160112.171 8 -11813058.163 9
  23541416.218   -18660774.266 8 -14540848.855 9
  25738009.056    -6968184.306 6  -5429744.311 4
 91  5  3  5 10 30.0100000  0  4  3 16 20 17
  25288707.393   -10051339.700 7  -7832200.238 7
  24078613.424   -15136524.637 8 -11794678.267 9
  23549078.906   -18620494.498 8 -14509462.025 9
  25726718.259    -7027504.894 6  -5475968.062 4
 91  5  3  5 11  0.0100000  0  4  3 16 20 17
  25280158.514   -10096251.424 7  -7867196.334 7
  24083214.331   -15112351.844 8 -11775842.316 9
  23556860.324   -18579623.855 8 -14477614.784 9
  25715480.545    -7086571.847 6  -5521994.194 3
 91  5  3  5 11 30.0100000  0  4  3 16 20 17
  25271620.716   -10141129.111 7  -7902165.924 6
  24087927.076   -15087589.772 8 -11756547.190 9
  23564746.357   -18538157.678 8 -14445303.483 9
  25704289.895    -7145378.884 6  -5567817.732 4
 91  5  3  5 12  0.0100000  0  4  3 16 20 17
  25263084.732   -10185980.854 7  -7937115.314 7
  24092747.734   -15062247.375 8 -11736799.856 9
  23572749.620   -18496105.593 8 -14412535.635 9
  25693144.511    -7203935.409 6  -5613446.126 5
 91  5  3  5 12 30.0100000  0  4  3 16 20 17
  25254556.532   -10230802.875 7  -7972041.513 6
  24097679.915   -15036322.519 8 -11716598.668 9
  23580867.112   -18453465.336 8 -14379309.466 9
  25682050.378    -7262237.660 6  -5658876.363 3
 91  5  3  5 13  0.0100000  0  4  3 16 20 17
  25246032.537   -10275590.039 7  -8006940.545 7
  24102726.937   -15009811.239 8 -11695940.520 9
  23589093.407   -18410233.143 8 -14345622.056 9
  25671001.842    -7320280.394 6  -5704104.395 4
 91  5  3  5 13 30.0100000  0  4  3 16 20 17
  25237515.138   -10320348.597 7  -8041817.305 7
  24107880.667   -14982719.748 8 -11674830.258 9
  23597431.836   -18366416.861 8 -14311479.508 9
  25660009.950    -7378070.296 6  -5749135.394 4
 91  5  3  5 14  0.0100000  0  4  3 16 20 17
  25229004.928   -10365070.228 7  -8076665.303 6
  24113145.921   -14955042.127 8 -11653263.276 9
  23605881.197   -18322010.207 8 -14276876.938 9
  25649059.433    -7435599.910 6  -5793963.590 5
 91  5  3  5 14 30.0100000  0  4  3 16 20 17
  25220503.112   -10409758.691 7  -8111487.450 7
  24118525.684   -14926782.982 8 -11631243.164 9
  23614440.563   -18277018.439 8 -14241818.424 9
  25638162.871    -7492872.910 6  -5838591.806 4
 91  5  3  5 15  0.0100000  0  4  3 16 20 17
  25212005.188   -10454411.354 7  -8146281.692 7
  24124015.784   -14897941.168 8 -11608769.012 9
  23623113.252   -18231440.683 8 -14206303.296 9
  25627309.481    -7549887.654 6  -5883018.783 4
 91  5  3  5 15 30.0100000  0  4  3 16 20 17
  25203512.376   -10499035.659 7  -8181053.850 6
  24129611.109   -14868525.427 8 -11585847.656 9
  23631898.669   -18185286.162 8 -14170338.744 9
  25616514.550    -7606652.040 6  -5927250.700 5
 91  5  3  5 16  0.0100000  0  4  3 16 20 17
  25195027.941   -10543624.030 7  -8215797.977 7
  24135319.773   -14838530.289 8 -11562474.803 9
  23640792.312   -18138549.163 8 -14133920.316 9
  25605760.993    -7663158.690 6  -5971281.794 4
 91  5  3  5 16 30.0100000  0  4  3 16 20 17
  25186550.416   -10588171.631 7  -8250510.365 7
  24141137.536   -14807952.461 8 -11538647.931 9
  23649798.387   -18091226.832 8 -14097045.779 9
  25595058.111    -7719403.922 6  -6015109.178 5
 91  5  3  5 17  0.0100000  0  4  3 16 20 17
  25178077.986   -10632679.837 7  -8285192.041 7
  24147065.340   -14776794.010 8 -11514368.611 9
  23658912.967   -18043322.107 8 -14059717.425 9
  25584400.181    -7775388.903 6  -6058733.748 3
 91  5  3  5 17 30.0100000  0  4  3 16 20 17
  25169615.730   -10677148.393 7  -8319842.814 7
  24153105.245   -14745056.521 8 -11489638.099 9
  23668141.480   -17994836.823 8 -14021936.693 9
  25573797.429    -7831114.528 6  -6102156.237 5
 91  5  3  5 18  0.0100000  0  4  3 16 20 17
  25161163.385   -10721575.072 7  -8354460.966 7
  24159258.488   -14712739.566 8 -11464456.056 9
  23677474.920   -17945770.507 8 -13983703.222 9
  25563246.539    -7886578.328 6  -6145374.716 4
 91  5  3  5 18 30.0100000  0  4  3 16 20 17
  25152716.730   -10765960.308 7  -8389046.830 7
  24165515.770   -14679844.660 8 -11438823.657 9
  23686925.574   -17896125.766 8 -13945019.019 9
  25552731.910    -7941781.927 6  -6188390.422 4
 91  5  3  5 19  0.0100000  0  4  3 16 20 17
  25144283.284   -10810305.867 7  -8423601.783 8
  24171888.153   -14646375.696 8 -11412743.938 9
  23696473.374   -17845906.340 8 -13905887.012 9
  25542281.742    -7996728.138 6  -6231205.571 5
 91  5  3  5 19 30.0100000  0  4  3 16 20 17
  25135845.911   -10854608.378 7  -8458123.186 7
  24178363.074   -14612331.286 8 -11386215.826 9
  23706143.482   -17795110.986 8 -13866306.229 9
  25531876.544    -8051414.187 6  -6273818.027 4
 91  5  3  5 20  0.0100000  0  4  3 16 20 17
  25127427.141   -10898864.512 7  -8492608.427 7
  24184951.613   -14577709.672 8 -11359237.939 9
  23715923.299   -17743738.506 8 -13826275.741 9
  25521516.925    -8105836.564 6  -6316225.044 5
 91  5  3  5 20 30.0100000  0  4  3 16 20 17
  25119017.672   -10943075.579 7  -8527058.564 7
  24191648.064   -14542513.809 8 -11331812.591 9
  23725805.672   -17691792.386 8 -13785798.254 9
  25511211.263    -8159997.374 6  -6358428.190 4
 91  5  3  5 21  0.0100000  0  4  3 16 20 17
  25110606.091   -10987252.009 7  -8561481.719 7
  24198451.555   -14506755.603 8 -11303949.048 9
  23735798.644   -17639284.678 8 -13744883.176 9
  25500952.961    -8213908.239 6  -6400436.624 5
 91  5  3  5 21 30.0100000  0  4  3 16 20 17
  25102207.999   -11031383.405 7  -8595869.788 7
  24205367.478   -14470427.062 8 -11275641.086 9
  23745898.952   -17586208.141 8 -13703524.850 9
  25490740.831    -8267559.692 6  -6442242.901 4
 91  5  3  5 22  0.0100000  0  4  3 16 20 17
  25093821.616   -11075465.469 8  -8630219.413 7
  24212388.608   -14433524.866 8 -11246886.128 9
  23756105.986   -17532559.988 8 -13661721.106 9
  25480586.550    -8320947.061 6  -6483843.382 5
 91  5  3  5 22 30.0100000  0  4  3 16 20 17
  25085440.015   -11119501.901 7  -8664533.473 7
  24219520.075   -14396056.230 8 -11217689.793 9
  23766424.544   -17478347.062 8 -13619477.290 9
  25470475.161    -8374075.841 6  -6525242.330 5
 91  5  3  5 23  0.0100000  0  4  3 16 20 17
  25077065.603   -11163489.131 7  -8698809.204 7
  24226759.159   -14358018.393 8 -11188049.907 9
  23776846.529   -17423566.841 8 -13576791.420 9
  25460421.322    -8426942.530 6  -6566437.064 5
 91  5  3  5 23 30.0100000  0  4  3 16 20 17
  25068710.090   -11207424.280 7  -8733044.356 7
  24234105.281   -14319410.336 8 -11157965.711 9
  23787380.632   -17368219.502 8 -13533663.641 9
  25450404.060    -8479544.829 6  -6607425.807 5
 91  5  3  5 24  0.0100000  0  4  3 16 20 17
  25060358.468   -11251307.831 7  -8767239.289 7
  24241560.521   -14280234.799 8 -11127439.316 9
  23798019.681   -17312308.143 8 -13490096.356 9
  25440443.755    -8531884.949 6  -6648210.250 5
